Wetterdaten: Donnerstag, 14.06.2018
Datum Zeit Temp. A. Pool Temp. Feuchte A. Luftdruck Regen Wind Richtung Richtung Sonnenschein ET UV Solar Taupunkt Windchill Windben Empfang
14.06.2018 00:00 13,6 C 23,3 C 97 % 1013,0 hPa 0,0 l/m 0,3 km/h (0 Bft) NW 315 0 min 0,000 mm 0,0 UV-I 0 W/m 13,1 C 13,6 C 1,6 km/h (1 Bft) 95,65 %
14.06.2018 00:02 13,6 C 23,3 C 97 % 1013,0 hPa 0,0 l/m 0,3 km/h (0 Bft) NW 316 0 min 0,000 mm 0,0 UV-I 0 W/m 13,1 C 13,6 C 1,6 km/h (1 Bft) 97,30 %
14.06.2018 00:03 13,6 C 23,3 C 97 % 1013,0 hPa 0,0 l/m 0,1 km/h (0 Bft) NW 316 0 min 0,000 mm 0,0 UV-I 0 W/m 13,1 C 13,6 C 1,6 km/h (1 Bft) 100,00 %
14.06.2018 00:04 13,6 C 23,3 C 97 % 1013,0 hPa 0,0 l/m 1,0 km/h (0 Bft) NW 315 0 min 0,000 mm 0,0 UV-I 0 W/m 13,1 C 13,6 C 3,2 km/h (1 Bft) 91,30 %
14.06.2018 00:05 13,6 C 23,3 C 97 % 1013,0 hPa 0,0 l/m 1,8 km/h (1 Bft) W-NW 287 0 min 0,000 mm 0,0 UV-I 0 W/m 13,1 C 13,6 C 4,8 km/h (1 Bft) 100,00 %
14.06.2018 00:06 13,6 C 23,3 C 97 % 1013,0 hPa 0,0 l/m 1,4 km/h (1 Bft) W 276 0 min 0,000 mm 0,0 UV-I 0 W/m 13,1 C 13,6 C 3,2 km/h (1 Bft) 100,00 %
14.06.2018 00:07 13,6 C 23,3 C 97 % 1013,0 hPa 0,0 l/m 1,7 km/h (1 Bft) W 280 0 min 0,000 mm 0,0 UV-I 0 W/m 13,1 C 13,6 C 3,2 km/h (1 Bft) 100,00 %
14.06.2018 00:08 13,6 C 23,3 C 97 % 1013,0 hPa 0,0 l/m 3,2 km/h (1 Bft) W 279 0 min 0,000 mm 0,0 UV-I 0 W/m 13,1 C 13,6 C 4,8 km/h (1 Bft) 100,00 %
14.06.2018 00:09 13,6 C 23,3 C 97 % 1013,0 hPa 0,0 l/m 3,6 km/h (1 Bft) W-NW 290 0 min 0,000 mm 0,0 UV-I 0 W/m 13,1 C 13,6 C 6,4 km/h (2 Bft) 100,00 %
14.06.2018 00:10 13,6 C 23,3 C 97 % 1013,1 hPa 0,0 l/m 2,5 km/h (1 Bft) N-NW 331 0 min 0,000 mm 0,0 UV-I 0 W/m 13,1 C 13,6 C 4,8 km/h (1 Bft) 100,00 %
14.06.2018 00:11 13,6 C 23,3 C 97 % 1013,0 hPa 0,2 l/m 3,0 km/h (1 Bft) W-NW 287 0 min 0,000 mm 0,0 UV-I 0 W/m 13,1 C 13,6 C 6,4 km/h (2 Bft) 100,00 %
14.06.2018 00:12 13,5 C 23,3 C 97 % 1013,0 hPa 0,0 l/m 1,9 km/h (1 Bft) W-NW 302 0 min 0,000 mm 0,0 UV-I 0 W/m 13,0 C 13,5 C 3,2 km/h (1 Bft) 95,65 %
14.06.2018 00:13 13,5 C 23,3 C 97 % 1013,0 hPa 0,0 l/m 0,5 km/h (0 Bft) W-NW 302 0 min 0,000 mm 0,0 UV-I 0 W/m 13,0 C 13,5 C 1,6 km/h (1 Bft) 100,00 %
14.06.2018 00:14 13,5 C 23,3 C 97 % 1013,1 hPa 0,0 l/m 0,1 km/h (0 Bft) W-NW 302 0 min 0,000 mm 0,0 UV-I 0 W/m 13,0 C 13,5 C 1,6 km/h (1 Bft) 95,65 %
14.06.2018 00:15 13,5 C 23,3 C 97 % 1013,1 hPa 0,0 l/m 0,7 km/h (0 Bft) W-NW 302 0 min 0,000 mm 0,0 UV-I 0 W/m 13,0 C 13,5 C 1,6 km/h (1 Bft) 95,83 %
14.06.2018 00:16 13,5 C 23,3 C 97 % 1013,1 hPa 0,0 l/m 0,8 km/h (0 Bft) W-NW 302 0 min 0,000 mm 0,0 UV-I 0 W/m 13,0 C 13,5 C 1,6 km/h (1 Bft) 100,00 %
14.06.2018 00:17 13,5 C 23,3 C 97 % 1013,1 hPa 0,0 l/m 1,8 km/h (1 Bft) N-NW 343 0 min 0,000 mm 0,0 UV-I 0 W/m 13,0 C 13,5 C 3,2 km/h (1 Bft) 95,83 %
14.06.2018 00:18 13,4 C 23,3 C 97 % 1013,1 hPa 0,0 l/m 1,6 km/h (1 Bft) N-NO 18 0 min 0,000 mm 0,0 UV-I 0 W/m 12,9 C 13,4 C 4,8 km/h (1 Bft) 100,00 %
14.06.2018 00:19 13,4 C 23,3 C 97 % 1013,1 hPa 0,0 l/m 1,3 km/h (1 Bft) N-NO 18 0 min 0,000 mm 0,0 UV-I 0 W/m 12,9 C 13,4 C 3,2 km/h (1 Bft) 91,67 %
14.06.2018 00:20 13,4 C 23,3 C 97 % 1013,1 hPa 0,0 l/m 3,4 km/h (1 Bft) N-NO 32 0 min 0,000 mm 0,0 UV-I 0 W/m 12,9 C 13,4 C 4,8 km/h (1 Bft) 100,00 %
14.06.2018 00:21 13,4 C 23,3 C 97 % 1013,1 hPa 0,2 l/m 5,0 km/h (1 Bft) N-NO 32 0 min 0,000 mm 0,0 UV-I 0 W/m 12,9 C 13,4 C 6,4 km/h (2 Bft) 95,83 %
14.06.2018 00:22 13,4 C 23,3 C 97 % 1013,2 hPa 0,0 l/m 4,5 km/h (1 Bft) N-NO 22 0 min 0,000 mm 0,0 UV-I 0 W/m 12,9 C 13,4 C 6,4 km/h (2 Bft) 100,00 %
14.06.2018 00:23 13,4 C 23,3 C 97 % 1013,1 hPa 0,0 l/m 4,6 km/h (1 Bft) N-NO 25 0 min 0,000 mm 0,0 UV-I 0 W/m 12,9 C 13,4 C 6,4 km/h (2 Bft) 95,65 %
14.06.2018 00:24 13,4 C 23,3 C 97 % 1013,1 hPa 0,0 l/m 4,2 km/h (1 Bft) N-NO 27 0 min 0,000 mm 0,0 UV-I 0 W/m 12,9 C 13,4 C 6,4 km/h (2 Bft) 95,83 %
14.06.2018 00:25 13,4 C 23,3 C 97 % 1013,2 hPa 0,0 l/m 3,4 km/h (1 Bft) N 5 0 min 0,000 mm 0,0 UV-I 0 W/m 12,9 C 13,4 C 4,8 km/h (1 Bft) 100,00 %
14.06.2018 00:26 13,4 C 23,3 C 97 % 1013,2 hPa 0,0 l/m 3,2 km/h (1 Bft) N 5 0 min 0,000 mm 0,0 UV-I 0 W/m 12,9 C 13,4 C 4,8 km/h (1 Bft) 95,83 %
14.06.2018 00:27 13,4 C 23,3 C 97 % 1013,2 hPa 0,2 l/m 1,1 km/h (1 Bft) N 5 0 min 0,000 mm 0,0 UV-I 0 W/m 12,9 C 13,4 C 3,2 km/h (1 Bft) 100,00 %
14.06.2018 00:28 13,4 C 23,3 C 97 % 1013,2 hPa 0,0 l/m 0,9 km/h (0 Bft) N 5 0 min 0,000 mm 0,0 UV-I 0 W/m 12,9 C 13,4 C 1,6 km/h (1 Bft) 95,83 %
14.06.2018 00:29 13,4 C 23,3 C 97 % 1013,2 hPa 0,0 l/m 0,1 km/h (0 Bft) N 5 0 min 0,000 mm 0,0 UV-I 0 W/m 12,9 C 13,4 C 1,6 km/h (1 Bft) 100,00 %
14.06.2018 00:30 13,4 C 23,3 C 97 % 1013,2 hPa 0,0 l/m 0,3 km/h (0 Bft) N 5 0 min 0,000 mm 0,0 UV-I 0 W/m 12,9 C 13,4 C 1,6 km/h (1 Bft) 95,83 %
14.06.2018 00:31 13,4 C 23,3 C 97 % 1013,2 hPa 0,0 l/m 1,3 km/h (1 Bft) N 5 0 min 0,000 mm 0,0 UV-I 0 W/m 12,9 C 13,4 C 1,6 km/h (1 Bft) 95,65 %
14.06.2018 00:32 13,3 C 23,3 C 97 % 1013,2 hPa 0,0 l/m 2,2 km/h (1 Bft) N 5 0 min 0,000 mm 0,0 UV-I 0 W/m 12,8 C 13,3 C 3,2 km/h (1 Bft) 100,00 %
14.06.2018 00:33 13,3 C 23,3 C 97 % 1013,3 hPa 0,0 l/m 1,0 km/h (0 Bft) N 5 0 min 0,000 mm 0,0 UV-I 0 W/m 12,8 C 13,3 C 1,6 km/h (1 Bft) 95,65 %
14.06.2018 00:34 13,3 C 23,3 C 97 % 1013,3 hPa 0,0 l/m 1,6 km/h (1 Bft) N 5 0 min 0,000 mm 0,0 UV-I 0 W/m 12,8 C 13,3 C 3,2 km/h (1 Bft) 100,00 %
14.06.2018 00:35 13,3 C 23,3 C 97 % 1013,2 hPa 0,0 l/m 0,3 km/h (0 Bft) N 5 0 min 0,000 mm 0,0 UV-I 0 W/m 12,8 C 13,3 C 1,6 km/h (1 Bft) 95,65 %
14.06.2018 00:36 13,3 C 23,3 C 97 % 1013,2 hPa 0,0 l/m 0,0 km/h (0 Bft) N 5 0 min 0,000 mm 0,0 UV-I 0 W/m 12,8 C 13,3 C 0,0 km/h (0 Bft) 100,00 %
14.06.2018 00:37 13,3 C 23,3 C 97 % 1013,2 hPa 0,0 l/m 0,0 km/h (0 Bft) N 5 0 min 0,000 mm 0,0 UV-I 0 W/m 12,8 C 13,3 C 0,0 km/h (0 Bft) 91,30 %
14.06.2018 00:38 13,4 C 23,3 C 97 % 1013,2 hPa 0,0 l/m 0,0 km/h (0 Bft) N 5 0 min 0,000 mm 0,0 UV-I 0 W/m 12,9 C 13,4 C 0,0 km/h (0 Bft) 100,00 %
14.06.2018 00:39 13,4 C 23,3 C 97 % 1013,2 hPa 0,0 l/m 0,0 km/h (0 Bft) N 5 0 min 0,000 mm 0,0 UV-I 0 W/m 12,9 C 13,4 C 0,0 km/h (0 Bft) 86,96 %
14.06.2018 00:40 13,4 C 23,3 C 97 % 1013,2 hPa 0,0 l/m 0,0 km/h (0 Bft) N 5 0 min 0,000 mm 0,0 UV-I 0 W/m 12,9 C 13,4 C 0,0 km/h (0 Bft) 91,67 %
14.06.2018 00:41 13,4 C 23,3 C 97 % 1013,2 hPa 0,0 l/m 0,3 km/h (0 Bft) N 5 0 min 0,000 mm 0,0 UV-I 0 W/m 12,9 C 13,4 C 1,6 km/h (1 Bft) 100,00 %
14.06.2018 00:42 13,4 C 23,3 C 97 % 1013,2 hPa 0,0 l/m 0,1 km/h (0 Bft) N 5 0 min 0,000 mm 0,0 UV-I 0 W/m 12,9 C 13,4 C 1,6 km/h (1 Bft) 100,00 %
14.06.2018 00:43 13,4 C 23,3 C 97 % 1013,2 hPa 0,2 l/m 0,0 km/h (0 Bft) N 5 0 min 0,000 mm 0,0 UV-I 0 W/m 12,9 C 13,4 C 0,0 km/h (0 Bft) 97,22 %
14.06.2018 00:44 13,4 C 23,3 C 97 % 1013,2 hPa 0,0 l/m 0,0 km/h (0 Bft) N 5 0 min 0,000 mm 0,0 UV-I 0 W/m 12,9 C 13,4 C 0,0 km/h (0 Bft) 100,00 %
14.06.2018 00:45 13,4 C 23,3 C 97 % 1013,2 hPa 0,0 l/m 0,4 km/h (0 Bft) N 5 0 min 0,000 mm 0,0 UV-I 0 W/m 12,9 C 13,4 C 1,6 km/h (1 Bft) 100,00 %
14.06.2018 00:46 13,4 C 23,3 C 97 % 1013,2 hPa 0,0 l/m 1,4 km/h (1 Bft) N 5 0 min 0,000 mm 0,0 UV-I 0 W/m 12,9 C 13,4 C 3,2 km/h (1 Bft) 100,00 %
14.06.2018 00:47 13,5 C 23,3 C 97 % 1013,2 hPa 0,0 l/m 0,3 km/h (0 Bft) N 5 0 min 0,000 mm 0,0 UV-I 0 W/m 13,0 C 13,5 C 1,6 km/h (1 Bft) 100,00 %
14.06.2018 00:48 13,6 C 23,3 C 97 % 1013,2 hPa 0,0 l/m 1,3 km/h (1 Bft) N 5 0 min 0,000 mm 0,0 UV-I 0 W/m 13,1 C 13,6 C 1,6 km/h (1 Bft) 100,00 %
14.06.2018 00:49 13,6 C 23,3 C 97 % 1013,2 hPa 0,0 l/m 1,8 km/h (1 Bft) W 270 0 min 0,000 mm 0,0 UV-I 0 W/m 13,1 C 13,6 C 3,2 km/h (1 Bft) 100,00 %
14.06.2018 00:50 13,5 C 23,3 C 97 % 1013,2 hPa 0,0 l/m 1,5 km/h (1 Bft) W 270 0 min 0,000 mm 0,0 UV-I 0 W/m 13,0 C 13,5 C 3,2 km/h (1 Bft) 100,00 %
14.06.2018 00:51 13,5 C 23,3 C 97 % 1013,3 hPa 0,0 l/m 1,8 km/h (1 Bft) W 270 0 min 0,000 mm 0,0 UV-I 0 W/m 13,0 C 13,5 C 3,2 km/h (1 Bft) 95,83 %
14.06.2018 00:52 13,5 C 23,3 C 97 % 1013,3 hPa 0,0 l/m 1,7 km/h (1 Bft) W 270 0 min 0,000 mm 0,0 UV-I 0 W/m 13,0 C 13,5 C 3,2 km/h (1 Bft) 100,00 %
14.06.2018 00:53 13,6 C 23,3 C 97 % 1013,3 hPa 0,0 l/m 1,3 km/h (1 Bft) W 270 0 min 0,000 mm 0,0 UV-I 0 W/m 13,1 C 13,6 C 3,2 km/h (1 Bft) 100,00 %
14.06.2018 00:54 13,6 C 23,3 C 97 % 1013,3 hPa 0,0 l/m 2,5 km/h (1 Bft) W 269 0 min 0,000 mm 0,0 UV-I 0 W/m 13,1 C 13,6 C 3,2 km/h (1 Bft) 100,00 %
14.06.2018 00:55 13,6 C 23,3 C 97 % 1013,3 hPa 0,2 l/m 1,5 km/h (1 Bft) W 270 0 min 0,000 mm 0,0 UV-I 0 W/m 13,1 C 13,6 C 3,2 km/h (1 Bft) 100,00 %
14.06.2018 00:56 13,6 C 23,3 C 97 % 1013,3 hPa 0,0 l/m 0,8 km/h (0 Bft) W 270 0 min 0,000 mm 0,0 UV-I 0 W/m 13,1 C 13,6 C 1,6 km/h (1 Bft) 95,83 %
14.06.2018 00:57 13,5 C 23,3 C 97 % 1013,3 hPa 0,0 l/m 2,3 km/h (1 Bft) W 270 0 min 0,000 mm 0,0 UV-I 0 W/m 13,0 C 13,5 C 3,2 km/h (1 Bft) 100,00 %
14.06.2018 00:58 13,5 C 23,3 C 97 % 1013,3 hPa 0,0 l/m 2,6 km/h (1 Bft) W 269 0 min 0,000 mm 0,0 UV-I 0 W/m 13,0 C 13,5 C 4,8 km/h (1 Bft) 100,00 %
14.06.2018 00:59 13,4 C 23,3 C 97 % 1013,3 hPa 0,0 l/m 3,4 km/h (1 Bft) W-SW 245 0 min 0,000 mm 0,0 UV-I 0 W/m 12,9 C 13,4 C 4,8 km/h (1 Bft) 100,00 %
14.06.2018 01:00 13,4 C 23,3 C 97 % 1013,3 hPa 0,0 l/m 3,8 km/h (1 Bft) W-SW 247 0 min 0,000 mm 0,0 UV-I 0 W/m 12,9 C 13,4 C 4,8 km/h (1 Bft) 95,83 %
14.06.2018 01:01 13,4 C 23,3 C 97 % 1013,3 hPa 0,0 l/m 3,3 km/h (1 Bft) W-SW 252 0 min 0,000 mm 0,0 UV-I 0 W/m 12,9 C 13,4 C 4,8 km/h (1 Bft) 100,00 %
14.06.2018 01:02 13,4 C 23,3 C 97 % 1013,3 hPa 0,0 l/m 3,8 km/h (1 Bft) W-SW 245 0 min 0,000 mm 0,0 UV-I 0 W/m 12,9 C 13,4 C 4,8 km/h (1 Bft) 100,00 %
14.06.2018 01:03 13,4 C 23,3 C 97 % 1013,3 hPa 0,0 l/m 3,3 km/h (1 Bft) W 280 0 min 0,000 mm 0,0 UV-I 0 W/m 12,9 C 13,4 C 6,4 km/h (2 Bft) 100,00 %
14.06.2018 01:04 13,5 C 23,3 C 97 % 1013,3 hPa 0,0 l/m 1,5 km/h (1 Bft) W 279 0 min 0,000 mm 0,0 UV-I 0 W/m 13,0 C 13,5 C 3,2 km/h (1 Bft) 100,00 %
14.06.2018 01:05 13,4 C 23,3 C 97 % 1013,4 hPa 0,0 l/m 2,5 km/h (1 Bft) W 279 0 min 0,000 mm 0,0 UV-I 0 W/m 12,9 C 13,4 C 3,2 km/h (1 Bft) 95,65 %
14.06.2018 01:06 13,4 C 23,3 C 97 % 1013,3 hPa 0,0 l/m 4,0 km/h (1 Bft) SW 232 0 min 0,000 mm 0,0 UV-I 0 W/m 12,9 C 13,4 C 6,4 km/h (2 Bft) 100,00 %
14.06.2018 01:07 13,4 C 23,3 C 97 % 1013,3 hPa 0,0 l/m 3,6 km/h (1 Bft) SW 234 0 min 0,000 mm 0,0 UV-I 0 W/m 12,9 C 13,4 C 4,8 km/h (1 Bft) 100,00 %
14.06.2018 01:08 13,4 C 23,3 C 97 % 1013,3 hPa 0,0 l/m 4,1 km/h (1 Bft) W-SW 255 0 min 0,000 mm 0,0 UV-I 0 W/m 12,9 C 13,4 C 6,4 km/h (2 Bft) 100,00 %
14.06.2018 01:09 13,4 C 23,3 C 97 % 1013,3 hPa 0,0 l/m 5,1 km/h (1 Bft) W-SW 251 0 min 0,000 mm 0,0 UV-I 0 W/m 12,9 C 13,4 C 8,0 km/h (2 Bft) 100,00 %
14.06.2018 01:10 13,4 C 23,3 C 97 % 1013,3 hPa 0,0 l/m 3,8 km/h (1 Bft) W-SW 253 0 min 0,000 mm 0,0 UV-I 0 W/m 12,9 C 13,4 C 6,4 km/h (2 Bft) 100,00 %
14.06.2018 01:11 13,4 C 23,3 C 97 % 1013,4 hPa 0,0 l/m 2,4 km/h (1 Bft) W-SW 251 0 min 0,000 mm 0,0 UV-I 0 W/m 12,9 C 13,4 C 3,2 km/h (1 Bft) 100,00 %
14.06.2018 01:12 13,3 C 23,3 C 97 % 1013,4 hPa 0,2 l/m 5,9 km/h (2 Bft) W-SW 257 0 min 0,000 mm 0,0 UV-I 0 W/m 12,8 C 13,3 C 9,7 km/h (2 Bft) 100,00 %
14.06.2018 01:13 13,3 C 23,3 C 97 % 1013,4 hPa 0,0 l/m 5,2 km/h (1 Bft) W 265 0 min 0,000 mm 0,0 UV-I 0 W/m 12,8 C 13,3 C 6,4 km/h (2 Bft) 93,33 %
14.06.2018 01:14 13,3 C 23,3 C 97 % 1013,4 hPa 0,0 l/m 8,2 km/h (2 Bft) W 265 0 min 0,000 mm 0,0 UV-I 0 W/m 12,8 C 12,2 C 12,9 km/h (3 Bft) 100,00 %
14.06.2018 01:15 13,3 C 23,3 C 97 % 1013,4 hPa 0,0 l/m 7,5 km/h (2 Bft) W 263 0 min 0,000 mm 0,0 UV-I 0 W/m 12,8 C 12,6 C 12,9 km/h (3 Bft) 96,30 %
14.06.2018 01:16 13,3 C 23,3 C 97 % 1013,3 hPa 0,0 l/m 7,7 km/h (2 Bft) W 262 0 min 0,000 mm 0,0 UV-I 0 W/m 12,8 C 12,5 C 11,3 km/h (2 Bft) 100,00 %
14.06.2018 01:17 13,3 C 23,3 C 97 % 1013,3 hPa 0,0 l/m 6,0 km/h (2 Bft) W 263 0 min 0,000 mm 0,0 UV-I 0 W/m 12,8 C 13,3 C 11,3 km/h (2 Bft) 100,00 %
14.06.2018 01:18 13,3 C 23,3 C 97 % 1013,3 hPa 0,0 l/m 5,6 km/h (1 Bft) W-NW 299 0 min 0,000 mm 0,0 UV-I 0 W/m 12,8 C 13,3 C 6,4 km/h (2 Bft) 100,00 %
14.06.2018 01:19 13,2 C 23,3 C 97 % 1013,3 hPa 0,0 l/m 4,9 km/h (1 Bft) W 259 0 min 0,000 mm 0,0 UV-I 0 W/m 12,7 C 13,2 C 6,4 km/h (2 Bft) 100,00 %
14.06.2018 01:20 13,2 C 23,3 C 97 % 1013,3 hPa 0,0 l/m 6,0 km/h (2 Bft) W-SW 254 0 min 0,000 mm 0,0 UV-I 0 W/m 12,7 C 13,2 C 8,0 km/h (2 Bft) 100,00 %
14.06.2018 01:21 13,2 C 23,3 C 97 % 1013,4 hPa 0,0 l/m 5,0 km/h (1 Bft) NW 307 0 min 0,000 mm 0,0 UV-I 0 W/m 12,7 C 13,2 C 8,0 km/h (2 Bft) 100,00 %
14.06.2018 01:22 13,2 C 23,3 C 97 % 1013,3 hPa 0,0 l/m 5,4 km/h (1 Bft) W 261 0 min 0,000 mm 0,0 UV-I 0 W/m 12,7 C 13,2 C 6,4 km/h (2 Bft) 100,00 %
14.06.2018 01:23 13,2 C 23,3 C 97 % 1013,3 hPa 0,0 l/m 3,8 km/h (1 Bft) W-SW 252 0 min 0,000 mm 0,0 UV-I 0 W/m 12,7 C 13,2 C 6,4 km/h (2 Bft) 100,00 %
14.06.2018 01:24 13,2 C 23,3 C 97 % 1013,4 hPa 0,0 l/m 7,0 km/h (2 Bft) W-NW 282 0 min 0,000 mm 0,0 UV-I 0 W/m 12,7 C 12,8 C 9,7 km/h (2 Bft) 100,00 %
14.06.2018 01:25 13,2 C 23,3 C 97 % 1013,4 hPa 0,0 l/m 5,8 km/h (2 Bft) W 263 0 min 0,000 mm 0,0 UV-I 0 W/m 12,7 C 13,2 C 11,3 km/h (2 Bft) 100,00 %
14.06.2018 01:26 13,1 C 23,3 C 97 % 1013,4 hPa 0,0 l/m 5,6 km/h (1 Bft) W-SW 238 0 min 0,000 mm 0,0 UV-I 0 W/m 12,6 C 13,1 C 9,7 km/h (2 Bft) 100,00 %
14.06.2018 01:27 13,2 C 23,3 C 97 % 1013,4 hPa 0,0 l/m 5,2 km/h (1 Bft) W-SW 252 0 min 0,000 mm 0,0 UV-I 0 W/m 12,7 C 13,2 C 6,4 km/h (2 Bft) 100,00 %
14.06.2018 01:28 13,2 C 23,3 C 97 % 1013,4 hPa 0,0 l/m 5,3 km/h (1 Bft) W 274 0 min 0,000 mm 0,0 UV-I 0 W/m 12,7 C 13,2 C 9,7 km/h (2 Bft) 100,00 %
14.06.2018 01:29 13,2 C 23,3 C 97 % 1013,4 hPa 0,0 l/m 5,0 km/h (1 Bft) W-NW 283 0 min 0,000 mm 0,0 UV-I 0 W/m 12,7 C 13,2 C 6,4 km/h (2 Bft) 95,83 %
14.06.2018 01:30 13,2 C 23,3 C 97 % 1013,4 hPa 0,0 l/m 1,7 km/h (1 Bft) W-NW 284 0 min 0,000 mm 0,0 UV-I 0 W/m 12,7 C 13,2 C 3,2 km/h (1 Bft) 100,00 %
14.06.2018 01:31 13,2 C 23,3 C 97 % 1013,5 hPa 0,0 l/m 4,7 km/h (1 Bft) W-SW 243 0 min 0,000 mm 0,0 UV-I 0 W/m 12,7 C 13,2 C 6,4 km/h (2 Bft) 100,00 %
14.06.2018 01:32 13,2 C 23,3 C 97 % 1013,5 hPa 0,0 l/m 5,6 km/h (1 Bft) W 278 0 min 0,000 mm 0,0 UV-I 0 W/m 12,7 C 13,2 C 11,3 km/h (2 Bft) 100,00 %
14.06.2018 01:33 13,2 C 23,3 C 97 % 1013,5 hPa 0,0 l/m 2,1 km/h (1 Bft) W 278 0 min 0,000 mm 0,0 UV-I 0 W/m 12,7 C 13,2 C 4,8 km/h (1 Bft) 100,00 %
14.06.2018 01:34 13,2 C 23,3 C 97 % 1013,5 hPa 0,0 l/m 2,4 km/h (1 Bft) W-NW 294 0 min 0,000 mm 0,0 UV-I 0 W/m 12,7 C 13,2 C 3,2 km/h (1 Bft) 100,00 %
14.06.2018 01:35 13,2 C 23,3 C 97 % 1013,5 hPa 0,0 l/m 3,8 km/h (1 Bft) W 266 0 min 0,000 mm 0,0 UV-I 0 W/m 12,7 C 13,2 C 6,4 km/h (2 Bft) 100,00 %
14.06.2018 01:36 13,1 C 23,3 C 97 % 1013,5 hPa 0,0 l/m 6,1 km/h (2 Bft) W-NW 284 0 min 0,000 mm 0,0 UV-I 0 W/m 12,6 C 13,1 C 11,3 km/h (2 Bft) 95,83 %
14.06.2018 01:37 13,0 C 23,3 C 97 % 1013,4 hPa 0,0 l/m 4,8 km/h (1 Bft) NW 307 0 min 0,000 mm 0,0 UV-I 0 W/m 12,5 C 13,0 C 9,7 km/h (2 Bft) 100,00 %
14.06.2018 01:38 13,0 C 23,3 C 97 % 1013,4 hPa 0,0 l/m 2,5 km/h (1 Bft) NW 311 0 min 0,000 mm 0,0 UV-I 0 W/m 12,5 C 13,0 C 4,8 km/h (1 Bft) 100,00 %
14.06.2018 01:39 13,0 C 23,3 C 97 % 1013,4 hPa 0,0 l/m 1,4 km/h (1 Bft) N 9 0 min 0,000 mm 0,0 UV-I 0 W/m 12,5 C 13,0 C 6,4 km/h (2 Bft) 100,00 %
14.06.2018 01:40 12,9 C 23,3 C 97 % 1013,5 hPa 0,0 l/m 2,4 km/h (1 Bft) N-NO 20 0 min 0,000 mm 0,0 UV-I 0 W/m 12,4 C 12,9 C 4,8 km/h (1 Bft) 100,00 %
14.06.2018 01:41 12,9 C 23,3 C 97 % 1013,4 hPa 0,0 l/m 5,0 km/h (1 Bft) N-NO 19 0 min 0,000 mm 0,0 UV-I 0 W/m 12,4 C 12,9 C 6,4 km/h (2 Bft) 100,00 %
14.06.2018 01:42 12,8 C 23,3 C 97 % 1013,4 hPa 0,0 l/m 2,4 km/h (1 Bft) N-NW 333 0 min 0,000 mm 0,0 UV-I 0 W/m 12,3 C 12,8 C 3,2 km/h (1 Bft) 100,00 %
14.06.2018 01:43 12,7 C 23,3 C 97 % 1013,4 hPa 0,0 l/m 4,5 km/h (1 Bft) N 350 0 min 0,000 mm 0,0 UV-I 0 W/m 12,2 C 12,7 C 9,7 km/h (2 Bft) 100,00 %
14.06.2018 01:44 12,6 C 23,3 C 97 % 1013,5 hPa 0,0 l/m 3,7 km/h (1 Bft) N 5 0 min 0,000 mm 0,0 UV-I 0 W/m 12,1 C 12,6 C 8,0 km/h (2 Bft) 95,83 %
14.06.2018 01:45 12,6 C 23,3 C 96 % 1013,5 hPa 0,0 l/m 3,7 km/h (1 Bft) N-NW 338 0 min 0,000 mm 0,0 UV-I 0 W/m 12,0 C 12,6 C 6,4 km/h (2 Bft) 95,65 %
14.06.2018 01:46 12,6 C 23,3 C 96 % 1013,5 hPa 0,2 l/m 0,7 km/h (0 Bft) N-NW 346 0 min 0,000 mm 0,0 UV-I 0 W/m 12,0 C 12,6 C 3,2 km/h (1 Bft) 100,00 %
14.06.2018 01:47 12,5 C 23,3 C 96 % 1013,4 hPa 0,0 l/m 0,4 km/h (0 Bft) N-NW 346 0 min 0,000 mm 0,0 UV-I 0 W/m 11,9 C 12,5 C 1,6 km/h (1 Bft) 95,65 %
14.06.2018 01:48 12,6 C 23,3 C 96 % 1013,5 hPa 0,0 l/m 0,0 km/h (0 Bft) N-NW 346 0 min 0,000 mm 0,0 UV-I 0 W/m 12,0 C 12,6 C 0,0 km/h (0 Bft) 100,00 %
14.06.2018 01:49 12,5 C 23,3 C 96 % 1013,5 hPa 0,0 l/m 0,0 km/h (0 Bft) N-NW 346 0 min 0,000 mm 0,0 UV-I 0 W/m 11,9 C 12,5 C 0,0 km/h (0 Bft) 100,00 %
14.06.2018 01:50 12,4 C 23,3 C 96 % 1013,5 hPa 0,0 l/m 0,7 km/h (0 Bft) O 83 0 min 0,000 mm 0,0 UV-I 0 W/m 11,8 C 12,4 C 3,2 km/h (1 Bft) 100,00 %
14.06.2018 01:51 12,4 C 23,3 C 96 % 1013,5 hPa 0,2 l/m 0,6 km/h (0 Bft) O 82 0 min 0,000 mm 0,0 UV-I 0 W/m 11,8 C 12,4 C 3,2 km/h (1 Bft) 100,00 %
14.06.2018 01:52 12,4 C 23,3 C 96 % 1013,5 hPa 0,0 l/m 0,0 km/h (0 Bft) O 82 0 min 0,000 mm 0,0 UV-I 0 W/m 11,8 C 12,4 C 0,0 km/h (0 Bft) 95,83 %
14.06.2018 01:53 12,4 C 23,3 C 96 % 1013,5 hPa 0,0 l/m 0,0 km/h (0 Bft) O 82 0 min 0,000 mm 0,0 UV-I 0 W/m 11,8 C 12,4 C 0,0 km/h (0 Bft) 95,83 %
14.06.2018 01:54 12,4 C 23,3 C 96 % 1013,5 hPa 0,0 l/m 0,3 km/h (0 Bft) SO 144 0 min 0,000 mm 0,0 UV-I 0 W/m 11,8 C 12,4 C 1,6 km/h (1 Bft) 100,00 %
14.06.2018 01:55 12,4 C 23,3 C 96 % 1013,5 hPa 0,0 l/m 0,0 km/h (0 Bft) SO 144 0 min 0,000 mm 0,0 UV-I 0 W/m 11,8 C 12,4 C 0,0 km/h (0 Bft) 100,00 %
14.06.2018 01:56 12,3 C 23,3 C 96 % 1013,5 hPa 0,2 l/m 0,0 km/h (0 Bft) SO 144 0 min 0,000 mm 0,0 UV-I 0 W/m 11,7 C 12,3 C 0,0 km/h (0 Bft) 100,00 %
14.06.2018 01:57 12,3 C 23,3 C 96 % 1013,5 hPa 0,0 l/m 0,7 km/h (0 Bft) S-SO 168 0 min 0,000 mm 0,0 UV-I 0 W/m 11,7 C 12,3 C 1,6 km/h (1 Bft) 100,00 %
14.06.2018 01:58 12,3 C 23,3 C 96 % 1013,6 hPa 0,0 l/m 0,6 km/h (0 Bft) S-SO 168 0 min 0,000 mm 0,0 UV-I 0 W/m 11,7 C 12,3 C 3,2 km/h (1 Bft) 100,00 %
14.06.2018 01:59 12,3 C 23,3 C 96 % 1013,6 hPa 0,0 l/m 0,1 km/h (0 Bft) S 169 0 min 0,000 mm 0,0 UV-I 0 W/m 11,7 C 12,3 C 1,6 km/h (1 Bft) 100,00 %
14.06.2018 02:00 12,2 C 23,3 C 96 % 1013,6 hPa 0,0 l/m 0,5 km/h (0 Bft) S 169 0 min 0,000 mm 0,0 UV-I 0 W/m 11,6 C 12,2 C 1,6 km/h (1 Bft) 95,65 %
14.06.2018 02:01 12,2 C 23,3 C 96 % 1013,6 hPa 0,0 l/m 1,0 km/h (0 Bft) S 171 0 min 0,000 mm 0,0 UV-I 0 W/m 11,6 C 12,2 C 1,6 km/h (1 Bft) 100,00 %
14.06.2018 02:02 12,1 C 23,3 C 96 % 1013,6 hPa 0,2 l/m 1,5 km/h (1 Bft) S 174 0 min 0,000 mm 0,0 UV-I 0 W/m 11,5 C 12,1 C 3,2 km/h (1 Bft) 100,00 %
14.06.2018 02:03 12,2 C 23,3 C 96 % 1013,6 hPa 0,0 l/m 2,1 km/h (1 Bft) S-SW 203 0 min 0,000 mm 0,0 UV-I 0 W/m 11,6 C 12,2 C 4,8 km/h (1 Bft) 100,00 %
14.06.2018 02:04 12,2 C 23,3 C 97 % 1013,6 hPa 0,0 l/m 1,0 km/h (0 Bft) S-SW 207 0 min 0,000 mm 0,0 UV-I 0 W/m 11,7 C 12,2 C 3,2 km/h (1 Bft) 100,00 %
14.06.2018 02:05 12,2 C 23,3 C 97 % 1013,6 hPa 0,0 l/m 2,4 km/h (1 Bft) W-NW 290 0 min 0,000 mm 0,0 UV-I 0 W/m 11,7 C 12,2 C 4,8 km/h (1 Bft) 100,00 %
14.06.2018 02:06 12,2 C 23,3 C 97 % 1013,7 hPa 0,0 l/m 2,2 km/h (1 Bft) W-NW 288 0 min 0,000 mm 0,0 UV-I 0 W/m 11,7 C 12,2 C 3,2 km/h (1 Bft) 100,00 %
14.06.2018 02:07 12,1 C 23,3 C 97 % 1013,7 hPa 0,0 l/m 1,6 km/h (1 Bft) W-NW 288 0 min 0,000 mm 0,0 UV-I 0 W/m 11,6 C 12,1 C 3,2 km/h (1 Bft) 100,00 %
14.06.2018 02:08 12,1 C 23,3 C 97 % 1013,6 hPa 0,0 l/m 3,1 km/h (1 Bft) W-NW 288 0 min 0,000 mm 0,0 UV-I 0 W/m 11,6 C 12,1 C 4,8 km/h (1 Bft) 91,30 %
14.06.2018 02:09 12,1 C 23,3 C 97 % 1013,6 hPa 0,0 l/m 2,5 km/h (1 Bft) W-NW 289 0 min 0,000 mm 0,0 UV-I 0 W/m 11,6 C 12,1 C 4,8 km/h (1 Bft) 100,00 %
14.06.2018 02:10 12,1 C 23,3 C 97 % 1013,6 hPa 0,0 l/m 1,7 km/h (1 Bft) W-NW 287 0 min 0,000 mm 0,0 UV-I 0 W/m 11,6 C 12,1 C 3,2 km/h (1 Bft) 95,65 %
14.06.2018 02:11 12,1 C 23,3 C 96 % 1013,6 hPa 0,0 l/m 4,2 km/h (1 Bft) W 265 0 min 0,000 mm 0,0 UV-I 0 W/m 11,5 C 12,1 C 4,8 km/h (1 Bft) 100,00 %
14.06.2018 02:12 12,1 C 23,3 C 97 % 1013,6 hPa 0,0 l/m 3,0 km/h (1 Bft) W 265 0 min 0,000 mm 0,0 UV-I 0 W/m 11,6 C 12,1 C 4,8 km/h (1 Bft) 95,83 %
14.06.2018 02:13 12,1 C 23,3 C 97 % 1013,6 hPa 0,0 l/m 3,6 km/h (1 Bft) W-SW 258 0 min 0,000 mm 0,0 UV-I 0 W/m 11,6 C 12,1 C 4,8 km/h (1 Bft) 100,00 %
14.06.2018 02:14 12,1 C 23,3 C 97 % 1013,6 hPa 0,0 l/m 2,7 km/h (1 Bft) NW 305 0 min 0,000 mm 0,0 UV-I 0 W/m 11,6 C 12,1 C 4,8 km/h (1 Bft) 95,83 %
14.06.2018 02:15 12,1 C 23,3 C 97 % 1013,6 hPa 0,0 l/m 3,5 km/h (1 Bft) W-NW 293 0 min 0,000 mm 0,0 UV-I 0 W/m 11,6 C 12,1 C 4,8 km/h (1 Bft) 96,15 %
14.06.2018 02:16 12,1 C 23,3 C 97 % 1013,6 hPa 0,0 l/m 5,5 km/h (1 Bft) W 277 0 min 0,000 mm 0,0 UV-I 0 W/m 11,6 C 12,1 C 9,7 km/h (2 Bft) 100,00 %
14.06.2018 02:17 12,2 C 23,3 C 97 % 1013,6 hPa 0,0 l/m 4,2 km/h (1 Bft) W 276 0 min 0,000 mm 0,0 UV-I 0 W/m 11,7 C 12,2 C 6,4 km/h (2 Bft) 91,30 %
14.06.2018 02:18 12,2 C 23,3 C 97 % 1013,7 hPa 0,0 l/m 4,0 km/h (1 Bft) W-NW 282 0 min 0,000 mm 0,0 UV-I 0 W/m 11,7 C 12,2 C 4,8 km/h (1 Bft) 100,00 %
14.06.2018 02:19 12,2 C 23,3 C 97 % 1013,6 hPa 0,2 l/m 4,7 km/h (1 Bft) W-SW 248 0 min 0,000 mm 0,0 UV-I 0 W/m 11,7 C 12,2 C 8,0 km/h (2 Bft) 91,30 %
14.06.2018 02:20 12,2 C 23,3 C 97 % 1013,6 hPa 0,0 l/m 2,3 km/h (1 Bft) NW 312 0 min 0,000 mm 0,0 UV-I 0 W/m 11,7 C 12,2 C 4,8 km/h (1 Bft) 100,00 %
14.06.2018 02:21 12,2 C 23,3 C 97 % 1013,7 hPa 0,0 l/m 2,3 km/h (1 Bft) W 274 0 min 0,000 mm 0,0 UV-I 0 W/m 11,7 C 12,2 C 4,8 km/h (1 Bft) 95,65 %
14.06.2018 02:22 12,2 C 23,3 C 97 % 1013,7 hPa 0,0 l/m 0,9 km/h (0 Bft) W 274 0 min 0,000 mm 0,0 UV-I 0 W/m 11,7 C 12,2 C 3,2 km/h (1 Bft) 91,67 %
14.06.2018 02:23 12,2 C 23,3 C 97 % 1013,7 hPa 0,0 l/m 0,4 km/h (0 Bft) W 274 0 min 0,000 mm 0,0 UV-I 0 W/m 11,7 C 12,2 C 1,6 km/h (1 Bft) 91,30 %
14.06.2018 02:24 12,2 C 23,3 C 97 % 1013,7 hPa 0,0 l/m 2,3 km/h (1 Bft) W 273 0 min 0,000 mm 0,0 UV-I 0 W/m 11,7 C 12,2 C 4,8 km/h (1 Bft) 95,83 %
14.06.2018 02:25 12,1 C 23,3 C 97 % 1013,7 hPa 0,0 l/m 2,0 km/h (1 Bft) W 273 0 min 0,000 mm 0,0 UV-I 0 W/m 11,6 C 12,1 C 3,2 km/h (1 Bft) 95,65 %
14.06.2018 02:26 12,1 C 23,3 C 97 % 1013,6 hPa 0,0 l/m 0,5 km/h (0 Bft) W 268 0 min 0,000 mm 0,0 UV-I 0 W/m 11,6 C 12,1 C 3,2 km/h (1 Bft) 91,67 %
14.06.2018 02:27 12,1 C 23,3 C 97 % 1013,6 hPa 0,2 l/m 0,2 km/h (0 Bft) W 268 0 min 0,000 mm 0,0 UV-I 0 W/m 11,6 C 12,1 C 1,6 km/h (1 Bft) 100,00 %
14.06.2018 02:28 12,1 C 23,3 C 97 % 1013,6 hPa 0,0 l/m 1,0 km/h (0 Bft) W 273 0 min 0,000 mm 0,0 UV-I 0 W/m 11,6 C 12,1 C 1,6 km/h (1 Bft) 92,31 %
14.06.2018 02:29 12,1 C 23,3 C 97 % 1013,7 hPa 0,0 l/m 0,3 km/h (0 Bft) W 273 0 min 0,000 mm 0,0 UV-I 0 W/m 11,6 C 12,1 C 1,6 km/h (1 Bft) 96,00 %
14.06.2018 02:30 12,1 C 23,3 C 97 % 1013,7 hPa 0,0 l/m 0,3 km/h (0 Bft) W 273 0 min 0,000 mm 0,0 UV-I 0 W/m 11,6 C 12,1 C 1,6 km/h (1 Bft) 95,83 %
14.06.2018 02:31 12,1 C 23,3 C 97 % 1013,7 hPa 0,0 l/m 0,4 km/h (0 Bft) W 273 0 min 0,000 mm 0,0 UV-I 0 W/m 11,6 C 12,1 C 1,6 km/h (1 Bft) 91,67 %
14.06.2018 02:32 12,1 C 23,3 C 97 % 1013,7 hPa 0,0 l/m 1,1 km/h (1 Bft) W 273 0 min 0,000 mm 0,0 UV-I 0 W/m 11,6 C 12,1 C 3,2 km/h (1 Bft) 95,65 %
14.06.2018 02:33 12,1 C 23,3 C 97 % 1013,7 hPa 0,0 l/m 2,6 km/h (1 Bft) W 274 0 min 0,000 mm 0,0 UV-I 0 W/m 11,6 C 12,1 C 3,2 km/h (1 Bft) 91,67 %
14.06.2018 02:34 12,1 C 23,3 C 96 % 1013,7 hPa 0,0 l/m 0,9 km/h (0 Bft) W 274 0 min 0,000 mm 0,0 UV-I 0 W/m 11,5 C 12,1 C 3,2 km/h (1 Bft) 100,00 %
14.06.2018 02:35 12,1 C 23,3 C 96 % 1013,7 hPa 0,0 l/m 0,7 km/h (0 Bft) W 274 0 min 0,000 mm 0,0 UV-I 0 W/m 11,5 C 12,1 C 3,2 km/h (1 Bft) 91,67 %
14.06.2018 02:36 12,2 C 23,3 C 97 % 1013,7 hPa 0,0 l/m 1,9 km/h (1 Bft) W 274 0 min 0,000 mm 0,0 UV-I 0 W/m 11,7 C 12,2 C 3,2 km/h (1 Bft) 95,65 %
14.06.2018 02:37 12,2 C 23,3 C 97 % 1013,9 hPa 0,0 l/m 2,3 km/h (1 Bft) W 259 0 min 0,000 mm 0,0 UV-I 0 W/m 11,7 C 12,2 C 4,8 km/h (1 Bft) 95,83 %
14.06.2018 02:38 12,2 C 23,3 C 97 % 1013,9 hPa 0,0 l/m 2,2 km/h (1 Bft) W 260 0 min 0,000 mm 0,0 UV-I 0 W/m 11,7 C 12,2 C 4,8 km/h (1 Bft) 95,65 %
14.06.2018 02:39 12,2 C 23,3 C 97 % 1013,8 hPa 0,2 l/m 1,2 km/h (1 Bft) W 260 0 min 0,000 mm 0,0 UV-I 0 W/m 11,7 C 12,2 C 3,2 km/h (1 Bft) 92,86 %
14.06.2018 02:40 12,2 C 23,3 C 97 % 1013,8 hPa 0,0 l/m 3,6 km/h (1 Bft) W 262 0 min 0,000 mm 0,0 UV-I 0 W/m 11,7 C 12,2 C 4,8 km/h (1 Bft) 100,00 %
14.06.2018 02:41 12,2 C 23,3 C 97 % 1013,8 hPa 0,0 l/m 3,2 km/h (1 Bft) W 278 0 min 0,000 mm 0,0 UV-I 0 W/m 11,7 C 12,2 C 6,4 km/h (2 Bft) 91,67 %
14.06.2018 02:42 12,2 C 23,3 C 97 % 1013,8 hPa 0,0 l/m 2,3 km/h (1 Bft) W-SW 254 0 min 0,000 mm 0,0 UV-I 0 W/m 11,7 C 12,2 C 3,2 km/h (1 Bft) 95,65 %
14.06.2018 02:43 12,2 C 23,3 C 97 % 1013,8 hPa 0,0 l/m 4,6 km/h (1 Bft) W 265 0 min 0,000 mm 0,0 UV-I 0 W/m 11,7 C 12,2 C 8,0 km/h (2 Bft) 100,00 %
14.06.2018 02:44 12,2 C 23,3 C 97 % 1013,8 hPa 0,0 l/m 5,1 km/h (1 Bft) W-NW 291 0 min 0,000 mm 0,0 UV-I 0 W/m 11,7 C 12,2 C 9,7 km/h (2 Bft) 91,67 %
14.06.2018 02:45 12,2 C 23,3 C 97 % 1013,9 hPa 0,0 l/m 0,7 km/h (0 Bft) W-NW 290 0 min 0,000 mm 0,0 UV-I 0 W/m 11,7 C 12,2 C 3,2 km/h (1 Bft) 100,00 %
14.06.2018 02:46 12,2 C 23,3 C 97 % 1013,9 hPa 0,0 l/m 3,1 km/h (1 Bft) W 279 0 min 0,000 mm 0,0 UV-I 0 W/m 11,7 C 12,2 C 4,8 km/h (1 Bft) 95,83 %
14.06.2018 02:47 12,1 C 23,3 C 97 % 1013,8 hPa 0,0 l/m 2,5 km/h (1 Bft) W 278 0 min 0,000 mm 0,0 UV-I 0 W/m 11,6 C 12,1 C 4,8 km/h (1 Bft) 100,00 %
14.06.2018 02:48 12,1 C 23,3 C 97 % 1013,8 hPa 0,0 l/m 3,6 km/h (1 Bft) W 275 0 min 0,000 mm 0,0 UV-I 0 W/m 11,6 C 12,1 C 4,8 km/h (1 Bft) 91,67 %
14.06.2018 02:49 12,2 C 23,3 C 97 % 1013,9 hPa 0,0 l/m 4,0 km/h (1 Bft) W-NW 296 0 min 0,000 mm 0,0 UV-I 0 W/m 11,7 C 12,2 C 4,8 km/h (1 Bft) 100,00 %
14.06.2018 02:50 12,2 C 23,3 C 97 % 1013,8 hPa 0,0 l/m 3,2 km/h (1 Bft) W 281 0 min 0,000 mm 0,0 UV-I 0 W/m 11,7 C 12,2 C 4,8 km/h (1 Bft) 95,83 %
14.06.2018 02:51 12,1 C 23,3 C 97 % 1013,9 hPa 0,0 l/m 3,0 km/h (1 Bft) W-NW 290 0 min 0,000 mm 0,0 UV-I 0 W/m 11,6 C 12,1 C 4,8 km/h (1 Bft) 100,00 %
14.06.2018 02:52 12,1 C 23,3 C 97 % 1013,9 hPa 0,0 l/m 3,7 km/h (1 Bft) W 272 0 min 0,000 mm 0,0 UV-I 0 W/m 11,6 C 12,1 C 6,4 km/h (2 Bft) 95,83 %
14.06.2018 02:53 12,1 C 23,3 C 97 % 1013,9 hPa 0,0 l/m 4,9 km/h (1 Bft) W 273 0 min 0,000 mm 0,0 UV-I 0 W/m 11,6 C 12,1 C 6,4 km/h (2 Bft) 95,65 %
14.06.2018 02:54 12,1 C 23,3 C 97 % 1013,9 hPa 0,0 l/m 2,5 km/h (1 Bft) W 273 0 min 0,000 mm 0,0 UV-I 0 W/m 11,6 C 12,1 C 4,8 km/h (1 Bft) 100,00 %
14.06.2018 02:55 12,1 C 23,3 C 97 % 1013,9 hPa 0,0 l/m 4,2 km/h (1 Bft) W-NW 286 0 min 0,000 mm 0,0 UV-I 0 W/m 11,6 C 12,1 C 6,4 km/h (2 Bft) 95,65 %
14.06.2018 02:56 12,1 C 23,3 C 97 % 1013,9 hPa 0,0 l/m 3,2 km/h (1 Bft) W-NW 284 0 min 0,000 mm 0,0 UV-I 0 W/m 11,6 C 12,1 C 4,8 km/h (1 Bft) 100,00 %
14.06.2018 02:57 12,1 C 23,3 C 97 % 1013,9 hPa 0,0 l/m 3,7 km/h (1 Bft) W-NW 284 0 min 0,000 mm 0,0 UV-I 0 W/m 11,6 C 12,1 C 4,8 km/h (1 Bft) 91,30 %
14.06.2018 02:58 12,2 C 23,3 C 97 % 1013,9 hPa 0,2 l/m 3,0 km/h (1 Bft) W-NW 283 0 min 0,000 mm 0,0 UV-I 0 W/m 11,7 C 12,2 C 4,8 km/h (1 Bft) 100,00 %
14.06.2018 02:59 12,2 C 23,3 C 97 % 1013,9 hPa 0,0 l/m 1,9 km/h (1 Bft) W-NW 283 0 min 0,000 mm 0,0 UV-I 0 W/m 11,7 C 12,2 C 4,8 km/h (1 Bft) 95,65 %
14.06.2018 03:00 12,1 C 23,3 C 97 % 1013,9 hPa 0,0 l/m 2,7 km/h (1 Bft) W 272 0 min 0,000 mm 0,0 UV-I 0 W/m 11,6 C 12,1 C 4,8 km/h (1 Bft) 100,00 %
14.06.2018 03:01 12,1 C 23,3 C 97 % 1013,9 hPa 0,0 l/m 3,4 km/h (1 Bft) W 272 0 min 0,000 mm 0,0 UV-I 0 W/m 11,6 C 12,1 C 4,8 km/h (1 Bft) 95,83 %
14.06.2018 03:02 12,1 C 23,3 C 97 % 1013,9 hPa 0,0 l/m 4,1 km/h (1 Bft) W 263 0 min 0,000 mm 0,0 UV-I 0 W/m 11,6 C 12,1 C 4,8 km/h (1 Bft) 95,65 %
14.06.2018 03:03 12,1 C 23,3 C 97 % 1013,9 hPa 0,0 l/m 6,0 km/h (2 Bft) W 266 0 min 0,000 mm 0,0 UV-I 0 W/m 11,6 C 12,1 C 9,7 km/h (2 Bft) 100,00 %
14.06.2018 03:04 12,0 C 23,3 C 97 % 1013,9 hPa 0,0 l/m 6,7 km/h (2 Bft) W 274 0 min 0,000 mm 0,0 UV-I 0 W/m 11,5 C 11,8 C 9,7 km/h (2 Bft) 96,00 %
14.06.2018 03:05 12,0 C 23,3 C 97 % 1014,0 hPa 0,0 l/m 4,8 km/h (1 Bft) W 259 0 min 0,000 mm 0,0 UV-I 0 W/m 11,5 C 12,0 C 6,4 km/h (2 Bft) 100,00 %
14.06.2018 03:06 12,1 C 23,3 C 97 % 1014,0 hPa 0,0 l/m 6,2 km/h (2 Bft) W-SW 256 0 min 0,000 mm 0,0 UV-I 0 W/m 11,6 C 12,1 C 9,7 km/h (2 Bft) 96,15 %
14.06.2018 03:07 12,1 C 23,3 C 97 % 1014,0 hPa 0,2 l/m 7,2 km/h (2 Bft) W 267 0 min 0,000 mm 0,0 UV-I 0 W/m 11,6 C 11,6 C 9,7 km/h (2 Bft) 100,00 %
14.06.2018 03:08 12,1 C 23,3 C 97 % 1013,9 hPa 0,0 l/m 5,3 km/h (1 Bft) SW 233 0 min 0,000 mm 0,0 UV-I 0 W/m 11,6 C 12,1 C 6,4 km/h (2 Bft) 95,65 %
14.06.2018 03:09 12,1 C 23,3 C 97 % 1014,0 hPa 0,0 l/m 6,1 km/h (2 Bft) W-SW 247 0 min 0,000 mm 0,0 UV-I 0 W/m 11,6 C 12,1 C 8,0 km/h (2 Bft) 100,00 %
14.06.2018 03:10 12,1 C 23,3 C 97 % 1013,9 hPa 0,0 l/m 5,3 km/h (1 Bft) SW 236 0 min 0,000 mm 0,0 UV-I 0 W/m 11,6 C 12,1 C 6,4 km/h (2 Bft) 95,65 %
14.06.2018 03:11 12,1 C 23,3 C 97 % 1013,9 hPa 0,0 l/m 6,1 km/h (2 Bft) W-SW 238 0 min 0,000 mm 0,0 UV-I 0 W/m 11,6 C 12,1 C 9,7 km/h (2 Bft) 95,83 %
14.06.2018 03:12 12,1 C 23,3 C 97 % 1013,9 hPa 0,0 l/m 5,8 km/h (2 Bft) W-SW 238 0 min 0,000 mm 0,0 UV-I 0 W/m 11,6 C 12,1 C 8,0 km/h (2 Bft) 100,00 %
14.06.2018 03:13 12,1 C 23,3 C 97 % 1013,9 hPa 0,0 l/m 5,7 km/h (1 Bft) W-SW 252 0 min 0,000 mm 0,0 UV-I 0 W/m 11,6 C 12,1 C 8,0 km/h (2 Bft) 94,44 %
14.06.2018 03:14 12,1 C 23,3 C 97 % 1013,9 hPa 0,0 l/m 6,1 km/h (2 Bft) W-SW 245 0 min 0,000 mm 0,0 UV-I 0 W/m 11,6 C 12,1 C 8,0 km/h (2 Bft) 100,00 %
14.06.2018 03:15 12,1 C 23,3 C 97 % 1014,0 hPa 0,0 l/m 5,8 km/h (2 Bft) W-SW 242 0 min 0,000 mm 0,0 UV-I 0 W/m 11,6 C 12,1 C 8,0 km/h (2 Bft) 95,83 %
14.06.2018 03:16 12,1 C 23,3 C 97 % 1013,9 hPa 0,0 l/m 4,4 km/h (1 Bft) W-SW 241 0 min 0,000 mm 0,0 UV-I 0 W/m 11,6 C 12,1 C 8,0 km/h (2 Bft) 100,00 %
14.06.2018 03:17 12,1 C 23,3 C 97 % 1013,9 hPa 0,0 l/m 5,7 km/h (1 Bft) W 259 0 min 0,000 mm 0,0 UV-I 0 W/m 11,6 C 12,1 C 8,0 km/h (2 Bft) 92,31 %
14.06.2018 03:18 12,1 C 23,3 C 97 % 1013,9 hPa 0,0 l/m 6,8 km/h (2 Bft) W-SW 242 0 min 0,000 mm 0,0 UV-I 0 W/m 11,6 C 11,8 C 11,3 km/h (2 Bft) 95,65 %
14.06.2018 03:19 12,2 C 23,3 C 97 % 1013,9 hPa 0,0 l/m 6,7 km/h (2 Bft) W-SW 248 0 min 0,000 mm 0,0 UV-I 0 W/m 11,7 C 12,0 C 11,3 km/h (2 Bft) 95,83 %
14.06.2018 03:20 12,2 C 23,3 C 97 % 1013,9 hPa 0,0 l/m 4,8 km/h (1 Bft) W-SW 252 0 min 0,000 mm 0,0 UV-I 0 W/m 11,7 C 12,2 C 8,0 km/h (2 Bft) 95,65 %
14.06.2018 03:21 12,2 C 23,3 C 97 % 1013,9 hPa 0,0 l/m 5,1 km/h (1 Bft) W 278 0 min 0,000 mm 0,0 UV-I 0 W/m 11,7 C 12,2 C 8,0 km/h (2 Bft) 95,83 %
14.06.2018 03:22 12,2 C 23,3 C 97 % 1013,9 hPa 0,0 l/m 7,2 km/h (2 Bft) W 266 0 min 0,000 mm 0,0 UV-I 0 W/m 11,7 C 11,7 C 9,7 km/h (2 Bft) 91,67 %
14.06.2018 03:23 12,2 C 23,3 C 97 % 1013,9 hPa 0,0 l/m 8,8 km/h (2 Bft) W 263 0 min 0,000 mm 0,0 UV-I 0 W/m 11,7 C 10,7 C 14,5 km/h (3 Bft) 96,00 %
14.06.2018 03:24 12,2 C 23,3 C 97 % 1013,9 hPa 0,0 l/m 10,9 km/h (2 Bft) W 260 0 min 0,000 mm 0,0 UV-I 0 W/m 11,7 C 9,6 C 12,9 km/h (3 Bft) 100,00 %
14.06.2018 03:25 12,2 C 23,3 C 97 % 1013,9 hPa 0,0 l/m 7,0 km/h (2 Bft) W-NW 292 0 min 0,000 mm 0,0 UV-I 0 W/m 11,7 C 11,8 C 9,7 km/h (2 Bft) 100,00 %
14.06.2018 03:26 12,2 C 23,3 C 97 % 1013,8 hPa 0,0 l/m 7,6 km/h (2 Bft) W-SW 254 0 min 0,000 mm 0,0 UV-I 0 W/m 11,7 C 11,4 C 14,5 km/h (3 Bft) 100,00 %
14.06.2018 03:27 12,2 C 23,3 C 97 % 1013,9 hPa 0,0 l/m 8,6 km/h (2 Bft) W 260 0 min 0,000 mm 0,0 UV-I 0 W/m 11,7 C 10,8 C 11,3 km/h (2 Bft) 92,31 %
14.06.2018 03:28 12,2 C 23,3 C 97 % 1013,9 hPa 0,0 l/m 8,1 km/h (2 Bft) W 265 0 min 0,000 mm 0,0 UV-I 0 W/m 11,7 C 11,1 C 12,9 km/h (3 Bft) 100,00 %
14.06.2018 03:29 12,2 C 23,3 C 97 % 1013,9 hPa 0,0 l/m 6,0 km/h (2 Bft) W 259 0 min 0,000 mm 0,0 UV-I 0 W/m 11,7 C 12,2 C 9,7 km/h (2 Bft) 91,30 %
14.06.2018 03:30 12,2 C 23,3 C 97 % 1013,9 hPa 0,0 l/m 7,0 km/h (2 Bft) W 265 0 min 0,000 mm 0,0 UV-I 0 W/m 11,7 C 11,8 C 11,3 km/h (2 Bft) 95,83 %
14.06.2018 03:31 12,2 C 23,3 C 97 % 1013,9 hPa 0,0 l/m 5,2 km/h (1 Bft) W-SW 258 0 min 0,000 mm 0,0 UV-I 0 W/m 11,7 C 12,2 C 9,7 km/h (2 Bft) 100,00 %
14.06.2018 03:32 12,2 C 23,3 C 97 % 1013,9 hPa 0,0 l/m 10,2 km/h (2 Bft) W 279 0 min 0,000 mm 0,0 UV-I 0 W/m 11,7 C 9,9 C 14,5 km/h (3 Bft) 100,00 %
14.06.2018 03:33 12,2 C 23,3 C 97 % 1013,9 hPa 0,0 l/m 7,5 km/h (2 Bft) W 281 0 min 0,000 mm 0,0 UV-I 0 W/m 11,7 C 11,5 C 11,3 km/h (2 Bft) 96,00 %
14.06.2018 03:34 12,3 C 23,3 C 97 % 1013,9 hPa 0,0 l/m 11,7 km/h (2 Bft) W-SW 254 0 min 0,000 mm 0,0 UV-I 0 W/m 11,8 C 9,3 C 16,1 km/h (3 Bft) 100,00 %
14.06.2018 03:35 12,2 C 23,3 C 97 % 1013,9 hPa 0,0 l/m 7,7 km/h (2 Bft) W-SW 250 0 min 0,000 mm 0,0 UV-I 0 W/m 11,7 C 11,3 C 14,5 km/h (3 Bft) 95,65 %
14.06.2018 03:36 12,2 C 23,3 C 97 % 1013,9 hPa 0,0 l/m 10,5 km/h (2 Bft) W-SW 246 0 min 0,000 mm 0,0 UV-I 0 W/m 11,7 C 9,8 C 16,1 km/h (3 Bft) 100,00 %
14.06.2018 03:37 12,2 C 23,3 C 97 % 1013,9 hPa 0,0 l/m 11,1 km/h (2 Bft) SW 235 0 min 0,000 mm 0,0 UV-I 0 W/m 11,7 C 9,5 C 16,1 km/h (3 Bft) 100,00 %
14.06.2018 03:38 12,2 C 23,3 C 97 % 1013,9 hPa 0,0 l/m 9,5 km/h (2 Bft) W 259 0 min 0,000 mm 0,0 UV-I 0 W/m 11,7 C 10,3 C 12,9 km/h (3 Bft) 100,00 %
14.06.2018 03:39 12,2 C 23,3 C 97 % 1013,9 hPa 0,0 l/m 8,6 km/h (2 Bft) W 279 0 min 0,000 mm 0,0 UV-I 0 W/m 11,7 C 10,8 C 12,9 km/h (3 Bft) 100,00 %
14.06.2018 03:40 12,2 C 23,3 C 97 % 1013,9 hPa 0,0 l/m 12,4 km/h (3 Bft) W 260 0 min 0,000 mm 0,0 UV-I 0 W/m 11,7 C 8,9 C 14,5 km/h (3 Bft) 100,00 %
14.06.2018 03:41 12,2 C 23,3 C 97 % 1013,9 hPa 0,0 l/m 9,1 km/h (2 Bft) W-SW 254 0 min 0,000 mm 0,0 UV-I 0 W/m 11,7 C 10,5 C 12,9 km/h (3 Bft) 95,65 %
14.06.2018 03:42 12,2 C 23,3 C 97 % 1013,9 hPa 0,0 l/m 9,9 km/h (2 Bft) W-SW 254 0 min 0,000 mm 0,0 UV-I 0 W/m 11,7 C 10,1 C 14,5 km/h (3 Bft) 100,00 %
14.06.2018 03:43 12,2 C 23,3 C 97 % 1013,9 hPa 0,0 l/m 10,1 km/h (2 Bft) W 273 0 min 0,000 mm 0,0 UV-I 0 W/m 11,7 C 10,0 C 14,5 km/h (3 Bft) 100,00 %
14.06.2018 03:44 12,2 C 23,3 C 97 % 1013,8 hPa 0,0 l/m 13,9 km/h (3 Bft) W 261 0 min 0,000 mm 0,0 UV-I 0 W/m 11,7 C 8,2 C 17,7 km/h (3 Bft) 95,65 %
14.06.2018 03:45 12,2 C 22,8 C 97 % 1013,9 hPa 0,0 l/m 11,2 km/h (2 Bft) W 270 0 min 0,000 mm 0,0 UV-I 0 W/m 11,7 C 9,4 C 16,1 km/h (3 Bft) 100,00 %
14.06.2018 03:46 12,2 C 22,8 C 97 % 1013,9 hPa 0,0 l/m 7,8 km/h (2 Bft) W-SW 241 0 min 0,000 mm 0,0 UV-I 0 W/m 11,7 C 11,3 C 11,3 km/h (2 Bft) 94,74 %
14.06.2018 03:47 12,2 C 22,8 C 97 % 1013,9 hPa 0,0 l/m 6,4 km/h (2 Bft) W 277 0 min 0,000 mm 0,0 UV-I 0 W/m 11,7 C 12,2 C 9,7 km/h (2 Bft) 100,00 %
14.06.2018 03:48 12,2 C 22,8 C 97 % 1013,9 hPa 0,0 l/m 6,9 km/h (2 Bft) W 261 0 min 0,000 mm 0,0 UV-I 0 W/m 11,7 C 11,9 C 9,7 km/h (2 Bft) 100,00 %
14.06.2018 03:49 12,2 C 22,8 C 97 % 1013,9 hPa 0,0 l/m 10,4 km/h (2 Bft) W-SW 255 0 min 0,000 mm 0,0 UV-I 0 W/m 11,7 C 9,8 C 14,5 km/h (3 Bft) 95,83 %
14.06.2018 03:50 12,2 C 22,8 C 97 % 1013,9 hPa 0,0 l/m 6,4 km/h (2 Bft) W-SW 244 0 min 0,000 mm 0,0 UV-I 0 W/m 11,7 C 12,2 C 9,7 km/h (2 Bft) 96,15 %
14.06.2018 03:51 12,2 C 22,8 C 97 % 1013,9 hPa 0,0 l/m 8,7 km/h (2 Bft) W 274 0 min 0,000 mm 0,0 UV-I 0 W/m 11,7 C 10,7 C 11,3 km/h (2 Bft) 100,00 %
14.06.2018 03:52 12,2 C 22,8 C 97 % 1013,9 hPa 0,0 l/m 7,4 km/h (2 Bft) W-SW 238 0 min 0,000 mm 0,0 UV-I 0 W/m 11,7 C 11,5 C 14,5 km/h (3 Bft) 95,65 %
14.06.2018 03:53 12,2 C 22,8 C 97 % 1013,9 hPa 0,0 l/m 8,3 km/h (2 Bft) W 269 0 min 0,000 mm 0,0 UV-I 0 W/m 11,7 C 11,0 C 11,3 km/h (2 Bft) 100,00 %
14.06.2018 03:54 12,2 C 22,8 C 97 % 1013,9 hPa 0,0 l/m 10,0 km/h (2 Bft) W-SW 252 0 min 0,000 mm 0,0 UV-I 0 W/m 11,7 C 10,0 C 14,5 km/h (3 Bft) 100,00 %
14.06.2018 03:55 12,2 C 22,8 C 97 % 1013,9 hPa 0,0 l/m 11,1 km/h (2 Bft) W 271 0 min 0,000 mm 0,0 UV-I 0 W/m 11,7 C 9,5 C 14,5 km/h (3 Bft) 100,00 %
14.06.2018 03:56 12,2 C 22,8 C 97 % 1013,9 hPa 0,2 l/m 8,5 km/h (2 Bft) W 269 0 min 0,000 mm 0,0 UV-I 0 W/m 11,7 C 10,9 C 12,9 km/h (3 Bft) 96,00 %
14.06.2018 03:57 12,1 C 22,8 C 97 % 1013,9 hPa 0,0 l/m 7,5 km/h (2 Bft) W 268 0 min 0,000 mm 0,0 UV-I 0 W/m 11,6 C 11,4 C 11,3 km/h (2 Bft) 100,00 %
14.06.2018 03:58 12,1 C 22,8 C 97 % 1013,9 hPa 0,0 l/m 7,0 km/h (2 Bft) W 271 0 min 0,000 mm 0,0 UV-I 0 W/m 11,6 C 11,7 C 9,7 km/h (2 Bft) 100,00 %
14.06.2018 03:59 12,1 C 22,8 C 97 % 1013,9 hPa 0,0 l/m 6,9 km/h (2 Bft) W 266 0 min 0,000 mm 0,0 UV-I 0 W/m 11,6 C 11,8 C 11,3 km/h (2 Bft) 100,00 %
14.06.2018 04:00 12,1 C 22,8 C 97 % 1013,9 hPa 0,0 l/m 8,9 km/h (2 Bft) W-SW 241 0 min 0,000 mm 0,0 UV-I 0 W/m 11,6 C 10,5 C 14,5 km/h (3 Bft) 100,00 %
14.06.2018 04:01 12,1 C 22,8 C 97 % 1013,9 hPa 0,0 l/m 11,0 km/h (2 Bft) W-SW 246 0 min 0,000 mm 0,0 UV-I 0 W/m 11,6 C 9,4 C 12,9 km/h (3 Bft) 100,00 %
14.06.2018 04:02 12,1 C 22,8 C 97 % 1013,9 hPa 0,0 l/m 9,7 km/h (2 Bft) W-SW 242 0 min 0,000 mm 0,0 UV-I 0 W/m 11,6 C 10,1 C 12,9 km/h (3 Bft) 95,65 %
14.06.2018 04:03 12,1 C 22,8 C 97 % 1013,9 hPa 0,0 l/m 8,9 km/h (2 Bft) SW 235 0 min 0,000 mm 0,0 UV-I 0 W/m 11,6 C 10,5 C 12,9 km/h (3 Bft) 100,00 %
14.06.2018 04:04 12,1 C 22,8 C 97 % 1013,9 hPa 0,0 l/m 9,3 km/h (2 Bft) SW 236 0 min 0,000 mm 0,0 UV-I 0 W/m 11,6 C 10,3 C 14,5 km/h (3 Bft) 100,00 %
14.06.2018 04:05 12,1 C 22,8 C 97 % 1013,9 hPa 0,0 l/m 10,6 km/h (2 Bft) W 266 0 min 0,000 mm 0,0 UV-I 0 W/m 11,6 C 9,6 C 16,1 km/h (3 Bft) 100,00 %
14.06.2018 04:06 12,1 C 22,8 C 97 % 1013,9 hPa 0,0 l/m 6,7 km/h (2 Bft) W 265 0 min 0,000 mm 0,0 UV-I 0 W/m 11,6 C 11,9 C 11,3 km/h (2 Bft) 100,00 %
14.06.2018 04:07 12,1 C 22,8 C 97 % 1014,0 hPa 0,0 l/m 7,3 km/h (2 Bft) W-NW 286 0 min 0,000 mm 0,0 UV-I 0 W/m 11,6 C 11,5 C 11,3 km/h (2 Bft) 95,65 %
14.06.2018 04:08 12,1 C 22,8 C 97 % 1014,0 hPa 0,0 l/m 10,7 km/h (2 Bft) W-SW 251 0 min 0,000 mm 0,0 UV-I 0 W/m 11,6 C 9,6 C 16,1 km/h (3 Bft) 100,00 %
14.06.2018 04:09 12,1 C 22,8 C 97 % 1014,0 hPa 0,0 l/m 7,2 km/h (2 Bft) W 266 0 min 0,000 mm 0,0 UV-I 0 W/m 11,6 C 11,6 C 11,3 km/h (2 Bft) 100,00 %
14.06.2018 04:10 12,1 C 22,8 C 97 % 1014,0 hPa 0,0 l/m 11,1 km/h (2 Bft) W 269 0 min 0,000 mm 0,0 UV-I 0 W/m 11,6 C 9,4 C 14,5 km/h (3 Bft) 95,83 %
14.06.2018 04:11 12,1 C 22,8 C 97 % 1014,1 hPa 0,0 l/m 9,5 km/h (2 Bft) W 275 0 min 0,000 mm 0,0 UV-I 0 W/m 11,6 C 10,2 C 11,3 km/h (2 Bft) 100,00 %
14.06.2018 04:12 12,1 C 22,8 C 97 % 1014,1 hPa 0,0 l/m 10,1 km/h (2 Bft) W 281 0 min 0,000 mm 0,0 UV-I 0 W/m 11,6 C 9,9 C 16,1 km/h (3 Bft) 95,83 %
14.06.2018 04:13 12,1 C 22,8 C 97 % 1014,1 hPa 0,0 l/m 8,7 km/h (2 Bft) W 275 0 min 0,000 mm 0,0 UV-I 0 W/m 11,6 C 10,6 C 11,3 km/h (2 Bft) 100,00 %
14.06.2018 04:14 12,1 C 22,8 C 97 % 1014,1 hPa 0,0 l/m 7,7 km/h (2 Bft) W 273 0 min 0,000 mm 0,0 UV-I 0 W/m 11,6 C 11,2 C 11,3 km/h (2 Bft) 100,00 %
14.06.2018 04:15 12,1 C 22,8 C 97 % 1014,1 hPa 0,0 l/m 10,7 km/h (2 Bft) W-SW 254 0 min 0,000 mm 0,0 UV-I 0 W/m 11,6 C 9,6 C 16,1 km/h (3 Bft) 100,00 %
14.06.2018 04:16 12,1 C 22,8 C 97 % 1014,1 hPa 0,0 l/m 8,7 km/h (2 Bft) W-SW 257 0 min 0,000 mm 0,0 UV-I 0 W/m 11,6 C 10,6 C 14,5 km/h (3 Bft) 95,83 %
14.06.2018 04:17 12,1 C 22,8 C 97 % 1014,1 hPa 0,0 l/m 8,2 km/h (2 Bft) SW 232 0 min 0,000 mm 0,0 UV-I 0 W/m 11,6 C 10,9 C 14,5 km/h (3 Bft) 100,00 %
14.06.2018 04:18 12,1 C 22,8 C 97 % 1014,1 hPa 0,0 l/m 7,8 km/h (2 Bft) SW 233 0 min 0,000 mm 0,0 UV-I 0 W/m 11,6 C 11,2 C 12,9 km/h (3 Bft) 95,83 %
14.06.2018 04:19 12,1 C 22,8 C 97 % 1014,1 hPa 0,0 l/m 9,5 km/h (2 Bft) W-SW 248 0 min 0,000 mm 0,0 UV-I 0 W/m 11,6 C 10,2 C 14,5 km/h (3 Bft) 95,65 %
14.06.2018 04:20 12,1 C 22,8 C 97 % 1014,1 hPa 0,0 l/m 6,9 km/h (2 Bft) W 259 0 min 0,000 mm 0,0 UV-I 0 W/m 11,6 C 11,8 C 12,9 km/h (3 Bft) 100,00 %
14.06.2018 04:21 12,1 C 22,8 C 97 % 1014,1 hPa 0,0 l/m 8,1 km/h (2 Bft) W-SW 239 0 min 0,000 mm 0,0 UV-I 0 W/m 11,6 C 11,0 C 11,3 km/h (2 Bft) 91,67 %
14.06.2018 04:22 12,1 C 22,8 C 97 % 1014,1 hPa 0,0 l/m 8,4 km/h (2 Bft) W 273 0 min 0,000 mm 0,0 UV-I 0 W/m 11,6 C 10,8 C 12,9 km/h (3 Bft) 100,00 %
14.06.2018 04:23 12,1 C 22,8 C 97 % 1014,1 hPa 0,0 l/m 11,6 km/h (2 Bft) SW 226 0 min 0,000 mm 0,0 UV-I 0 W/m 11,6 C 9,1 C 14,5 km/h (3 Bft) 95,83 %
14.06.2018 04:24 12,1 C 22,8 C 97 % 1014,2 hPa 0,0 l/m 10,3 km/h (2 Bft) SW 234 0 min 0,000 mm 0,0 UV-I 0 W/m 11,6 C 9,8 C 14,5 km/h (3 Bft) 100,00 %
14.06.2018 04:25 12,1 C 22,8 C 97 % 1014,1 hPa 0,0 l/m 9,3 km/h (2 Bft) SW 229 0 min 0,000 mm 0,0 UV-I 0 W/m 11,6 C 10,3 C 12,9 km/h (3 Bft) 91,67 %
14.06.2018 04:26 12,1 C 22,8 C 97 % 1014,2 hPa 0,0 l/m 8,2 km/h (2 Bft) SW 236 0 min 0,000 mm 0,0 UV-I 0 W/m 11,6 C 10,9 C 12,9 km/h (3 Bft) 95,65 %
14.06.2018 04:27 12,1 C 22,8 C 97 % 1014,1 hPa 0,0 l/m 7,8 km/h (2 Bft) W-SW 252 0 min 0,000 mm 0,0 UV-I 0 W/m 11,6 C 11,2 C 11,3 km/h (2 Bft) 100,00 %
14.06.2018 04:29 12,1 C 22,8 C 97 % 1014,1 hPa 0,0 l/m 10,6 km/h (2 Bft) W-SW 258 0 min 0,000 mm 0,0 UV-I 0 W/m 11,6 C 9,6 C 14,5 km/h (3 Bft) 97,87 %
14.06.2018 04:30 12,1 C 22,8 C 97 % 1014,0 hPa 0,0 l/m 8,0 km/h (2 Bft) W 262 0 min 0,000 mm 0,0 UV-I 0 W/m 11,6 C 11,1 C 12,9 km/h (3 Bft) 95,65 %
14.06.2018 04:31 12,1 C 22,8 C 97 % 1014,0 hPa 0,0 l/m 9,3 km/h (2 Bft) W-SW 242 0 min 0,000 mm 0,0 UV-I 0 W/m 11,6 C 10,3 C 11,3 km/h (2 Bft) 100,00 %
14.06.2018 04:32 12,1 C 22,8 C 97 % 1014,0 hPa 0,0 l/m 8,2 km/h (2 Bft) W 259 0 min 0,000 mm 0,0 UV-I 0 W/m 11,6 C 10,9 C 11,3 km/h (2 Bft) 95,65 %
14.06.2018 04:33 12,1 C 22,8 C 97 % 1014,0 hPa 0,0 l/m 9,6 km/h (2 Bft) W 259 0 min 0,000 mm 0,0 UV-I 0 W/m 11,6 C 10,1 C 14,5 km/h (3 Bft) 95,83 %
14.06.2018 04:34 12,1 C 22,8 C 97 % 1014,0 hPa 0,0 l/m 10,2 km/h (2 Bft) W-SW 242 0 min 0,000 mm 0,0 UV-I 0 W/m 11,6 C 9,8 C 14,5 km/h (3 Bft) 96,15 %
14.06.2018 04:35 12,1 C 22,8 C 97 % 1014,0 hPa 0,0 l/m 7,1 km/h (2 Bft) W-SW 257 0 min 0,000 mm 0,0 UV-I 0 W/m 11,6 C 11,6 C 12,9 km/h (3 Bft) 95,83 %
14.06.2018 04:36 12,1 C 22,8 C 97 % 1014,0 hPa 0,0 l/m 6,9 km/h (2 Bft) W 262 0 min 0,000 mm 0,0 UV-I 0 W/m 11,6 C 11,8 C 9,7 km/h (2 Bft) 100,00 %
14.06.2018 04:37 12,1 C 22,8 C 97 % 1014,0 hPa 0,0 l/m 6,2 km/h (2 Bft) W 271 0 min 0,000 mm 0,0 UV-I 0 W/m 11,6 C 12,1 C 11,3 km/h (2 Bft) 91,67 %
14.06.2018 04:38 12,1 C 22,8 C 97 % 1014,0 hPa 0,0 l/m 9,5 km/h (2 Bft) W 275 0 min 0,000 mm 0,0 UV-I 0 W/m 11,6 C 10,2 C 12,9 km/h (3 Bft) 100,00 %
14.06.2018 04:39 12,0 C 22,8 C 97 % 1014,1 hPa 0,0 l/m 9,3 km/h (2 Bft) SW 232 0 min 0,000 mm 0,0 UV-I 0 W/m 11,5 C 10,2 C 12,9 km/h (3 Bft) 95,83 %
14.06.2018 04:40 12,0 C 22,8 C 97 % 1014,1 hPa 0,0 l/m 7,6 km/h (2 Bft) W-SW 246 0 min 0,000 mm 0,0 UV-I 0 W/m 11,5 C 11,2 C 11,3 km/h (2 Bft) 100,00 %
14.06.2018 04:41 12,0 C 22,8 C 97 % 1014,1 hPa 0,0 l/m 4,6 km/h (1 Bft) W-SW 255 0 min 0,000 mm 0,0 UV-I 0 W/m 11,5 C 12,0 C 9,7 km/h (2 Bft) 95,83 %
14.06.2018 04:42 12,1 C 22,8 C 97 % 1014,2 hPa 0,0 l/m 7,5 km/h (2 Bft) W 261 0 min 0,000 mm 0,0 UV-I 0 W/m 11,6 C 11,4 C 12,9 km/h (3 Bft) 95,65 %
14.06.2018 04:43 12,1 C 22,8 C 97 % 1014,2 hPa 0,0 l/m 13,5 km/h (3 Bft) W-SW 252 0 min 0,000 mm 0,0 UV-I 0 W/m 11,6 C 8,3 C 16,1 km/h (3 Bft) 100,00 %
14.06.2018 04:44 12,1 C 22,8 C 97 % 1014,2 hPa 0,0 l/m 11,6 km/h (2 Bft) W 260 0 min 0,000 mm 0,0 UV-I 0 W/m 11,6 C 9,1 C 16,1 km/h (3 Bft) 100,00 %
14.06.2018 04:45 12,1 C 22,8 C 97 % 1014,2 hPa 0,0 l/m 12,7 km/h (3 Bft) W 270 0 min 0,000 mm 0,0 UV-I 0 W/m 11,6 C 8,6 C 17,7 km/h (3 Bft) 96,15 %
14.06.2018 04:46 12,1 C 22,8 C 97 % 1014,2 hPa 0,0 l/m 8,9 km/h (2 Bft) W 270 0 min 0,000 mm 0,0 UV-I 0 W/m 11,6 C 10,5 C 12,9 km/h (3 Bft) 100,00 %
14.06.2018 04:47 12,1 C 22,8 C 97 % 1014,2 hPa 0,0 l/m 8,4 km/h (2 Bft) W 267 0 min 0,000 mm 0,0 UV-I 0 W/m 11,6 C 10,8 C 14,5 km/h (3 Bft) 100,00 %
14.06.2018 04:48 12,1 C 22,8 C 97 % 1014,2 hPa 0,0 l/m 7,5 km/h (2 Bft) W 268 0 min 0,000 mm 0,0 UV-I 0 W/m 11,6 C 11,4 C 11,3 km/h (2 Bft) 100,00 %
14.06.2018 04:49 12,1 C 22,8 C 97 % 1014,2 hPa 0,0 l/m 8,0 km/h (2 Bft) W 271 0 min 0,000 mm 0,0 UV-I 0 W/m 11,6 C 11,1 C 12,9 km/h (3 Bft) 100,00 %
14.06.2018 04:50 12,1 C 22,8 C 97 % 1014,2 hPa 0,0 l/m 11,2 km/h (2 Bft) W-SW 251 0 min 0,000 mm 0,0 UV-I 0 W/m 11,6 C 9,3 C 16,1 km/h (3 Bft) 100,00 %
14.06.2018 04:51 12,0 C 22,8 C 97 % 1014,2 hPa 0,0 l/m 8,0 km/h (2 Bft) W 267 0 min 0,000 mm 0,0 UV-I 0 W/m 11,5 C 11,0 C 11,3 km/h (2 Bft) 100,00 %
14.06.2018 04:52 12,0 C 22,8 C 97 % 1014,2 hPa 0,0 l/m 6,3 km/h (2 Bft) W 271 0 min 0,000 mm 0,0 UV-I 0 W/m 11,5 C 12,0 C 9,7 km/h (2 Bft) 100,00 %
14.06.2018 04:53 11,9 C 22,8 C 97 % 1014,2 hPa 0,0 l/m 9,5 km/h (2 Bft) W-SW 248 0 min 0,000 mm 0,0 UV-I 0 W/m 11,4 C 10,0 C 16,1 km/h (3 Bft) 86,96 %
14.06.2018 04:54 12,0 C 22,8 C 97 % 1014,2 hPa 0,0 l/m 10,7 km/h (2 Bft) W 267 0 min 0,000 mm 0,0 UV-I 0 W/m 11,5 C 9,4 C 14,5 km/h (3 Bft) 100,00 %
14.06.2018 04:55 12,0 C 22,8 C 97 % 1014,3 hPa 0,0 l/m 10,9 km/h (2 Bft) W 261 0 min 0,000 mm 0,0 UV-I 0 W/m 11,5 C 9,3 C 12,9 km/h (3 Bft) 100,00 %
14.06.2018 04:56 12,0 C 22,8 C 97 % 1014,2 hPa 0,0 l/m 9,9 km/h (2 Bft) W 261 0 min 0,000 mm 0,0 UV-I 0 W/m 11,5 C 9,9 C 16,1 km/h (3 Bft) 100,00 %
14.06.2018 04:57 11,9 C 22,8 C 97 % 1014,2 hPa 0,0 l/m 11,5 km/h (2 Bft) W 271 0 min 0,000 mm 0,0 UV-I 0 W/m 11,4 C 8,9 C 17,7 km/h (3 Bft) 95,65 %
14.06.2018 04:58 11,9 C 22,8 C 97 % 1014,2 hPa 0,0 l/m 9,1 km/h (2 Bft) W-SW 243 0 min 0,000 mm 0,0 UV-I 0 W/m 11,4 C 10,2 C 12,9 km/h (3 Bft) 100,00 %
14.06.2018 04:59 11,9 C 22,8 C 97 % 1014,2 hPa 0,0 l/m 8,6 km/h (2 Bft) W 264 0 min 0,000 mm 0,0 UV-I 0 W/m 11,4 C 10,5 C 11,3 km/h (2 Bft) 100,00 %
14.06.2018 05:00 11,9 C 22,8 C 97 % 1014,2 hPa 0,0 l/m 7,2 km/h (2 Bft) W 269 0 min 0,000 mm 0,0 UV-I 0 W/m 11,4 C 11,4 C 11,3 km/h (2 Bft) 100,00 %
14.06.2018 05:01 11,9 C 22,8 C 97 % 1014,2 hPa 0,0 l/m 9,0 km/h (2 Bft) W 273 0 min 0,000 mm 0,0 UV-I 0 W/m 11,4 C 10,2 C 14,5 km/h (3 Bft) 95,65 %
14.06.2018 05:02 11,9 C 22,8 C 97 % 1014,2 hPa 0,0 l/m 13,1 km/h (3 Bft) W 259 0 min 0,000 mm 0,0 UV-I 0 W/m 11,4 C 8,2 C 16,1 km/h (3 Bft) 100,00 %
14.06.2018 05:03 11,9 C 22,8 C 97 % 1014,2 hPa 0,0 l/m 10,1 km/h (2 Bft) W-SW 238 0 min 0,000 mm 0,0 UV-I 2 W/m 11,4 C 9,6 C 12,9 km/h (3 Bft) 100,00 %
14.06.2018 05:04 11,9 C 22,8 C 97 % 1014,2 hPa 0,0 l/m 11,1 km/h (2 Bft) W-SW 258 0 min 0,000 mm 0,0 UV-I 5 W/m 11,4 C 9,1 C 14,5 km/h (3 Bft) 100,00 %
14.06.2018 05:05 11,9 C 22,8 C 97 % 1014,2 hPa 0,0 l/m 8,3 km/h (2 Bft) W-SW 240 0 min 0,000 mm 0,0 UV-I 5 W/m 11,4 C 10,7 C 12,9 km/h (3 Bft) 100,00 %
14.06.2018 05:06 11,9 C 22,8 C 97 % 1014,3 hPa 0,0 l/m 11,1 km/h (2 Bft) W-SW 256 0 min 0,000 mm 0,0 UV-I 5 W/m 11,4 C 9,1 C 14,5 km/h (3 Bft) 100,00 %
14.06.2018 05:07 11,9 C 22,8 C 97 % 1014,2 hPa 0,0 l/m 10,2 km/h (2 Bft) W 261 0 min 0,000 mm 0,0 UV-I 5 W/m 11,4 C 9,6 C 14,5 km/h (3 Bft) 100,00 %
14.06.2018 05:08 11,9 C 22,8 C 97 % 1014,2 hPa 0,0 l/m 5,9 km/h (2 Bft) W-SW 257 0 min 0,000 mm 0,0 UV-I 5 W/m 11,4 C 11,9 C 9,7 km/h (2 Bft) 100,00 %
14.06.2018 05:09 12,0 C 22,8 C 97 % 1014,2 hPa 0,0 l/m 4,9 km/h (1 Bft) W 276 0 min 0,000 mm 0,0 UV-I 5 W/m 11,5 C 12,0 C 6,4 km/h (2 Bft) 100,00 %
14.06.2018 05:10 11,9 C 22,8 C 97 % 1014,2 hPa 0,0 l/m 5,9 km/h (2 Bft) NW 308 0 min 0,000 mm 0,0 UV-I 5 W/m 11,4 C 11,9 C 8,0 km/h (2 Bft) 100,00 %
14.06.2018 05:11 11,9 C 22,8 C 97 % 1014,3 hPa 0,0 l/m 8,6 km/h (2 Bft) W 262 0 min 0,000 mm 0,0 UV-I 5 W/m 11,4 C 10,5 C 12,9 km/h (3 Bft) 100,00 %
14.06.2018 05:12 11,9 C 22,8 C 96 % 1014,3 hPa 0,0 l/m 8,4 km/h (2 Bft) W 267 0 min 0,000 mm 0,0 UV-I 5 W/m 11,3 C 10,6 C 11,3 km/h (2 Bft) 100,00 %
14.06.2018 05:13 11,9 C 22,8 C 97 % 1014,3 hPa 0,0 l/m 9,8 km/h (2 Bft) W 261 0 min 0,000 mm 0,0 UV-I 5 W/m 11,4 C 9,8 C 14,5 km/h (3 Bft) 100,00 %
14.06.2018 05:14 11,9 C 22,8 C 97 % 1014,3 hPa 0,0 l/m 6,9 km/h (2 Bft) SW 228 0 min 0,000 mm 0,0 UV-I 5 W/m 11,4 C 11,6 C 9,7 km/h (2 Bft) 100,00 %
14.06.2018 05:15 11,9 C 22,8 C 97 % 1014,3 hPa 0,0 l/m 7,2 km/h (2 Bft) W-SW 252 0 min 0,000 mm 0,0 UV-I 5 W/m 11,4 C 11,4 C 14,5 km/h (3 Bft) 95,83 %
14.06.2018 05:16 11,9 C 22,8 C 96 % 1014,3 hPa 0,0 l/m 8,6 km/h (2 Bft) W 263 0 min 0,000 mm 0,0 UV-I 5 W/m 11,3 C 10,5 C 11,3 km/h (2 Bft) 100,00 %
14.06.2018 05:17 11,9 C 22,8 C 96 % 1014,3 hPa 0,0 l/m 10,3 km/h (2 Bft) W 280 0 min 0,000 mm 0,0 UV-I 5 W/m 11,3 C 9,5 C 14,5 km/h (3 Bft) 100,00 %
14.06.2018 05:18 11,9 C 22,8 C 96 % 1014,3 hPa 0,0 l/m 8,3 km/h (2 Bft) SW 228 0 min 0,000 mm 0,0 UV-I 7 W/m 11,3 C 10,7 C 12,9 km/h (3 Bft) 100,00 %
14.06.2018 05:19 11,8 C 22,8 C 96 % 1014,3 hPa 0,0 l/m 11,0 km/h (2 Bft) W-SW 257 0 min 0,000 mm 0,0 UV-I 7 W/m 11,2 C 9,1 C 16,1 km/h (3 Bft) 100,00 %
14.06.2018 05:20 11,8 C 22,8 C 96 % 1014,3 hPa 0,0 l/m 7,1 km/h (2 Bft) W 259 0 min 0,000 mm 0,0 UV-I 7 W/m 11,2 C 11,3 C 12,9 km/h (3 Bft) 100,00 %
14.06.2018 05:21 11,8 C 22,8 C 97 % 1014,3 hPa 0,0 l/m 7,2 km/h (2 Bft) W-SW 254 0 min 0,000 mm 0,0 UV-I 7 W/m 11,3 C 11,3 C 11,3 km/h (2 Bft) 100,00 %
14.06.2018 05:22 11,8 C 22,8 C 96 % 1014,3 hPa 0,0 l/m 10,5 km/h (2 Bft) W 260 0 min 0,000 mm 0,0 UV-I 7 W/m 11,2 C 9,3 C 14,5 km/h (3 Bft) 100,00 %
14.06.2018 05:23 11,8 C 22,8 C 96 % 1014,2 hPa 0,0 l/m 11,0 km/h (2 Bft) W 261 0 min 0,000 mm 0,0 UV-I 7 W/m 11,2 C 9,1 C 16,1 km/h (3 Bft) 100,00 %
14.06.2018 05:24 11,8 C 22,8 C 96 % 1014,3 hPa 0,0 l/m 7,1 km/h (2 Bft) W 261 0 min 0,000 mm 0,0 UV-I 7 W/m 11,2 C 11,3 C 11,3 km/h (2 Bft) 100,00 %
14.06.2018 05:25 11,8 C 22,8 C 97 % 1014,3 hPa 0,0 l/m 9,1 km/h (2 Bft) W 266 0 min 0,000 mm 0,0 UV-I 7 W/m 11,3 C 10,1 C 16,1 km/h (3 Bft) 100,00 %
14.06.2018 05:26 11,8 C 22,8 C 97 % 1014,3 hPa 0,0 l/m 9,5 km/h (2 Bft) W 259 0 min 0,000 mm 0,0 UV-I 9 W/m 11,3 C 9,9 C 14,5 km/h (3 Bft) 100,00 %
14.06.2018 05:27 11,8 C 22,8 C 97 % 1014,3 hPa 0,0 l/m 10,6 km/h (2 Bft) W-SW 252 0 min 0,000 mm 0,0 UV-I 9 W/m 11,3 C 9,3 C 14,5 km/h (3 Bft) 100,00 %
14.06.2018 05:28 11,8 C 22,8 C 97 % 1014,3 hPa 0,0 l/m 12,5 km/h (3 Bft) SW 225 0 min 0,000 mm 0,0 UV-I 9 W/m 11,3 C 8,4 C 16,1 km/h (3 Bft) 100,00 %
14.06.2018 05:29 11,8 C 22,8 C 97 % 1014,3 hPa 0,0 l/m 12,1 km/h (2 Bft) W 263 0 min 0,000 mm 0,0 UV-I 9 W/m 11,3 C 8,5 C 14,5 km/h (3 Bft) 100,00 %
14.06.2018 05:30 11,7 C 22,8 C 97 % 1014,3 hPa 0,0 l/m 10,3 km/h (2 Bft) W-SW 252 0 min 0,000 mm 0,0 UV-I 9 W/m 11,2 C 9,3 C 14,5 km/h (3 Bft) 100,00 %
14.06.2018 05:31 11,7 C 22,8 C 97 % 1014,3 hPa 0,0 l/m 11,5 km/h (2 Bft) W 261 0 min 0,000 mm 0,0 UV-I 9 W/m 11,2 C 8,7 C 14,5 km/h (3 Bft) 91,30 %
14.06.2018 05:32 11,7 C 22,8 C 97 % 1014,3 hPa 0,0 l/m 8,6 km/h (2 Bft) SW 228 0 min 0,000 mm 0,0 UV-I 9 W/m 11,2 C 10,3 C 12,9 km/h (3 Bft) 91,67 %
14.06.2018 05:33 11,7 C 22,8 C 97 % 1014,4 hPa 0,0 l/m 6,0 km/h (2 Bft) W 268 0 min 0,000 mm 0,0 UV-I 9 W/m 11,2 C 11,7 C 11,3 km/h (2 Bft) 100,00 %
14.06.2018 05:34 11,7 C 22,8 C 97 % 1014,4 hPa 0,0 l/m 10,9 km/h (2 Bft) W-SW 251 0 min 0,000 mm 0,0 UV-I 9 W/m 11,2 C 9,0 C 14,5 km/h (3 Bft) 100,00 %
14.06.2018 05:35 11,7 C 22,8 C 97 % 1014,3 hPa 0,0 l/m 8,2 km/h (2 Bft) W-SW 257 0 min 0,000 mm 0,0 UV-I 9 W/m 11,2 C 10,5 C 11,3 km/h (2 Bft) 95,65 %
14.06.2018 05:36 11,7 C 22,8 C 97 % 1014,4 hPa 0,0 l/m 8,7 km/h (2 Bft) SW 219 0 min 0,000 mm 0,0 UV-I 9 W/m 11,2 C 10,2 C 12,9 km/h (3 Bft) 100,00 %
14.06.2018 05:37 11,7 C 22,8 C 97 % 1014,4 hPa 0,0 l/m 8,7 km/h (2 Bft) W 259 0 min 0,000 mm 0,0 UV-I 9 W/m 11,2 C 10,2 C 12,9 km/h (3 Bft) 95,83 %
14.06.2018 05:38 11,7 C 22,8 C 97 % 1014,4 hPa 0,0 l/m 7,6 km/h (2 Bft) W-SW 244 0 min 0,000 mm 0,0 UV-I 9 W/m 11,2 C 10,9 C 11,3 km/h (2 Bft) 100,00 %
14.06.2018 05:39 11,7 C 22,8 C 97 % 1014,4 hPa 0,0 l/m 6,4 km/h (2 Bft) W-SW 257 0 min 0,000 mm 0,0 UV-I 9 W/m 11,2 C 11,7 C 9,7 km/h (2 Bft) 91,67 %
14.06.2018 05:40 11,7 C 22,8 C 96 % 1014,4 hPa 0,0 l/m 6,5 km/h (2 Bft) W-SW 254 0 min 0,000 mm 0,0 UV-I 10 W/m 11,1 C 11,7 C 11,3 km/h (2 Bft) 100,00 %
14.06.2018 05:41 11,7 C 22,8 C 97 % 1014,4 hPa 0,0 l/m 6,7 km/h (2 Bft) W 267 0 min 0,000 mm 0,0 UV-I 11 W/m 11,2 C 11,5 C 9,7 km/h (2 Bft) 100,00 %
14.06.2018 05:42 11,7 C 22,8 C 96 % 1014,4 hPa 0,0 l/m 4,8 km/h (1 Bft) SW 235 0 min 0,000 mm 0,0 UV-I 11 W/m 11,1 C 11,7 C 8,0 km/h (2 Bft) 100,00 %
14.06.2018 05:43 11,7 C 22,8 C 96 % 1014,4 hPa 0,0 l/m 7,2 km/h (2 Bft) SW 236 0 min 0,000 mm 0,0 UV-I 12 W/m 11,1 C 11,2 C 11,3 km/h (2 Bft) 100,00 %
14.06.2018 05:44 11,7 C 22,8 C 97 % 1014,4 hPa 0,0 l/m 6,3 km/h (2 Bft) W-SW 255 0 min 0,000 mm 0,0 UV-I 12 W/m 11,2 C 11,7 C 8,0 km/h (2 Bft) 100,00 %
14.06.2018 05:45 11,7 C 22,8 C 96 % 1014,4 hPa 0,0 l/m 6,2 km/h (2 Bft) SW 236 0 min 0,000 mm 0,0 UV-I 12 W/m 11,1 C 11,7 C 11,3 km/h (2 Bft) 95,83 %
14.06.2018 05:46 11,7 C 22,8 C 96 % 1014,4 hPa 0,0 l/m 8,5 km/h (2 Bft) SW 235 0 min 0,000 mm 0,0 UV-I 12 W/m 11,1 C 10,3 C 12,9 km/h (3 Bft) 95,65 %
14.06.2018 05:47 11,6 C 22,8 C 96 % 1014,4 hPa 0,0 l/m 5,6 km/h (1 Bft) SW 230 0 min 0,000 mm 0,0 UV-I 12 W/m 11,0 C 11,6 C 8,0 km/h (2 Bft) 95,83 %
14.06.2018 05:48 11,7 C 22,8 C 96 % 1014,4 hPa 0,0 l/m 6,1 km/h (2 Bft) S-SW 207 0 min 0,000 mm 0,0 UV-I 14 W/m 11,1 C 11,7 C 9,7 km/h (2 Bft) 100,00 %
14.06.2018 05:49 11,6 C 22,8 C 96 % 1014,4 hPa 0,0 l/m 5,8 km/h (2 Bft) S-SW 211 0 min 0,000 mm 0,0 UV-I 14 W/m 11,0 C 11,6 C 8,0 km/h (2 Bft) 100,00 %
14.06.2018 05:50 11,6 C 22,8 C 96 % 1014,4 hPa 0,0 l/m 6,9 km/h (2 Bft) SW 225 0 min 0,000 mm 0,0 UV-I 14 W/m 11,0 C 11,3 C 9,7 km/h (2 Bft) 100,00 %
14.06.2018 05:51 11,6 C 22,8 C 96 % 1014,4 hPa 0,0 l/m 7,2 km/h (2 Bft) S-SW 208 0 min 0,000 mm 0,0 UV-I 14 W/m 11,0 C 11,1 C 8,0 km/h (2 Bft) 100,00 %
14.06.2018 05:52 11,5 C 22,8 C 96 % 1014,4 hPa 0,0 l/m 7,6 km/h (2 Bft) SW 215 0 min 0,000 mm 0,0 UV-I 14 W/m 10,9 C 10,7 C 9,7 km/h (2 Bft) 95,65 %
14.06.2018 05:53 11,5 C 22,8 C 96 % 1014,4 hPa 0,0 l/m 7,2 km/h (2 Bft) S-SW 211 0 min 0,000 mm 0,0 UV-I 14 W/m 10,9 C 11,0 C 9,7 km/h (2 Bft) 100,00 %
14.06.2018 05:54 11,5 C 22,8 C 96 % 1014,4 hPa 0,0 l/m 6,9 km/h (2 Bft) S-SW 212 0 min 0,000 mm 0,0 UV-I 14 W/m 10,9 C 11,2 C 9,7 km/h (2 Bft) 91,30 %
14.06.2018 05:55 11,5 C 22,8 C 96 % 1014,5 hPa 0,0 l/m 7,4 km/h (2 Bft) SW 218 0 min 0,000 mm 0,0 UV-I 14 W/m 10,9 C 10,8 C 9,7 km/h (2 Bft) 100,00 %
14.06.2018 05:56 11,5 C 22,8 C 96 % 1014,5 hPa 0,0 l/m 6,8 km/h (2 Bft) S-SW 213 0 min 0,000 mm 0,0 UV-I 14 W/m 10,9 C 11,2 C 8,0 km/h (2 Bft) 100,00 %
14.06.2018 05:57 11,5 C 22,8 C 96 % 1014,4 hPa 0,0 l/m 4,0 km/h (1 Bft) S-SW 200 0 min 0,000 mm 0,0 UV-I 14 W/m 10,9 C 11,5 C 4,8 km/h (1 Bft) 100,00 %
14.06.2018 05:58 11,5 C 22,8 C 96 % 1014,4 hPa 0,0 l/m 7,1 km/h (2 Bft) SW 218 0 min 0,000 mm 0,0 UV-I 14 W/m 10,9 C 11,0 C 8,0 km/h (2 Bft) 95,83 %
14.06.2018 05:59 11,5 C 22,8 C 96 % 1014,4 hPa 0,0 l/m 6,5 km/h (2 Bft) SW 217 0 min 0,000 mm 0,0 UV-I 14 W/m 10,9 C 11,5 C 9,7 km/h (2 Bft) 95,65 %
14.06.2018 06:00 11,5 C 22,8 C 96 % 1014,4 hPa 0,0 l/m 6,9 km/h (2 Bft) SW 222 0 min 0,000 mm 0,0 UV-I 14 W/m 10,9 C 11,2 C 8,0 km/h (2 Bft) 100,00 %
14.06.2018 06:01 11,5 C 22,8 C 96 % 1014,4 hPa 0,0 l/m 6,9 km/h (2 Bft) SW 227 0 min 0,000 mm 0,0 UV-I 14 W/m 10,9 C 11,2 C 9,7 km/h (2 Bft) 91,30 %
14.06.2018 06:02 11,6 C 22,8 C 96 % 1014,4 hPa 0,0 l/m 5,2 km/h (1 Bft) SW 223 0 min 0,000 mm 0,0 UV-I 14 W/m 11,0 C 11,6 C 8,0 km/h (2 Bft) 100,00 %
14.06.2018 06:03 11,6 C 22,8 C 96 % 1014,4 hPa 0,0 l/m 4,5 km/h (1 Bft) S-SW 213 0 min 0,000 mm 0,0 UV-I 14 W/m 11,0 C 11,6 C 6,4 km/h (2 Bft) 95,65 %
14.06.2018 06:04 11,6 C 22,8 C 96 % 1014,5 hPa 0,0 l/m 4,7 km/h (1 Bft) SW 228 0 min 0,000 mm 0,0 UV-I 14 W/m 11,0 C 11,6 C 6,4 km/h (2 Bft) 95,83 %
14.06.2018 06:05 11,6 C 22,8 C 96 % 1014,5 hPa 0,0 l/m 5,1 km/h (1 Bft) SW 219 0 min 0,000 mm 0,0 UV-I 14 W/m 11,0 C 11,6 C 6,4 km/h (2 Bft) 100,00 %
14.06.2018 06:06 11,6 C 22,8 C 96 % 1014,5 hPa 0,0 l/m 3,4 km/h (1 Bft) SW 225 0 min 0,000 mm 0,0 UV-I 14 W/m 11,0 C 11,6 C 4,8 km/h (1 Bft) 100,00 %
14.06.2018 06:07 11,6 C 22,8 C 96 % 1014,5 hPa 0,0 l/m 3,3 km/h (1 Bft) SW 224 0 min 0,000 mm 0,0 UV-I 16 W/m 11,0 C 11,6 C 4,8 km/h (1 Bft) 91,30 %
14.06.2018 06:08 11,6 C 22,8 C 96 % 1014,5 hPa 0,0 l/m 3,6 km/h (1 Bft) SW 225 0 min 0,000 mm 0,0 UV-I 16 W/m 11,0 C 11,6 C 4,8 km/h (1 Bft) 100,00 %
14.06.2018 06:09 11,5 C 22,8 C 96 % 1014,5 hPa 0,0 l/m 3,0 km/h (1 Bft) SW 224 0 min 0,000 mm 0,0 UV-I 17 W/m 10,9 C 11,5 C 4,8 km/h (1 Bft) 95,65 %
14.06.2018 06:10 11,5 C 22,8 C 96 % 1014,5 hPa 0,0 l/m 4,8 km/h (1 Bft) SW 216 0 min 0,000 mm 0,0 UV-I 18 W/m 10,9 C 11,5 C 6,4 km/h (2 Bft) 100,00 %
14.06.2018 06:11 11,5 C 22,8 C 96 % 1014,5 hPa 0,0 l/m 4,8 km/h (1 Bft) S-SW 207 0 min 0,000 mm 0,0 UV-I 18 W/m 10,9 C 11,5 C 6,4 km/h (2 Bft) 91,30 %
14.06.2018 06:12 11,4 C 22,8 C 96 % 1014,5 hPa 0,0 l/m 5,4 km/h (1 Bft) SW 215 0 min 0,000 mm 0,0 UV-I 19 W/m 10,8 C 11,4 C 6,4 km/h (2 Bft) 92,59 %
14.06.2018 06:13 11,5 C 22,8 C 96 % 1014,5 hPa 0,0 l/m 3,5 km/h (1 Bft) S-SW 202 0 min 0,000 mm 0,0 UV-I 19 W/m 10,9 C 11,5 C 4,8 km/h (1 Bft) 95,65 %
14.06.2018 06:14 11,6 C 22,8 C 96 % 1014,5 hPa 0,0 l/m 4,0 km/h (1 Bft) S-SW 211 0 min 0,000 mm 0,0 UV-I 19 W/m 11,0 C 11,6 C 8,0 km/h (2 Bft) 91,67 %
14.06.2018 06:15 11,5 C 22,8 C 96 % 1014,5 hPa 0,0 l/m 4,1 km/h (1 Bft) S-SW 203 0 min 0,000 mm 0,0 UV-I 20 W/m 10,9 C 11,5 C 6,4 km/h (2 Bft) 100,00 %
14.06.2018 06:16 11,6 C 22,8 C 96 % 1014,5 hPa 0,0 l/m 5,5 km/h (1 Bft) SW 214 0 min 0,000 mm 0,0 UV-I 21 W/m 11,0 C 11,6 C 6,4 km/h (2 Bft) 91,67 %
14.06.2018 06:17 11,6 C 22,8 C 96 % 1014,5 hPa 0,0 l/m 3,2 km/h (1 Bft) SW 214 0 min 0,000 mm 0,0 UV-I 23 W/m 11,0 C 11,6 C 4,8 km/h (1 Bft) 91,30 %
14.06.2018 06:18 11,5 C 22,8 C 96 % 1014,5 hPa 0,0 l/m 3,6 km/h (1 Bft) S-SW 211 0 min 0,000 mm 0,0 UV-I 23 W/m 10,9 C 11,5 C 4,8 km/h (1 Bft) 95,83 %
14.06.2018 06:19 11,5 C 22,8 C 96 % 1014,4 hPa 0,0 l/m 3,4 km/h (1 Bft) S 188 0 min 0,000 mm 0,0 UV-I 24 W/m 10,9 C 11,5 C 6,4 km/h (2 Bft) 95,65 %
14.06.2018 06:20 11,5 C 22,8 C 96 % 1014,5 hPa 0,0 l/m 5,6 km/h (1 Bft) S-SW 198 0 min 0,000 mm 0,0 UV-I 25 W/m 10,9 C 11,5 C 8,0 km/h (2 Bft) 95,83 %
14.06.2018 06:21 11,5 C 22,8 C 96 % 1014,5 hPa 0,0 l/m 4,2 km/h (1 Bft) SW 215 0 min 0,000 mm 0,0 UV-I 26 W/m 10,9 C 11,5 C 4,8 km/h (1 Bft) 91,67 %
14.06.2018 06:22 11,5 C 22,8 C 96 % 1014,5 hPa 0,0 l/m 4,0 km/h (1 Bft) SW 215 0 min 0,000 mm 0,0 UV-I 26 W/m 10,9 C 11,5 C 4,8 km/h (1 Bft) 92,31 %
14.06.2018 06:23 11,5 C 22,8 C 96 % 1014,5 hPa 0,0 l/m 5,1 km/h (1 Bft) S-SW 210 0 min 0,000 mm 0,0 UV-I 26 W/m 10,9 C 11,5 C 6,4 km/h (2 Bft) 95,83 %
14.06.2018 06:24 11,6 C 22,8 C 96 % 1014,5 hPa 0,0 l/m 5,2 km/h (1 Bft) S-SW 212 0 min 0,000 mm 0,0 UV-I 26 W/m 11,0 C 11,6 C 6,4 km/h (2 Bft) 95,65 %
14.06.2018 06:25 11,6 C 22,8 C 96 % 1014,5 hPa 0,0 l/m 3,7 km/h (1 Bft) SW 231 0 min 0,000 mm 0,0 UV-I 26 W/m 11,0 C 11,6 C 4,8 km/h (1 Bft) 92,59 %
14.06.2018 06:26 11,6 C 22,8 C 96 % 1014,6 hPa 0,0 l/m 3,6 km/h (1 Bft) SW 231 0 min 0,000 mm 0,0 UV-I 25 W/m 11,0 C 11,6 C 4,8 km/h (1 Bft) 100,00 %
14.06.2018 06:27 11,6 C 22,8 C 96 % 1014,6 hPa 0,0 l/m 4,6 km/h (1 Bft) SW 218 0 min 0,000 mm 0,0 UV-I 25 W/m 11,0 C 11,6 C 6,4 km/h (2 Bft) 91,67 %
14.06.2018 06:28 11,7 C 22,8 C 97 % 1014,6 hPa 0,0 l/m 4,6 km/h (1 Bft) SW 217 0 min 0,000 mm 0,0 UV-I 26 W/m 11,2 C 11,7 C 6,4 km/h (2 Bft) 95,65 %
14.06.2018 06:29 11,7 C 22,8 C 97 % 1014,6 hPa 0,0 l/m 5,7 km/h (1 Bft) SW 215 0 min 0,000 mm 0,0 UV-I 26 W/m 11,2 C 11,7 C 8,0 km/h (2 Bft) 95,83 %
14.06.2018 06:30 11,6 C 22,8 C 96 % 1014,6 hPa 0,0 l/m 6,0 km/h (2 Bft) SW 217 0 min 0,000 mm 0,0 UV-I 26 W/m 11,0 C 11,6 C 8,0 km/h (2 Bft) 91,30 %
14.06.2018 06:31 11,6 C 22,8 C 96 % 1014,6 hPa 0,0 l/m 4,8 km/h (1 Bft) SW 216 0 min 0,000 mm 0,0 UV-I 29 W/m 11,0 C 11,6 C 8,0 km/h (2 Bft) 95,83 %
14.06.2018 06:32 11,6 C 22,8 C 96 % 1014,6 hPa 0,0 l/m 5,5 km/h (1 Bft) SW 221 0 min 0,000 mm 0,0 UV-I 30 W/m 11,0 C 11,6 C 9,7 km/h (2 Bft) 95,65 %
14.06.2018 06:33 11,6 C 22,8 C 96 % 1014,6 hPa 0,0 l/m 6,4 km/h (2 Bft) SW 226 0 min 0,000 mm 0,0 UV-I 30 W/m 11,0 C 11,6 C 8,0 km/h (2 Bft) 91,67 %
14.06.2018 06:34 11,6 C 22,8 C 97 % 1014,6 hPa 0,0 l/m 3,1 km/h (1 Bft) SW 227 0 min 0,000 mm 0,0 UV-I 32 W/m 11,1 C 11,6 C 4,8 km/h (1 Bft) 91,30 %
14.06.2018 06:35 11,6 C 22,8 C 97 % 1014,6 hPa 0,0 l/m 5,1 km/h (1 Bft) SW 234 0 min 0,000 mm 0,0 UV-I 33 W/m 11,1 C 11,6 C 6,4 km/h (2 Bft) 100,00 %
14.06.2018 06:36 11,6 C 22,8 C 97 % 1014,5 hPa 0,0 l/m 4,1 km/h (1 Bft) SW 227 0 min 0,000 mm 0,0 UV-I 34 W/m 11,1 C 11,6 C 6,4 km/h (2 Bft) 87,50 %
14.06.2018 06:37 11,6 C 22,8 C 97 % 1014,5 hPa 0,0 l/m 5,2 km/h (1 Bft) SW 227 0 min 0,000 mm 0,0 UV-I 38 W/m 11,1 C 11,6 C 6,4 km/h (2 Bft) 95,65 %
14.06.2018 06:38 11,7 C 22,8 C 97 % 1014,6 hPa 0,0 l/m 7,0 km/h (2 Bft) SW 225 0 min 0,000 mm 0,0 UV-I 39 W/m 11,2 C 11,3 C 8,0 km/h (2 Bft) 96,30 %
14.06.2018 06:39 11,6 C 22,8 C 96 % 1014,6 hPa 0,0 l/m 5,7 km/h (1 Bft) SW 229 0 min 0,000 mm 0,0 UV-I 41 W/m 11,0 C 11,6 C 8,0 km/h (2 Bft) 85,71 %
14.06.2018 06:40 11,6 C 22,8 C 96 % 1014,6 hPa 0,0 l/m 5,4 km/h (1 Bft) SW 216 0 min 0,000 mm 0,0 UV-I 44 W/m 11,0 C 11,6 C 8,0 km/h (2 Bft) 95,83 %
14.06.2018 06:41 11,6 C 22,8 C 96 % 1014,6 hPa 0,0 l/m 3,7 km/h (1 Bft) SW 218 0 min 0,000 mm 0,0 UV-I 46 W/m 11,0 C 11,6 C 6,4 km/h (2 Bft) 95,65 %
14.06.2018 06:42 11,6 C 22,8 C 96 % 1014,6 hPa 0,0 l/m 7,1 km/h (2 Bft) SW 225 0 min 0,000 mm 0,0 UV-I 48 W/m 11,0 C 11,1 C 9,7 km/h (2 Bft) 95,83 %
14.06.2018 06:43 11,6 C 22,8 C 96 % 1014,6 hPa 0,0 l/m 5,3 km/h (1 Bft) SW 221 0 min 0,000 mm 0,0 UV-I 50 W/m 11,0 C 11,6 C 6,4 km/h (2 Bft) 100,00 %
14.06.2018 06:44 11,7 C 22,8 C 97 % 1014,6 hPa 0,0 l/m 5,3 km/h (1 Bft) SW 219 0 min 0,000 mm 0,0 UV-I 53 W/m 11,2 C 11,7 C 6,4 km/h (2 Bft) 95,83 %
14.06.2018 06:45 11,7 C 22,8 C 97 % 1014,7 hPa 0,0 l/m 7,7 km/h (2 Bft) S-SW 207 0 min 0,000 mm 0,0 UV-I 57 W/m 11,2 C 10,8 C 9,7 km/h (2 Bft) 100,00 %
14.06.2018 06:46 11,6 C 22,8 C 97 % 1014,6 hPa 0,0 l/m 5,2 km/h (1 Bft) S-SW 206 0 min 0,000 mm 0,0 UV-I 62 W/m 11,1 C 11,6 C 8,0 km/h (2 Bft) 95,83 %
14.06.2018 06:47 11,7 C 22,8 C 97 % 1014,6 hPa 0,0 l/m 4,3 km/h (1 Bft) S-SW 201 0 min 0,000 mm 0,0 UV-I 66 W/m 11,2 C 11,7 C 6,4 km/h (2 Bft) 95,65 %
14.06.2018 06:48 11,7 C 22,8 C 97 % 1014,7 hPa 0,0 l/m 5,3 km/h (1 Bft) SW 215 0 min 0,000 mm 0,0 UV-I 69 W/m 11,2 C 11,7 C 9,7 km/h (2 Bft) 100,00 %
14.06.2018 06:49 11,7 C 22,8 C 97 % 1014,7 hPa 0,0 l/m 8,0 km/h (2 Bft) SW 217 0 min 0,000 mm 0,0 UV-I 71 W/m 11,2 C 10,6 C 11,3 km/h (2 Bft) 91,30 %
14.06.2018 06:50 11,7 C 22,8 C 97 % 1014,6 hPa 0,0 l/m 5,0 km/h (1 Bft) S-SW 211 0 min 0,000 mm 0,0 UV-I 73 W/m 11,2 C 11,7 C 9,7 km/h (2 Bft) 95,83 %
14.06.2018 06:51 11,7 C 22,8 C 96 % 1014,6 hPa 0,0 l/m 6,1 km/h (2 Bft) SW 214 0 min 0,000 mm 0,0 UV-I 74 W/m 11,1 C 11,7 C 9,7 km/h (2 Bft) 96,15 %
14.06.2018 06:52 11,7 C 22,8 C 96 % 1014,6 hPa 0,0 l/m 4,2 km/h (1 Bft) SW 223 0 min 0,000 mm 0,0 UV-I 80 W/m 11,1 C 11,7 C 6,4 km/h (2 Bft) 100,00 %
14.06.2018 06:53 11,7 C 22,8 C 97 % 1014,6 hPa 0,0 l/m 3,2 km/h (1 Bft) SW 216 0 min 0,000 mm 0,0 UV-I 84 W/m 11,2 C 11,7 C 4,8 km/h (1 Bft) 91,30 %
14.06.2018 06:54 11,7 C 22,8 C 97 % 1014,6 hPa 0,0 l/m 4,3 km/h (1 Bft) SW 225 0 min 0,000 mm 0,0 UV-I 84 W/m 11,2 C 11,7 C 6,4 km/h (2 Bft) 100,00 %
14.06.2018 06:55 11,7 C 22,8 C 97 % 1014,6 hPa 0,0 l/m 6,0 km/h (2 Bft) SW 219 0 min 0,000 mm 0,0 UV-I 82 W/m 11,2 C 11,7 C 11,3 km/h (2 Bft) 95,65 %
14.06.2018 06:56 11,8 C 22,8 C 97 % 1014,6 hPa 0,0 l/m 6,0 km/h (2 Bft) S-SW 209 0 min 0,000 mm 0,0 UV-I 80 W/m 11,3 C 11,8 C 9,7 km/h (2 Bft) 95,83 %
14.06.2018 06:57 11,7 C 22,8 C 97 % 1014,6 hPa 0,0 l/m 7,1 km/h (2 Bft) SW 216 0 min 0,000 mm 0,0 UV-I 77 W/m 11,2 C 11,2 C 8,0 km/h (2 Bft) 100,00 %
14.06.2018 06:58 11,7 C 22,8 C 97 % 1014,7 hPa 0,0 l/m 4,2 km/h (1 Bft) S-SW 205 0 min 0,000 mm 0,0 UV-I 72 W/m 11,2 C 11,7 C 6,4 km/h (2 Bft) 100,00 %
14.06.2018 06:59 11,8 C 22,8 C 97 % 1014,7 hPa 0,0 l/m 4,9 km/h (1 Bft) S-SW 196 0 min 0,000 mm 0,0 UV-I 68 W/m 11,3 C 11,8 C 8,0 km/h (2 Bft) 95,83 %
14.06.2018 07:00 11,7 C 22,8 C 97 % 1014,7 hPa 0,0 l/m 4,8 km/h (1 Bft) S-SW 209 0 min 0,025 mm 0,0 UV-I 61 W/m 11,2 C 11,7 C 8,0 km/h (2 Bft) 95,65 %
14.06.2018 07:01 11,7 C 22,8 C 96 % 1014,7 hPa 0,0 l/m 5,1 km/h (1 Bft) SW 233 0 min 0,000 mm 0,0 UV-I 56 W/m 11,1 C 11,7 C 8,0 km/h (2 Bft) 100,00 %
14.06.2018 07:02 11,8 C 22,8 C 96 % 1014,7 hPa 0,0 l/m 6,0 km/h (2 Bft) S 186 0 min 0,000 mm 0,0 UV-I 50 W/m 11,2 C 11,8 C 9,7 km/h (2 Bft) 95,65 %
14.06.2018 07:03 11,8 C 22,8 C 96 % 1014,7 hPa 0,0 l/m 3,4 km/h (1 Bft) S-SW 205 0 min 0,000 mm 0,0 UV-I 45 W/m 11,2 C 11,8 C 4,8 km/h (1 Bft) 100,00 %
14.06.2018 07:04 11,8 C 22,8 C 96 % 1014,7 hPa 0,0 l/m 5,8 km/h (2 Bft) SW 222 0 min 0,000 mm 0,0 UV-I 42 W/m 11,2 C 11,8 C 9,7 km/h (2 Bft) 95,65 %
14.06.2018 07:05 11,8 C 22,8 C 96 % 1014,7 hPa 0,0 l/m 7,3 km/h (2 Bft) S-SW 208 0 min 0,000 mm 0,0 UV-I 40 W/m 11,2 C 11,2 C 9,7 km/h (2 Bft) 100,00 %
14.06.2018 07:06 11,8 C 22,8 C 96 % 1014,7 hPa 0,0 l/m 5,5 km/h (1 Bft) SW 215 0 min 0,000 mm 0,0 UV-I 40 W/m 11,2 C 11,8 C 8,0 km/h (2 Bft) 91,30 %
14.06.2018 07:07 11,8 C 22,8 C 96 % 1014,7 hPa 0,0 l/m 7,6 km/h (2 Bft) S-SW 200 0 min 0,000 mm 0,0 UV-I 40 W/m 11,2 C 11,0 C 11,3 km/h (2 Bft) 100,00 %
14.06.2018 07:08 11,9 C 22,8 C 96 % 1014,7 hPa 0,0 l/m 6,4 km/h (2 Bft) W-SW 249 0 min 0,000 mm 0,0 UV-I 41 W/m 11,3 C 11,9 C 9,7 km/h (2 Bft) 95,65 %
14.06.2018 07:09 11,9 C 22,8 C 96 % 1014,7 hPa 0,0 l/m 5,7 km/h (1 Bft) SW 229 0 min 0,000 mm 0,0 UV-I 42 W/m 11,3 C 11,9 C 8,0 km/h (2 Bft) 100,00 %
14.06.2018 07:10 11,9 C 22,8 C 96 % 1014,7 hPa 0,0 l/m 5,3 km/h (1 Bft) S-SW 205 0 min 0,000 mm 0,0 UV-I 42 W/m 11,3 C 11,9 C 6,4 km/h (2 Bft) 95,83 %
14.06.2018 07:11 11,9 C 22,8 C 96 % 1014,7 hPa 0,0 l/m 3,4 km/h (1 Bft) SW 217 0 min 0,000 mm 0,0 UV-I 44 W/m 11,3 C 11,9 C 6,4 km/h (2 Bft) 100,00 %
14.06.2018 07:12 11,9 C 22,8 C 96 % 1014,7 hPa 0,0 l/m 6,2 km/h (2 Bft) S-SW 211 0 min 0,000 mm 0,0 UV-I 46 W/m 11,3 C 11,9 C 8,0 km/h (2 Bft) 100,00 %
14.06.2018 07:13 11,9 C 22,8 C 96 % 1014,7 hPa 0,0 l/m 6,2 km/h (2 Bft) SW 236 0 min 0,000 mm 0,0 UV-I 47 W/m 11,3 C 11,9 C 8,0 km/h (2 Bft) 100,00 %
14.06.2018 07:14 11,9 C 22,8 C 96 % 1014,7 hPa 0,0 l/m 6,4 km/h (2 Bft) W-SW 242 0 min 0,000 mm 0,0 UV-I 47 W/m 11,3 C 11,9 C 9,7 km/h (2 Bft) 100,00 %
14.06.2018 07:15 11,9 C 22,8 C 96 % 1014,8 hPa 0,0 l/m 4,3 km/h (1 Bft) SW 228 0 min 0,000 mm 0,0 UV-I 47 W/m 11,3 C 11,9 C 6,4 km/h (2 Bft) 100,00 %
14.06.2018 07:16 11,9 C 22,8 C 96 % 1014,7 hPa 0,0 l/m 3,4 km/h (1 Bft) W-SW 255 0 min 0,000 mm 0,0 UV-I 47 W/m 11,3 C 11,9 C 6,4 km/h (2 Bft) 100,00 %
14.06.2018 07:17 11,9 C 22,8 C 96 % 1014,8 hPa 0,0 l/m 6,0 km/h (2 Bft) SW 228 0 min 0,000 mm 0,0 UV-I 48 W/m 11,3 C 11,9 C 8,0 km/h (2 Bft) 100,00 %
14.06.2018 07:18 11,9 C 22,8 C 96 % 1014,8 hPa 0,0 l/m 7,0 km/h (2 Bft) W-SW 240 0 min 0,000 mm 0,0 UV-I 50 W/m 11,3 C 11,5 C 9,7 km/h (2 Bft) 100,00 %
14.06.2018 07:19 11,9 C 22,8 C 96 % 1014,7 hPa 0,0 l/m 6,2 km/h (2 Bft) S-SW 211 0 min 0,000 mm 0,0 UV-I 52 W/m 11,3 C 11,9 C 9,7 km/h (2 Bft) 100,00 %
14.06.2018 07:20 11,9 C 22,8 C 96 % 1014,7 hPa 0,0 l/m 6,2 km/h (2 Bft) SW 227 0 min 0,000 mm 0,0 UV-I 54 W/m 11,3 C 11,9 C 8,0 km/h (2 Bft) 100,00 %
14.06.2018 07:21 11,9 C 22,8 C 96 % 1014,7 hPa 0,0 l/m 6,6 km/h (2 Bft) W-SW 252 0 min 0,000 mm 0,0 UV-I 58 W/m 11,3 C 11,8 C 9,7 km/h (2 Bft) 95,65 %
14.06.2018 07:22 11,9 C 22,8 C 96 % 1014,8 hPa 0,0 l/m 6,2 km/h (2 Bft) SW 231 0 min 0,000 mm 0,0 UV-I 60 W/m 11,3 C 11,9 C 8,0 km/h (2 Bft) 100,00 %
14.06.2018 07:23 11,9 C 22,8 C 96 % 1014,8 hPa 0,0 l/m 4,8 km/h (1 Bft) SW 229 0 min 0,000 mm 0,0 UV-I 61 W/m 11,3 C 11,9 C 8,0 km/h (2 Bft) 100,00 %
14.06.2018 07:24 11,9 C 22,8 C 96 % 1014,8 hPa 0,0 l/m 5,0 km/h (1 Bft) W-SW 240 0 min 0,000 mm 0,0 UV-I 62 W/m 11,3 C 11,9 C 8,0 km/h (2 Bft) 95,83 %
14.06.2018 07:25 11,9 C 22,8 C 96 % 1014,8 hPa 0,0 l/m 7,5 km/h (2 Bft) SW 214 0 min 0,000 mm 0,0 UV-I 63 W/m 11,3 C 11,2 C 9,7 km/h (2 Bft) 100,00 %
14.06.2018 07:26 11,9 C 22,8 C 96 % 1014,8 hPa 0,0 l/m 7,6 km/h (2 Bft) W-SW 257 0 min 0,000 mm 0,0 UV-I 64 W/m 11,3 C 11,1 C 12,9 km/h (3 Bft) 100,00 %
14.06.2018 07:27 11,9 C 22,8 C 96 % 1014,8 hPa 0,0 l/m 6,1 km/h (2 Bft) S-SW 206 0 min 0,000 mm 0,0 UV-I 65 W/m 11,3 C 11,9 C 9,7 km/h (2 Bft) 95,65 %
14.06.2018 07:28 11,9 C 22,8 C 96 % 1014,8 hPa 0,0 l/m 6,3 km/h (2 Bft) W-SW 255 0 min 0,000 mm 0,0 UV-I 63 W/m 11,3 C 11,9 C 8,0 km/h (2 Bft) 100,00 %
14.06.2018 07:29 11,9 C 22,8 C 96 % 1014,8 hPa 0,0 l/m 6,3 km/h (2 Bft) SW 214 0 min 0,000 mm 0,0 UV-I 63 W/m 11,3 C 11,9 C 8,0 km/h (2 Bft) 95,65 %
14.06.2018 07:30 11,9 C 22,8 C 96 % 1014,8 hPa 0,0 l/m 5,8 km/h (2 Bft) W-SW 242 0 min 0,000 mm 0,0 UV-I 64 W/m 11,3 C 11,9 C 8,0 km/h (2 Bft) 100,00 %
14.06.2018 07:31 12,0 C 22,8 C 96 % 1014,8 hPa 0,0 l/m 3,9 km/h (1 Bft) SW 215 0 min 0,000 mm 0,0 UV-I 66 W/m 11,4 C 12,0 C 8,0 km/h (2 Bft) 100,00 %
14.06.2018 07:32 12,0 C 22,8 C 96 % 1014,8 hPa 0,0 l/m 6,8 km/h (2 Bft) SW 225 0 min 0,000 mm 0,0 UV-I 69 W/m 11,4 C 11,7 C 11,3 km/h (2 Bft) 100,00 %
14.06.2018 07:33 12,0 C 22,8 C 96 % 1014,8 hPa 0,0 l/m 7,1 km/h (2 Bft) S-SW 211 0 min 0,000 mm 0,0 UV-I 70 W/m 11,4 C 11,5 C 9,7 km/h (2 Bft) 100,00 %
14.06.2018 07:34 12,0 C 22,8 C 96 % 1014,8 hPa 0,0 l/m 6,3 km/h (2 Bft) W-SW 240 0 min 0,000 mm 0,0 UV-I 70 W/m 11,4 C 12,0 C 8,0 km/h (2 Bft) 100,00 %
14.06.2018 07:35 12,0 C 22,8 C 96 % 1014,9 hPa 0,0 l/m 8,7 km/h (2 Bft) W-SW 238 0 min 0,000 mm 0,0 UV-I 66 W/m 11,4 C 10,5 C 12,9 km/h (3 Bft) 95,65 %
14.06.2018 07:36 12,0 C 22,8 C 96 % 1015,0 hPa 0,0 l/m 8,2 km/h (2 Bft) S-SW 212 0 min 0,000 mm 0,0 UV-I 61 W/m 11,4 C 10,8 C 11,3 km/h (2 Bft) 100,00 %
14.06.2018 07:37 12,0 C 22,8 C 96 % 1014,9 hPa 0,0 l/m 8,9 km/h (2 Bft) S-SW 207 0 min 0,000 mm 0,0 UV-I 56 W/m 11,4 C 10,4 C 14,5 km/h (3 Bft) 100,00 %
14.06.2018 07:38 12,0 C 22,8 C 96 % 1014,9 hPa 0,0 l/m 7,2 km/h (2 Bft) SW 224 0 min 0,000 mm 0,0 UV-I 53 W/m 11,4 C 11,5 C 11,3 km/h (2 Bft) 86,96 %
14.06.2018 07:39 11,9 C 22,8 C 96 % 1015,0 hPa 0,0 l/m 4,4 km/h (1 Bft) SW 229 0 min 0,000 mm 0,0 UV-I 51 W/m 11,3 C 11,9 C 6,4 km/h (2 Bft) 100,00 %
14.06.2018 07:40 11,9 C 22,8 C 96 % 1014,9 hPa 0,0 l/m 8,1 km/h (2 Bft) SW 235 0 min 0,000 mm 0,0 UV-I 49 W/m 11,3 C 10,8 C 11,3 km/h (2 Bft) 100,00 %
14.06.2018 07:41 12,0 C 22,8 C 96 % 1015,0 hPa 0,0 l/m 7,0 km/h (2 Bft) SW 232 0 min 0,000 mm 0,0 UV-I 49 W/m 11,4 C 11,6 C 9,7 km/h (2 Bft) 100,00 %
14.06.2018 07:42 12,1 C 22,8 C 96 % 1015,0 hPa 0,0 l/m 6,8 km/h (2 Bft) S 188 0 min 0,000 mm 0,0 UV-I 49 W/m 11,5 C 11,8 C 9,7 km/h (2 Bft) 100,00 %
14.06.2018 07:43 12,0 C 22,8 C 96 % 1015,0 hPa 0,0 l/m 4,3 km/h (1 Bft) S-SW 207 0 min 0,000 mm 0,0 UV-I 49 W/m 11,4 C 12,0 C 6,4 km/h (2 Bft) 100,00 %
14.06.2018 07:44 11,9 C 22,8 C 96 % 1015,0 hPa 0,0 l/m 3,4 km/h (1 Bft) S-SW 209 0 min 0,000 mm 0,0 UV-I 49 W/m 11,3 C 11,9 C 6,4 km/h (2 Bft) 95,65 %
14.06.2018 07:45 11,9 C 22,8 C 96 % 1015,0 hPa 0,0 l/m 5,2 km/h (1 Bft) S-SW 210 0 min 0,000 mm 0,0 UV-I 49 W/m 11,3 C 11,9 C 9,7 km/h (2 Bft) 100,00 %
14.06.2018 07:46 11,9 C 22,8 C 96 % 1015,0 hPa 0,0 l/m 5,7 km/h (1 Bft) SW 221 0 min 0,000 mm 0,0 UV-I 47 W/m 11,3 C 11,9 C 8,0 km/h (2 Bft) 100,00 %
14.06.2018 07:47 11,9 C 22,8 C 96 % 1015,0 hPa 0,0 l/m 4,4 km/h (1 Bft) SW 222 0 min 0,000 mm 0,0 UV-I 48 W/m 11,3 C 11,9 C 4,8 km/h (1 Bft) 100,00 %
14.06.2018 07:48 11,9 C 22,8 C 96 % 1015,0 hPa 0,0 l/m 9,1 km/h (2 Bft) SW 215 0 min 0,000 mm 0,0 UV-I 49 W/m 11,3 C 10,2 C 11,3 km/h (2 Bft) 95,65 %
14.06.2018 07:49 11,9 C 22,8 C 96 % 1015,0 hPa 0,0 l/m 7,0 km/h (2 Bft) SW 224 0 min 0,000 mm 0,0 UV-I 50 W/m 11,3 C 11,5 C 9,7 km/h (2 Bft) 95,83 %
14.06.2018 07:50 11,9 C 22,8 C 96 % 1015,0 hPa 0,0 l/m 4,5 km/h (1 Bft) SW 217 0 min 0,000 mm 0,0 UV-I 53 W/m 11,3 C 11,9 C 8,0 km/h (2 Bft) 95,65 %
14.06.2018 07:51 11,9 C 22,8 C 96 % 1015,0 hPa 0,0 l/m 8,2 km/h (2 Bft) SW 216 0 min 0,000 mm 0,0 UV-I 54 W/m 11,3 C 10,7 C 9,7 km/h (2 Bft) 100,00 %
14.06.2018 07:52 11,9 C 22,8 C 96 % 1015,0 hPa 0,0 l/m 5,9 km/h (2 Bft) W-SW 240 0 min 0,000 mm 0,0 UV-I 54 W/m 11,3 C 11,9 C 8,0 km/h (2 Bft) 100,00 %
14.06.2018 07:53 12,0 C 22,8 C 96 % 1015,0 hPa 0,0 l/m 5,6 km/h (1 Bft) SW 224 0 min 0,000 mm 0,0 UV-I 54 W/m 11,4 C 12,0 C 8,0 km/h (2 Bft) 100,00 %
14.06.2018 07:54 12,0 C 22,8 C 96 % 1015,0 hPa 0,0 l/m 6,9 km/h (2 Bft) SW 221 0 min 0,000 mm 0,0 UV-I 55 W/m 11,4 C 11,7 C 8,0 km/h (2 Bft) 100,00 %
14.06.2018 07:55 12,0 C 22,8 C 96 % 1014,9 hPa 0,0 l/m 4,8 km/h (1 Bft) SW 232 0 min 0,000 mm 0,0 UV-I 57 W/m 11,4 C 12,0 C 8,0 km/h (2 Bft) 95,65 %
14.06.2018 07:56 12,1 C 22,8 C 96 % 1014,9 hPa 0,0 l/m 3,8 km/h (1 Bft) SW 235 0 min 0,000 mm 0,0 UV-I 61 W/m 11,5 C 12,1 C 6,4 km/h (2 Bft) 100,00 %
14.06.2018 07:57 12,1 C 22,8 C 96 % 1014,9 hPa 0,0 l/m 5,4 km/h (1 Bft) SW 226 0 min 0,000 mm 0,0 UV-I 67 W/m 11,5 C 12,1 C 8,0 km/h (2 Bft) 100,00 %
14.06.2018 07:58 12,1 C 22,8 C 96 % 1014,9 hPa 0,0 l/m 5,2 km/h (1 Bft) SW 233 0 min 0,000 mm 0,0 UV-I 72 W/m 11,5 C 12,1 C 8,0 km/h (2 Bft) 100,00 %
14.06.2018 07:59 12,1 C 22,8 C 96 % 1014,9 hPa 0,0 l/m 6,0 km/h (2 Bft) SW 232 0 min 0,000 mm 0,0 UV-I 77 W/m 11,5 C 12,1 C 8,0 km/h (2 Bft) 91,30 %
14.06.2018 08:00 12,1 C 22,8 C 96 % 1014,9 hPa 0,0 l/m 5,1 km/h (1 Bft) SW 236 0 min 0,026 mm 0,0 UV-I 79 W/m 11,5 C 12,1 C 6,4 km/h (2 Bft) 100,00 %
14.06.2018 08:01 12,1 C 22,8 C 96 % 1014,9 hPa 0,0 l/m 7,6 km/h (2 Bft) S-SW 209 0 min 0,000 mm 0,0 UV-I 79 W/m 11,5 C 11,3 C 11,3 km/h (2 Bft) 95,65 %
14.06.2018 08:02 12,1 C 22,8 C 96 % 1014,9 hPa 0,0 l/m 6,6 km/h (2 Bft) W-SW 248 0 min 0,000 mm 0,0 UV-I 76 W/m 11,5 C 12,0 C 11,3 km/h (2 Bft) 100,00 %
14.06.2018 08:03 12,1 C 22,8 C 96 % 1014,9 hPa 0,0 l/m 8,4 km/h (2 Bft) W-SW 243 0 min 0,000 mm 0,0 UV-I 74 W/m 11,5 C 10,8 C 14,5 km/h (3 Bft) 100,00 %
14.06.2018 08:04 12,1 C 22,8 C 96 % 1015,0 hPa 0,0 l/m 8,2 km/h (2 Bft) S-SW 211 0 min 0,000 mm 0,0 UV-I 71 W/m 11,5 C 10,9 C 12,9 km/h (3 Bft) 100,00 %
14.06.2018 08:05 12,0 C 22,8 C 96 % 1015,0 hPa 0,0 l/m 8,0 km/h (2 Bft) SW 236 0 min 0,000 mm 0,0 UV-I 70 W/m 11,4 C 11,0 C 9,7 km/h (2 Bft) 100,00 %
14.06.2018 08:06 12,0 C 22,8 C 96 % 1015,0 hPa 0,0 l/m 6,3 km/h (2 Bft) SW 227 0 min 0,000 mm 0,0 UV-I 69 W/m 11,4 C 12,0 C 8,0 km/h (2 Bft) 100,00 %
14.06.2018 08:07 12,0 C 22,8 C 95 % 1015,0 hPa 0,0 l/m 6,4 km/h (2 Bft) W-SW 241 0 min 0,000 mm 0,0 UV-I 68 W/m 11,2 C 12,0 C 11,3 km/h (2 Bft) 100,00 %
14.06.2018 08:08 12,0 C 22,8 C 95 % 1015,0 hPa 0,0 l/m 6,1 km/h (2 Bft) SW 224 0 min 0,000 mm 0,0 UV-I 65 W/m 11,2 C 12,0 C 8,0 km/h (2 Bft) 100,00 %
14.06.2018 08:09 12,1 C 22,8 C 95 % 1015,0 hPa 0,0 l/m 7,6 km/h (2 Bft) S-SW 196 0 min 0,000 mm 0,0 UV-I 65 W/m 11,3 C 11,3 C 11,3 km/h (2 Bft) 95,83 %
14.06.2018 08:10 12,1 C 22,8 C 95 % 1015,0 hPa 0,0 l/m 6,0 km/h (2 Bft) SW 217 0 min 0,000 mm 0,0 UV-I 63 W/m 11,3 C 12,1 C 8,0 km/h (2 Bft) 95,65 %
14.06.2018 08:11 12,0 C 22,8 C 95 % 1015,0 hPa 0,0 l/m 5,8 km/h (2 Bft) W-SW 242 0 min 0,000 mm 0,0 UV-I 63 W/m 11,2 C 12,0 C 8,0 km/h (2 Bft) 95,83 %
14.06.2018 08:12 12,0 C 22,8 C 95 % 1015,0 hPa 0,0 l/m 7,8 km/h (2 Bft) SW 232 0 min 0,000 mm 0,0 UV-I 63 W/m 11,2 C 11,1 C 11,3 km/h (2 Bft) 95,65 %
14.06.2018 08:13 12,1 C 22,8 C 95 % 1015,0 hPa 0,0 l/m 4,7 km/h (1 Bft) S-SW 207 0 min 0,000 mm 0,0 UV-I 63 W/m 11,3 C 12,1 C 8,0 km/h (2 Bft) 100,00 %
14.06.2018 08:14 12,0 C 22,8 C 95 % 1015,0 hPa 0,0 l/m 6,4 km/h (2 Bft) SW 229 0 min 0,000 mm 0,0 UV-I 63 W/m 11,2 C 12,0 C 8,0 km/h (2 Bft) 96,15 %
14.06.2018 08:15 12,0 C 22,8 C 95 % 1015,1 hPa 0,0 l/m 6,8 km/h (2 Bft) W-SW 245 0 min 0,000 mm 0,0 UV-I 63 W/m 11,2 C 11,7 C 12,9 km/h (3 Bft) 100,00 %
14.06.2018 08:16 12,1 C 22,2 C 95 % 1015,1 hPa 0,0 l/m 4,9 km/h (1 Bft) SW 235 0 min 0,000 mm 0,0 UV-I 62 W/m 11,3 C 12,1 C 6,4 km/h (2 Bft) 94,12 %
14.06.2018 08:17 12,1 C 22,2 C 95 % 1015,1 hPa 0,0 l/m 6,4 km/h (2 Bft) S 189 0 min 0,000 mm 0,0 UV-I 62 W/m 11,3 C 12,1 C 9,7 km/h (2 Bft) 100,00 %
14.06.2018 08:18 12,0 C 22,2 C 95 % 1015,1 hPa 0,0 l/m 7,2 km/h (2 Bft) SW 223 0 min 0,000 mm 0,0 UV-I 62 W/m 11,2 C 11,5 C 11,3 km/h (2 Bft) 95,65 %
14.06.2018 08:19 12,0 C 22,2 C 95 % 1015,1 hPa 0,0 l/m 6,8 km/h (2 Bft) SW 232 0 min 0,000 mm 0,0 UV-I 62 W/m 11,2 C 11,7 C 8,0 km/h (2 Bft) 100,00 %
14.06.2018 08:20 12,1 C 22,2 C 95 % 1015,1 hPa 0,0 l/m 5,9 km/h (2 Bft) S-SW 205 0 min 0,000 mm 0,0 UV-I 63 W/m 11,3 C 12,1 C 8,0 km/h (2 Bft) 95,65 %
14.06.2018 08:21 12,1 C 22,2 C 95 % 1015,1 hPa 0,0 l/m 5,3 km/h (1 Bft) SW 228 0 min 0,000 mm 0,0 UV-I 65 W/m 11,3 C 12,1 C 8,0 km/h (2 Bft) 95,83 %
14.06.2018 08:22 12,1 C 22,2 C 95 % 1015,1 hPa 0,0 l/m 5,8 km/h (2 Bft) SW 227 0 min 0,000 mm 0,0 UV-I 65 W/m 11,3 C 12,1 C 8,0 km/h (2 Bft) 95,65 %
14.06.2018 08:23 12,1 C 22,2 C 95 % 1015,1 hPa 0,0 l/m 6,9 km/h (2 Bft) S-SW 213 0 min 0,000 mm 0,0 UV-I 65 W/m 11,3 C 11,8 C 8,0 km/h (2 Bft) 95,83 %
14.06.2018 08:24 12,0 C 22,2 C 95 % 1015,1 hPa 0,0 l/m 7,3 km/h (2 Bft) SW 225 0 min 0,000 mm 0,0 UV-I 65 W/m 11,2 C 11,4 C 9,7 km/h (2 Bft) 100,00 %
14.06.2018 08:25 12,1 C 22,2 C 95 % 1015,1 hPa 0,0 l/m 5,0 km/h (1 Bft) SW 220 0 min 0,000 mm 0,0 UV-I 65 W/m 11,3 C 12,1 C 8,0 km/h (2 Bft) 95,83 %
14.06.2018 08:26 12,0 C 22,2 C 95 % 1015,0 hPa 0,0 l/m 8,9 km/h (2 Bft) SW 227 0 min 0,000 mm 0,0 UV-I 65 W/m 11,2 C 10,4 C 12,9 km/h (3 Bft) 100,00 %
14.06.2018 08:27 11,9 C 22,2 C 95 % 1015,0 hPa 0,0 l/m 8,9 km/h (2 Bft) W-SW 251 0 min 0,000 mm 0,0 UV-I 69 W/m 11,1 C 10,3 C 12,9 km/h (3 Bft) 95,83 %
14.06.2018 08:28 11,9 C 22,2 C 95 % 1015,0 hPa 0,0 l/m 10,1 km/h (2 Bft) SW 219 0 min 0,000 mm 0,0 UV-I 72 W/m 11,1 C 9,6 C 12,9 km/h (3 Bft) 100,00 %
14.06.2018 08:29 11,9 C 22,2 C 95 % 1015,1 hPa 0,0 l/m 6,2 km/h (2 Bft) S-SW 211 0 min 0,000 mm 0,0 UV-I 76 W/m 11,1 C 11,9 C 8,0 km/h (2 Bft) 95,65 %
14.06.2018 08:30 12,0 C 22,2 C 95 % 1015,0 hPa 0,0 l/m 4,6 km/h (1 Bft) S-SW 192 0 min 0,000 mm 0,0 UV-I 82 W/m 11,2 C 12,0 C 11,3 km/h (2 Bft) 95,83 %
14.06.2018 08:35 12,1 C 22,2 C 95 % 1015,0 hPa 0,0 l/m 6,4 km/h (2 Bft) SW 225 0 min 0,000 mm 0,5 UV-I 101 W/m 11,3 C 12,1 C 11,3 km/h (2 Bft) 100,00 %
14.06.2018 08:37 12,3 C 22,2 C 95 % 1015,0 hPa 0,0 l/m 5,6 km/h (1 Bft) S-SW 198 0 min 0,000 mm 0,6 UV-I 121 W/m 11,5 C 12,3 C 9,7 km/h (2 Bft) 85,00 %
14.06.2018 08:38 12,3 C 22,2 C 95 % 1015,0 hPa 0,0 l/m 4,8 km/h (1 Bft) SW 214 0 min 0,000 mm 0,6 UV-I 128 W/m 11,5 C 12,3 C 6,4 km/h (2 Bft) 100,00 %
14.06.2018 08:39 12,3 C 22,2 C 95 % 1015,1 hPa 0,0 l/m 3,0 km/h (1 Bft) SW 215 0 min 0,000 mm 0,6 UV-I 133 W/m 11,5 C 12,3 C 4,8 km/h (1 Bft) 100,00 %
14.06.2018 08:40 12,3 C 22,2 C 95 % 1015,1 hPa 0,0 l/m 3,0 km/h (1 Bft) W-SW 244 0 min 0,000 mm 0,6 UV-I 135 W/m 11,5 C 12,3 C 4,8 km/h (1 Bft) 100,00 %
14.06.2018 08:41 12,3 C 22,2 C 95 % 1015,1 hPa 0,0 l/m 3,7 km/h (1 Bft) W-SW 246 0 min 0,000 mm 0,6 UV-I 140 W/m 11,5 C 12,3 C 4,8 km/h (1 Bft) 96,55 %
14.06.2018 08:43 12,4 C 22,2 C 95 % 1015,1 hPa 0,0 l/m 6,1 km/h (2 Bft) SW 219 0 min 0,000 mm 0,7 UV-I 150 W/m 11,6 C 12,4 C 9,7 km/h (2 Bft) 100,00 %
14.06.2018 08:44 12,4 C 22,2 C 95 % 1015,1 hPa 0,0 l/m 5,2 km/h (1 Bft) S-SW 209 0 min 0,000 mm 0,7 UV-I 162 W/m 11,6 C 12,4 C 8,0 km/h (2 Bft) 100,00 %
14.06.2018 08:45 12,4 C 22,2 C 95 % 1015,1 hPa 0,0 l/m 6,9 km/h (2 Bft) SW 226 0 min 0,000 mm 0,7 UV-I 169 W/m 11,6 C 12,1 C 9,7 km/h (2 Bft) 100,00 %
14.06.2018 08:46 12,3 C 22,2 C 95 % 1015,1 hPa 0,0 l/m 4,8 km/h (1 Bft) SW 235 0 min 0,000 mm 0,7 UV-I 174 W/m 11,5 C 12,3 C 8,0 km/h (2 Bft) 100,00 %
14.06.2018 08:47 12,4 C 22,2 C 94 % 1015,1 hPa 0,0 l/m 6,0 km/h (2 Bft) SW 234 0 min 0,000 mm 0,8 UV-I 177 W/m 11,5 C 12,4 C 9,7 km/h (2 Bft) 96,30 %
14.06.2018 08:48 12,4 C 22,2 C 95 % 1015,1 hPa 0,0 l/m 6,5 km/h (2 Bft) S-SW 208 0 min 0,000 mm 0,8 UV-I 182 W/m 11,6 C 12,4 C 8,0 km/h (2 Bft) 100,00 %
14.06.2018 08:49 12,5 C 22,2 C 95 % 1015,0 hPa 0,0 l/m 8,7 km/h (2 Bft) SW 233 0 min 0,000 mm 0,8 UV-I 188 W/m 11,7 C 11,1 C 12,9 km/h (3 Bft) 100,00 %
14.06.2018 08:50 12,5 C 22,2 C 94 % 1015,0 hPa 0,0 l/m 6,2 km/h (2 Bft) SW 214 0 min 0,000 mm 0,8 UV-I 193 W/m 11,6 C 12,5 C 6,4 km/h (2 Bft) 100,00 %
14.06.2018 08:51 12,6 C 22,2 C 94 % 1015,0 hPa 0,0 l/m 8,0 km/h (2 Bft) SW 223 0 min 0,000 mm 0,8 UV-I 192 W/m 11,7 C 11,6 C 12,9 km/h (3 Bft) 100,00 %
14.06.2018 08:52 12,6 C 22,2 C 95 % 1015,1 hPa 0,0 l/m 7,4 km/h (2 Bft) W-SW 250 0 min 0,000 mm 0,8 UV-I 188 W/m 11,8 C 12,0 C 9,7 km/h (2 Bft) 100,00 %
14.06.2018 08:53 12,6 C 22,2 C 94 % 1015,1 hPa 0,0 l/m 7,0 km/h (2 Bft) SW 227 0 min 0,000 mm 0,8 UV-I 187 W/m 11,7 C 12,2 C 9,7 km/h (2 Bft) 100,00 %
14.06.2018 08:54 12,6 C 22,2 C 94 % 1015,0 hPa 0,0 l/m 7,0 km/h (2 Bft) S-SW 207 0 min 0,000 mm 0,9 UV-I 193 W/m 11,7 C 12,2 C 9,7 km/h (2 Bft) 100,00 %
14.06.2018 08:55 12,6 C 22,2 C 94 % 1015,1 hPa 0,0 l/m 10,0 km/h (2 Bft) SW 223 0 min 0,000 mm 0,9 UV-I 207 W/m 11,7 C 10,5 C 12,9 km/h (3 Bft) 100,00 %
14.06.2018 08:56 12,7 C 22,2 C 94 % 1015,1 hPa 0,0 l/m 8,2 km/h (2 Bft) W-SW 246 0 min 0,000 mm 1,0 UV-I 221 W/m 11,8 C 11,6 C 12,9 km/h (3 Bft) 100,00 %
14.06.2018 08:57 12,7 C 22,2 C 94 % 1015,1 hPa 0,0 l/m 8,0 km/h (2 Bft) SW 222 0 min 0,000 mm 1,0 UV-I 231 W/m 11,8 C 11,7 C 12,9 km/h (3 Bft) 100,00 %
14.06.2018 08:58 12,8 C 22,2 C 94 % 1015,1 hPa 0,0 l/m 8,3 km/h (2 Bft) W-SW 244 0 min 0,000 mm 1,0 UV-I 235 W/m 11,9 C 11,6 C 11,3 km/h (2 Bft) 100,00 %
14.06.2018 08:59 12,8 C 22,2 C 94 % 1015,1 hPa 0,0 l/m 6,6 km/h (2 Bft) SW 232 0 min 0,000 mm 1,1 UV-I 238 W/m 11,9 C 12,7 C 9,7 km/h (2 Bft) 100,00 %
14.06.2018 09:00 12,9 C 22,2 C 94 % 1015,0 hPa 0,0 l/m 6,0 km/h (2 Bft) W-SW 244 0 min 0,051 mm 1,1 UV-I 244 W/m 12,0 C 12,9 C 8,0 km/h (2 Bft) 100,00 %
14.06.2018 09:01 12,9 C 22,2 C 93 % 1015,0 hPa 0,0 l/m 7,5 km/h (2 Bft) SW 232 0 min 0,000 mm 1,1 UV-I 245 W/m 11,8 C 12,2 C 11,3 km/h (2 Bft) 100,00 %
14.06.2018 09:02 12,9 C 22,2 C 93 % 1015,1 hPa 0,0 l/m 4,3 km/h (1 Bft) W-SW 241 0 min 0,000 mm 1,1 UV-I 240 W/m 11,8 C 12,9 C 8,0 km/h (2 Bft) 100,00 %
14.06.2018 09:03 13,0 C 22,2 C 93 % 1015,0 hPa 0,0 l/m 7,4 km/h (2 Bft) W-SW 248 0 min 0,000 mm 1,1 UV-I 234 W/m 11,9 C 12,4 C 9,7 km/h (2 Bft) 95,65 %
14.06.2018 09:04 13,0 C 22,2 C 93 % 1015,0 hPa 0,0 l/m 7,1 km/h (2 Bft) W-SW 241 0 min 0,000 mm 1,1 UV-I 233 W/m 11,9 C 12,6 C 8,0 km/h (2 Bft) 100,00 %
14.06.2018 09:05 13,1 C 22,2 C 93 % 1015,1 hPa 0,0 l/m 6,8 km/h (2 Bft) W-SW 251 0 min 0,000 mm 1,1 UV-I 235 W/m 12,0 C 12,9 C 9,7 km/h (2 Bft) 100,00 %
14.06.2018 09:06 13,1 C 22,2 C 93 % 1015,1 hPa 0,0 l/m 6,9 km/h (2 Bft) S-SW 205 0 min 0,000 mm 1,1 UV-I 237 W/m 12,0 C 12,8 C 9,7 km/h (2 Bft) 100,00 %
14.06.2018 09:07 13,1 C 22,2 C 93 % 1015,1 hPa 0,0 l/m 7,3 km/h (2 Bft) SW 235 0 min 0,000 mm 1,1 UV-I 236 W/m 12,0 C 12,5 C 9,7 km/h (2 Bft) 100,00 %
14.06.2018 09:08 13,1 C 22,2 C 93 % 1015,0 hPa 0,0 l/m 9,9 km/h (2 Bft) SW 234 0 min 0,000 mm 1,1 UV-I 232 W/m 12,0 C 11,1 C 14,5 km/h (3 Bft) 100,00 %
14.06.2018 09:09 13,1 C 22,2 C 92 % 1015,1 hPa 0,0 l/m 10,1 km/h (2 Bft) S-SW 213 0 min 0,000 mm 1,1 UV-I 223 W/m 11,8 C 11,0 C 12,9 km/h (3 Bft) 100,00 %
14.06.2018 09:10 13,1 C 22,2 C 92 % 1015,1 hPa 0,0 l/m 7,4 km/h (2 Bft) SW 217 0 min 0,000 mm 1,1 UV-I 218 W/m 11,8 C 12,5 C 9,7 km/h (2 Bft) 100,00 %
14.06.2018 09:11 13,1 C 22,2 C 92 % 1015,0 hPa 0,0 l/m 8,6 km/h (2 Bft) W-SW 240 0 min 0,000 mm 1,1 UV-I 216 W/m 11,8 C 11,8 C 11,3 km/h (2 Bft) 100,00 %
14.06.2018 09:12 13,1 C 22,2 C 92 % 1015,1 hPa 0,0 l/m 6,2 km/h (2 Bft) S-SW 210 0 min 0,000 mm 1,1 UV-I 216 W/m 11,8 C 13,1 C 11,3 km/h (2 Bft) 100,00 %
14.06.2018 09:13 13,1 C 22,2 C 92 % 1015,1 hPa 0,0 l/m 8,7 km/h (2 Bft) W-SW 249 0 min 0,000 mm 1,1 UV-I 219 W/m 11,8 C 11,7 C 12,9 km/h (3 Bft) 100,00 %
14.06.2018 09:14 13,2 C 22,2 C 92 % 1015,1 hPa 0,0 l/m 10,7 km/h (2 Bft) W-SW 243 0 min 0,000 mm 1,1 UV-I 225 W/m 11,9 C 10,8 C 14,5 km/h (3 Bft) 100,00 %
14.06.2018 09:15 13,2 C 22,2 C 92 % 1015,1 hPa 0,0 l/m 8,3 km/h (2 Bft) W-SW 249 0 min 0,000 mm 1,1 UV-I 231 W/m 11,9 C 12,0 C 14,5 km/h (3 Bft) 97,44 %
14.06.2018 09:16 13,2 C 22,2 C 92 % 1015,0 hPa 0,0 l/m 6,2 km/h (2 Bft) W-SW 250 0 min 0,000 mm 1,1 UV-I 235 W/m 11,9 C 13,2 C 8,0 km/h (2 Bft) 96,55 %
14.06.2018 09:17 13,2 C 22,2 C 92 % 1015,1 hPa 0,0 l/m 5,1 km/h (1 Bft) W-SW 245 0 min 0,000 mm 1,1 UV-I 235 W/m 11,9 C 13,2 C 8,0 km/h (2 Bft) 100,00 %
14.06.2018 09:18 13,3 C 22,2 C 92 % 1015,0 hPa 0,0 l/m 4,3 km/h (1 Bft) W-SW 252 0 min 0,000 mm 1,1 UV-I 231 W/m 12,0 C 13,3 C 8,0 km/h (2 Bft) 100,00 %
14.06.2018 09:19 13,3 C 22,2 C 93 % 1015,1 hPa 0,0 l/m 7,0 km/h (2 Bft) SW 221 0 min 0,000 mm 1,1 UV-I 229 W/m 12,2 C 12,9 C 9,7 km/h (2 Bft) 100,00 %
14.06.2018 09:20 13,3 C 22,2 C 92 % 1015,0 hPa 0,0 l/m 6,2 km/h (2 Bft) W 259 0 min 0,000 mm 1,1 UV-I 230 W/m 12,0 C 13,3 C 9,7 km/h (2 Bft) 100,00 %
14.06.2018 09:21 13,3 C 22,2 C 92 % 1015,0 hPa 0,0 l/m 8,4 km/h (2 Bft) SW 236 0 min 0,000 mm 1,1 UV-I 231 W/m 12,0 C 12,1 C 12,9 km/h (3 Bft) 100,00 %
14.06.2018 09:22 13,3 C 22,2 C 92 % 1015,0 hPa 0,0 l/m 5,7 km/h (1 Bft) W-SW 248 0 min 0,000 mm 1,2 UV-I 231 W/m 12,0 C 13,3 C 8,0 km/h (2 Bft) 96,15 %
14.06.2018 09:23 13,4 C 22,2 C 92 % 1015,1 hPa 0,0 l/m 8,0 km/h (2 Bft) SW 214 0 min 0,000 mm 1,2 UV-I 233 W/m 12,1 C 12,4 C 9,7 km/h (2 Bft) 100,00 %
14.06.2018 09:24 13,4 C 22,2 C 92 % 1015,1 hPa 0,0 l/m 4,4 km/h (1 Bft) SW 215 0 min 0,000 mm 1,2 UV-I 236 W/m 12,1 C 13,4 C 6,4 km/h (2 Bft) 100,00 %
14.06.2018 09:25 13,4 C 22,2 C 92 % 1015,1 hPa 0,0 l/m 7,4 km/h (2 Bft) S-SW 209 0 min 0,000 mm 1,2 UV-I 232 W/m 12,1 C 12,8 C 9,7 km/h (2 Bft) 96,67 %
14.06.2018 09:26 13,4 C 22,2 C 91 % 1015,0 hPa 0,0 l/m 7,3 km/h (2 Bft) W-SW 250 0 min 0,000 mm 1,1 UV-I 225 W/m 12,0 C 12,8 C 9,7 km/h (2 Bft) 100,00 %
14.06.2018 09:27 13,4 C 22,2 C 92 % 1015,0 hPa 0,0 l/m 6,1 km/h (2 Bft) W-SW 242 0 min 0,000 mm 1,1 UV-I 217 W/m 12,1 C 13,4 C 8,0 km/h (2 Bft) 100,00 %
14.06.2018 09:28 13,5 C 22,2 C 92 % 1015,1 hPa 0,0 l/m 9,5 km/h (2 Bft) W 275 0 min 0,000 mm 1,0 UV-I 213 W/m 12,2 C 11,7 C 11,3 km/h (2 Bft) 96,15 %
14.06.2018 09:29 13,5 C 22,2 C 92 % 1015,1 hPa 0,0 l/m 8,8 km/h (2 Bft) W-SW 239 0 min 0,000 mm 0,9 UV-I 200 W/m 12,2 C 12,1 C 16,1 km/h (3 Bft) 95,83 %
14.06.2018 09:30 13,5 C 22,2 C 92 % 1015,1 hPa 0,0 l/m 8,4 km/h (2 Bft) SW 217 0 min 0,000 mm 0,9 UV-I 184 W/m 12,2 C 12,3 C 11,3 km/h (2 Bft) 100,00 %
14.06.2018 09:31 13,5 C 22,2 C 92 % 1015,0 hPa 0,0 l/m 6,4 km/h (2 Bft) W-SW 238 0 min 0,000 mm 0,8 UV-I 171 W/m 12,2 C 13,5 C 9,7 km/h (2 Bft) 100,00 %
14.06.2018 09:32 13,5 C 22,2 C 92 % 1015,1 hPa 0,0 l/m 9,5 km/h (2 Bft) W-SW 254 0 min 0,000 mm 0,8 UV-I 165 W/m 12,2 C 11,7 C 12,9 km/h (3 Bft) 93,10 %
14.06.2018 09:33 13,5 C 22,2 C 92 % 1015,1 hPa 0,0 l/m 8,7 km/h (2 Bft) SW 229 0 min 0,000 mm 0,8 UV-I 160 W/m 12,2 C 12,1 C 14,5 km/h (3 Bft) 100,00 %
14.06.2018 09:34 13,5 C 22,2 C 92 % 1015,1 hPa 0,0 l/m 5,5 km/h (1 Bft) SW 226 0 min 0,000 mm 0,8 UV-I 156 W/m 12,2 C 13,5 C 8,0 km/h (2 Bft) 100,00 %
14.06.2018 09:35 13,5 C 22,2 C 92 % 1015,1 hPa 0,0 l/m 7,2 km/h (2 Bft) SW 225 0 min 0,000 mm 0,8 UV-I 152 W/m 12,2 C 13,0 C 11,3 km/h (2 Bft) 100,00 %
14.06.2018 09:36 13,5 C 22,2 C 91 % 1015,1 hPa 0,0 l/m 8,0 km/h (2 Bft) SW 236 0 min 0,000 mm 0,7 UV-I 146 W/m 12,1 C 12,5 C 12,9 km/h (3 Bft) 100,00 %
14.06.2018 09:37 13,4 C 22,2 C 91 % 1015,1 hPa 0,0 l/m 7,0 km/h (2 Bft) W-SW 252 0 min 0,000 mm 0,7 UV-I 139 W/m 12,0 C 13,0 C 11,3 km/h (2 Bft) 100,00 %
14.06.2018 09:38 13,4 C 22,2 C 91 % 1015,2 hPa 0,0 l/m 10,1 km/h (2 Bft) W 271 0 min 0,000 mm 0,7 UV-I 130 W/m 12,0 C 11,3 C 12,9 km/h (3 Bft) 100,00 %
14.06.2018 09:39 13,4 C 22,2 C 92 % 1015,2 hPa 0,0 l/m 4,3 km/h (1 Bft) W 271 0 min 0,000 mm 0,6 UV-I 123 W/m 12,1 C 13,4 C 6,4 km/h (2 Bft) 100,00 %
14.06.2018 09:40 13,4 C 22,2 C 91 % 1015,2 hPa 0,0 l/m 7,7 km/h (2 Bft) W-SW 241 0 min 0,000 mm 0,6 UV-I 116 W/m 12,0 C 12,6 C 9,7 km/h (2 Bft) 100,00 %
14.06.2018 09:41 13,4 C 22,2 C 91 % 1015,2 hPa 0,0 l/m 11,2 km/h (2 Bft) W-NW 285 0 min 0,000 mm 0,5 UV-I 111 W/m 12,0 C 10,8 C 14,5 km/h (3 Bft) 100,00 %
14.06.2018 09:42 13,3 C 22,2 C 91 % 1015,2 hPa 0,0 l/m 8,7 km/h (2 Bft) W-SW 251 0 min 0,000 mm 0,5 UV-I 107 W/m 11,9 C 11,9 C 12,9 km/h (3 Bft) 100,00 %
14.06.2018 09:43 13,3 C 22,2 C 90 % 1015,2 hPa 0,0 l/m 6,4 km/h (2 Bft) W 267 0 min 0,000 mm 0,5 UV-I 102 W/m 11,7 C 13,3 C 9,7 km/h (2 Bft) 96,88 %
14.06.2018 09:44 13,3 C 22,2 C 90 % 1015,2 hPa 0,0 l/m 8,5 km/h (2 Bft) W 274 0 min 0,000 mm 0,5 UV-I 98 W/m 11,7 C 12,0 C 11,3 km/h (2 Bft) 100,00 %
14.06.2018 09:45 13,3 C 22,2 C 91 % 1015,2 hPa 0,0 l/m 9,9 km/h (2 Bft) W-SW 248 0 min 0,000 mm 0,5 UV-I 95 W/m 11,9 C 11,3 C 12,9 km/h (3 Bft) 95,65 %
14.06.2018 09:46 13,3 C 22,2 C 91 % 1015,2 hPa 0,0 l/m 6,4 km/h (2 Bft) W 261 0 min 0,000 mm 0,5 UV-I 92 W/m 11,9 C 13,3 C 9,7 km/h (2 Bft) 100,00 %
14.06.2018 09:48 13,3 C 22,2 C 91 % 1015,2 hPa 0,0 l/m 5,1 km/h (1 Bft) W 271 0 min 0,000 mm 0,2 UV-I 87 W/m 11,9 C 13,3 C 8,0 km/h (2 Bft) 100,00 %
14.06.2018 09:49 13,3 C 22,2 C 91 % 1015,3 hPa 0,0 l/m 5,1 km/h (1 Bft) W 269 0 min 0,000 mm 0,0 UV-I 84 W/m 11,9 C 13,3 C 6,4 km/h (2 Bft) 100,00 %
14.06.2018 09:50 13,3 C 22,2 C 91 % 1015,3 hPa 0,0 l/m 4,8 km/h (1 Bft) W 261 0 min 0,000 mm 0,0 UV-I 84 W/m 11,9 C 13,3 C 6,4 km/h (2 Bft) 100,00 %
14.06.2018 09:51 13,3 C 22,2 C 91 % 1015,3 hPa 0,0 l/m 3,1 km/h (1 Bft) W 261 0 min 0,000 mm 0,0 UV-I 83 W/m 11,9 C 13,3 C 4,8 km/h (1 Bft) 96,00 %
14.06.2018 09:52 13,3 C 22,2 C 91 % 1015,2 hPa 0,0 l/m 1,9 km/h (1 Bft) W 261 0 min 0,000 mm 0,0 UV-I 83 W/m 11,9 C 13,3 C 3,2 km/h (1 Bft) 95,83 %
14.06.2018 09:53 13,3 C 22,2 C 91 % 1015,2 hPa 0,0 l/m 4,7 km/h (1 Bft) W-SW 256 0 min 0,000 mm 0,0 UV-I 81 W/m 11,9 C 13,3 C 9,7 km/h (2 Bft) 100,00 %
14.06.2018 09:54 13,3 C 22,2 C 91 % 1015,2 hPa 0,0 l/m 6,2 km/h (2 Bft) W 269 0 min 0,000 mm 0,0 UV-I 79 W/m 11,9 C 13,3 C 9,7 km/h (2 Bft) 95,83 %
14.06.2018 09:55 13,3 C 22,2 C 91 % 1015,3 hPa 0,0 l/m 6,8 km/h (2 Bft) W-SW 258 0 min 0,000 mm 0,0 UV-I 77 W/m 11,9 C 13,1 C 9,7 km/h (2 Bft) 100,00 %
14.06.2018 09:56 13,3 C 22,2 C 91 % 1015,2 hPa 0,0 l/m 5,4 km/h (1 Bft) W-NW 285 0 min 0,000 mm 0,0 UV-I 75 W/m 11,9 C 13,3 C 9,7 km/h (2 Bft) 100,00 %
14.06.2018 09:57 13,3 C 22,2 C 91 % 1015,2 hPa 0,0 l/m 3,7 km/h (1 Bft) W-SW 256 0 min 0,000 mm 0,0 UV-I 73 W/m 11,9 C 13,3 C 4,8 km/h (1 Bft) 100,00 %
14.06.2018 09:58 13,3 C 22,2 C 91 % 1015,3 hPa 0,0 l/m 3,5 km/h (1 Bft) W-SW 258 0 min 0,000 mm 0,0 UV-I 71 W/m 11,9 C 13,3 C 4,8 km/h (1 Bft) 100,00 %
14.06.2018 09:59 13,3 C 22,2 C 91 % 1015,3 hPa 0,0 l/m 4,7 km/h (1 Bft) W-SW 244 0 min 0,000 mm 0,0 UV-I 70 W/m 11,9 C 13,3 C 6,4 km/h (2 Bft) 100,00 %
14.06.2018 10:00 13,3 C 22,2 C 91 % 1015,3 hPa 0,0 l/m 7,4 km/h (2 Bft) W 269 0 min 0,076 mm 0,0 UV-I 69 W/m 11,9 C 12,7 C 9,7 km/h (2 Bft) 100,00 %
14.06.2018 10:01 13,2 C 22,2 C 91 % 1015,3 hPa 0,0 l/m 5,2 km/h (1 Bft) W 267 0 min 0,000 mm 0,0 UV-I 67 W/m 11,8 C 13,2 C 6,4 km/h (2 Bft) 100,00 %
14.06.2018 10:03 13,2 C 22,2 C 91 % 1015,3 hPa 0,0 l/m 3,4 km/h (1 Bft) W-SW 240 0 min 0,000 mm 0,0 UV-I 67 W/m 11,8 C 13,2 C 4,8 km/h (1 Bft) 98,21 %
14.06.2018 10:04 13,2 C 22,2 C 91 % 1015,3 hPa 0,0 l/m 4,7 km/h (1 Bft) W 267 0 min 0,000 mm 0,0 UV-I 69 W/m 11,8 C 13,2 C 6,4 km/h (2 Bft) 100,00 %
14.06.2018 10:05 13,3 C 22,2 C 92 % 1015,3 hPa 0,0 l/m 3,8 km/h (1 Bft) W 260 0 min 0,000 mm 0,0 UV-I 69 W/m 12,0 C 13,3 C 6,4 km/h (2 Bft) 95,83 %
14.06.2018 10:06 13,3 C 22,2 C 92 % 1015,3 hPa 0,0 l/m 3,4 km/h (1 Bft) W 261 0 min 0,000 mm 0,0 UV-I 72 W/m 12,0 C 13,3 C 4,8 km/h (1 Bft) 96,15 %
14.06.2018 10:07 13,3 C 22,2 C 92 % 1015,4 hPa 0,0 l/m 4,1 km/h (1 Bft) W 263 0 min 0,000 mm 0,0 UV-I 74 W/m 12,0 C 13,3 C 6,4 km/h (2 Bft) 91,67 %
14.06.2018 10:08 13,3 C 22,2 C 92 % 1015,4 hPa 0,0 l/m 3,0 km/h (1 Bft) W 263 0 min 0,000 mm 0,2 UV-I 78 W/m 12,0 C 13,3 C 4,8 km/h (1 Bft) 96,15 %
14.06.2018 10:09 13,3 C 22,2 C 92 % 1015,4 hPa 0,0 l/m 4,0 km/h (1 Bft) W 263 0 min 0,000 mm 0,5 UV-I 81 W/m 12,0 C 13,3 C 4,8 km/h (1 Bft) 95,83 %
14.06.2018 10:10 13,3 C 22,2 C 92 % 1015,4 hPa 0,0 l/m 3,5 km/h (1 Bft) W 264 0 min 0,000 mm 0,5 UV-I 85 W/m 12,0 C 13,3 C 4,8 km/h (1 Bft) 95,65 %
14.06.2018 10:11 13,3 C 22,2 C 92 % 1015,4 hPa 0,0 l/m 4,8 km/h (1 Bft) W 263 0 min 0,000 mm 0,5 UV-I 90 W/m 12,0 C 13,3 C 6,4 km/h (2 Bft) 95,83 %
14.06.2018 10:12 13,3 C 22,2 C 92 % 1015,3 hPa 0,0 l/m 4,1 km/h (1 Bft) W 264 0 min 0,000 mm 0,5 UV-I 93 W/m 12,0 C 13,3 C 4,8 km/h (1 Bft) 92,31 %
14.06.2018 10:13 13,3 C 22,2 C 92 % 1015,4 hPa 0,0 l/m 4,0 km/h (1 Bft) W-SW 243 0 min 0,000 mm 0,6 UV-I 96 W/m 12,0 C 13,3 C 4,8 km/h (1 Bft) 100,00 %
14.06.2018 10:14 13,3 C 22,2 C 92 % 1015,4 hPa 0,0 l/m 4,6 km/h (1 Bft) W-SW 242 0 min 0,000 mm 0,6 UV-I 104 W/m 12,0 C 13,3 C 6,4 km/h (2 Bft) 91,67 %
14.06.2018 10:15 13,3 C 22,2 C 92 % 1015,3 hPa 0,0 l/m 3,2 km/h (1 Bft) W-SW 243 0 min 0,000 mm 0,6 UV-I 112 W/m 12,0 C 13,3 C 4,8 km/h (1 Bft) 96,55 %
14.06.2018 10:16 13,3 C 22,2 C 92 % 1015,3 hPa 0,0 l/m 2,3 km/h (1 Bft) W-SW 243 0 min 0,000 mm 0,7 UV-I 119 W/m 12,0 C 13,3 C 3,2 km/h (1 Bft) 92,59 %
14.06.2018 10:17 13,3 C 22,2 C 92 % 1015,4 hPa 0,0 l/m 1,5 km/h (1 Bft) W-SW 243 0 min 0,000 mm 0,8 UV-I 127 W/m 12,0 C 13,3 C 3,2 km/h (1 Bft) 100,00 %
14.06.2018 10:18 13,4 C 22,2 C 92 % 1015,3 hPa 0,0 l/m 2,8 km/h (1 Bft) W-SW 243 0 min 0,000 mm 0,8 UV-I 137 W/m 12,1 C 13,4 C 4,8 km/h (1 Bft) 87,50 %
14.06.2018 10:19 13,4 C 22,2 C 92 % 1015,4 hPa 0,0 l/m 3,8 km/h (1 Bft) W-SW 241 0 min 0,000 mm 0,9 UV-I 146 W/m 12,1 C 13,4 C 4,8 km/h (1 Bft) 96,15 %
14.06.2018 10:20 13,4 C 22,2 C 92 % 1015,3 hPa 0,0 l/m 3,5 km/h (1 Bft) W-SW 241 0 min 0,000 mm 0,9 UV-I 156 W/m 12,1 C 13,4 C 4,8 km/h (1 Bft) 93,33 %
14.06.2018 10:21 13,4 C 22,2 C 92 % 1015,4 hPa 0,0 l/m 4,6 km/h (1 Bft) W-SW 239 0 min 0,000 mm 1,0 UV-I 167 W/m 12,1 C 13,4 C 6,4 km/h (2 Bft) 96,15 %
14.06.2018 10:22 13,5 C 22,2 C 92 % 1015,4 hPa 0,0 l/m 3,2 km/h (1 Bft) W-SW 239 0 min 0,000 mm 1,1 UV-I 176 W/m 12,2 C 13,5 C 4,8 km/h (1 Bft) 95,83 %
14.06.2018 10:23 13,5 C 22,2 C 92 % 1015,4 hPa 0,0 l/m 4,5 km/h (1 Bft) SW 221 0 min 0,000 mm 1,2 UV-I 186 W/m 12,2 C 13,5 C 6,4 km/h (2 Bft) 92,31 %
14.06.2018 10:24 13,5 C 22,2 C 91 % 1015,4 hPa 0,0 l/m 4,4 km/h (1 Bft) SW 221 0 min 0,000 mm 1,2 UV-I 198 W/m 12,1 C 13,5 C 4,8 km/h (1 Bft) 100,00 %
14.06.2018 10:25 13,4 C 22,2 C 91 % 1015,4 hPa 0,0 l/m 2,6 km/h (1 Bft) SW 222 0 min 0,000 mm 1,3 UV-I 209 W/m 12,0 C 13,4 C 3,2 km/h (1 Bft) 83,33 %
14.06.2018 10:26 13,4 C 22,2 C 91 % 1015,3 hPa 0,0 l/m 3,2 km/h (1 Bft) SW 222 0 min 0,000 mm 1,3 UV-I 220 W/m 12,0 C 13,4 C 4,8 km/h (1 Bft) 100,00 %
14.06.2018 10:27 13,6 C 22,2 C 92 % 1015,4 hPa 0,0 l/m 4,1 km/h (1 Bft) W-SW 255 0 min 0,000 mm 1,5 UV-I 233 W/m 12,3 C 13,6 C 4,8 km/h (1 Bft) 92,31 %
14.06.2018 10:28 13,6 C 22,2 C 91 % 1015,3 hPa 0,0 l/m 2,5 km/h (1 Bft) W-SW 255 0 min 0,000 mm 1,5 UV-I 246 W/m 12,2 C 13,6 C 3,2 km/h (1 Bft) 100,00 %
14.06.2018 10:29 13,6 C 22,2 C 91 % 1015,4 hPa 0,0 l/m 3,3 km/h (1 Bft) SW 228 0 min 0,000 mm 1,6 UV-I 258 W/m 12,2 C 13,6 C 4,8 km/h (1 Bft) 91,30 %
14.06.2018 10:30 13,7 C 22,2 C 91 % 1015,3 hPa 0,0 l/m 1,3 km/h (1 Bft) SW 229 0 min 0,000 mm 1,7 UV-I 267 W/m 12,3 C 13,7 C 3,2 km/h (1 Bft) 91,67 %
14.06.2018 10:31 13,7 C 22,2 C 91 % 1015,4 hPa 0,0 l/m 3,5 km/h (1 Bft) W 276 0 min 0,000 mm 1,7 UV-I 272 W/m 12,3 C 13,7 C 4,8 km/h (1 Bft) 100,00 %
14.06.2018 10:32 13,8 C 22,2 C 89 % 1015,4 hPa 0,0 l/m 2,3 km/h (1 Bft) W 275 0 min 0,000 mm 1,7 UV-I 279 W/m 12,0 C 13,8 C 3,2 km/h (1 Bft) 95,83 %
14.06.2018 10:33 13,8 C 22,2 C 90 % 1015,4 hPa 0,0 l/m 2,0 km/h (1 Bft) W 275 0 min 0,000 mm 1,7 UV-I 282 W/m 12,2 C 13,8 C 3,2 km/h (1 Bft) 100,00 %
14.06.2018 10:34 13,9 C 22,2 C 90 % 1015,4 hPa 0,0 l/m 4,4 km/h (1 Bft) W 275 0 min 0,000 mm 1,7 UV-I 289 W/m 12,3 C 13,9 C 4,8 km/h (1 Bft) 81,82 %
14.06.2018 10:35 13,9 C 22,2 C 88 % 1015,4 hPa 0,0 l/m 4,2 km/h (1 Bft) W 272 0 min 0,000 mm 1,8 UV-I 300 W/m 11,9 C 13,9 C 4,8 km/h (1 Bft) 100,00 %
14.06.2018 10:36 13,9 C 22,2 C 88 % 1015,4 hPa 0,0 l/m 5,0 km/h (1 Bft) W 269 0 min 0,000 mm 1,9 UV-I 312 W/m 11,9 C 13,9 C 6,4 km/h (2 Bft) 91,30 %
14.06.2018 10:37 14,1 C 22,2 C 89 % 1015,4 hPa 0,0 l/m 4,3 km/h (1 Bft) W 268 0 min 0,000 mm 2,0 UV-I 324 W/m 12,3 C 14,1 C 6,4 km/h (2 Bft) 100,00 %
14.06.2018 10:38 14,1 C 22,2 C 87 % 1015,4 hPa 0,0 l/m 4,8 km/h (1 Bft) W 270 0 min 0,000 mm 2,0 UV-I 334 W/m 12,0 C 14,1 C 6,4 km/h (2 Bft) 91,30 %
14.06.2018 10:39 14,1 C 22,2 C 87 % 1015,4 hPa 0,0 l/m 3,0 km/h (1 Bft) W 268 0 min 0,000 mm 2,1 UV-I 342 W/m 12,0 C 14,1 C 4,8 km/h (1 Bft) 96,30 %
14.06.2018 10:40 14,1 C 22,2 C 87 % 1015,4 hPa 0,0 l/m 2,3 km/h (1 Bft) SW 232 0 min 0,000 mm 2,1 UV-I 350 W/m 12,0 C 14,1 C 3,2 km/h (1 Bft) 96,15 %
14.06.2018 10:41 14,1 C 22,2 C 86 % 1015,4 hPa 0,0 l/m 4,2 km/h (1 Bft) SW 228 0 min 0,000 mm 2,2 UV-I 379 W/m 11,8 C 14,1 C 6,4 km/h (2 Bft) 95,83 %
14.06.2018 10:42 14,2 C 22,2 C 87 % 1015,4 hPa 0,0 l/m 4,1 km/h (1 Bft) W 269 0 min 0,000 mm 2,3 UV-I 425 W/m 12,1 C 14,2 C 4,8 km/h (1 Bft) 100,00 %
14.06.2018 10:43 14,3 C 22,2 C 87 % 1015,4 hPa 0,0 l/m 3,6 km/h (1 Bft) SW 232 0 min 0,000 mm 2,3 UV-I 381 W/m 12,2 C 14,3 C 4,8 km/h (1 Bft) 91,67 %
14.06.2018 10:44 14,4 C 22,2 C 86 % 1015,4 hPa 0,0 l/m 5,4 km/h (1 Bft) W-SW 243 0 min 0,000 mm 2,3 UV-I 376 W/m 12,1 C 14,4 C 8,0 km/h (2 Bft) 100,00 %
14.06.2018 10:45 14,4 C 22,2 C 86 % 1015,4 hPa 0,0 l/m 7,3 km/h (2 Bft) SW 236 0 min 0,000 mm 2,3 UV-I 370 W/m 12,1 C 13,9 C 9,7 km/h (2 Bft) 96,55 %
14.06.2018 10:46 14,4 C 22,2 C 84 % 1015,4 hPa 0,0 l/m 7,0 km/h (2 Bft) W-SW 243 0 min 0,000 mm 2,3 UV-I 373 W/m 11,7 C 14,1 C 9,7 km/h (2 Bft) 100,00 %
14.06.2018 10:47 14,4 C 22,2 C 84 % 1015,5 hPa 0,0 l/m 5,8 km/h (2 Bft) W-SW 246 0 min 0,000 mm 2,4 UV-I 374 W/m 11,7 C 14,4 C 8,0 km/h (2 Bft) 95,12 %
14.06.2018 10:48 14,4 C 22,2 C 83 % 1015,5 hPa 0,0 l/m 6,2 km/h (2 Bft) W-SW 239 0 min 0,000 mm 2,4 UV-I 377 W/m 11,5 C 14,4 C 8,0 km/h (2 Bft) 100,00 %
14.06.2018 10:49 14,4 C 22,2 C 84 % 1015,5 hPa 0,0 l/m 7,0 km/h (2 Bft) W-SW 239 0 min 0,000 mm 2,4 UV-I 381 W/m 11,7 C 14,1 C 8,0 km/h (2 Bft) 95,83 %
14.06.2018 10:50 14,4 C 22,2 C 84 % 1015,4 hPa 0,0 l/m 7,1 km/h (2 Bft) W-SW 239 0 min 0,000 mm 2,4 UV-I 386 W/m 11,7 C 14,0 C 11,3 km/h (2 Bft) 100,00 %
14.06.2018 10:51 14,4 C 22,2 C 83 % 1015,4 hPa 0,0 l/m 5,8 km/h (2 Bft) W-SW 238 0 min 0,000 mm 2,5 UV-I 395 W/m 11,5 C 14,4 C 9,7 km/h (2 Bft) 95,83 %
14.06.2018 10:52 14,4 C 22,2 C 84 % 1015,5 hPa 0,0 l/m 5,0 km/h (1 Bft) W 265 0 min 0,000 mm 2,6 UV-I 406 W/m 11,7 C 14,4 C 6,4 km/h (2 Bft) 100,00 %
14.06.2018 10:53 14,4 C 22,2 C 83 % 1015,5 hPa 0,0 l/m 3,8 km/h (1 Bft) W-NW 287 0 min 0,000 mm 2,6 UV-I 417 W/m 11,5 C 14,4 C 4,8 km/h (1 Bft) 92,31 %
14.06.2018 10:54 14,5 C 22,2 C 85 % 1015,4 hPa 0,0 l/m 6,3 km/h (2 Bft) W 264 0 min 0,000 mm 2,7 UV-I 428 W/m 12,0 C 14,5 C 9,7 km/h (2 Bft) 96,30 %
14.06.2018 10:55 14,5 C 22,2 C 84 % 1015,4 hPa 0,0 l/m 3,3 km/h (1 Bft) W-SW 248 0 min 0,000 mm 2,8 UV-I 438 W/m 11,8 C 14,5 C 4,8 km/h (1 Bft) 100,00 %
14.06.2018 10:56 14,6 C 22,2 C 84 % 1015,4 hPa 0,0 l/m 3,8 km/h (1 Bft) W-SW 248 1 min 0,000 mm 2,8 UV-I 449 W/m 11,9 C 14,6 C 4,8 km/h (1 Bft) 95,83 %
14.06.2018 10:57 14,6 C 22,2 C 85 % 1015,4 hPa 0,0 l/m 3,3 km/h (1 Bft) W-SW 246 1 min 0,000 mm 3,0 UV-I 474 W/m 12,1 C 14,6 C 4,8 km/h (1 Bft) 100,00 %
14.06.2018 10:58 14,7 C 22,2 C 85 % 1015,4 hPa 0,0 l/m 8,5 km/h (2 Bft) SW 232 1 min 0,000 mm 3,0 UV-I 476 W/m 12,2 C 13,5 C 11,3 km/h (2 Bft) 93,33 %
14.06.2018 10:59 14,8 C 22,2 C 83 % 1015,4 hPa 0,0 l/m 7,9 km/h (2 Bft) SW 223 1 min 0,000 mm 3,1 UV-I 489 W/m 11,9 C 13,9 C 11,3 km/h (2 Bft) 100,00 %
14.06.2018 11:00 14,8 C 22,2 C 83 % 1015,4 hPa 0,0 l/m 7,5 km/h (2 Bft) W-SW 243 1 min 0,152 mm 3,1 UV-I 514 W/m 11,9 C 14,2 C 9,7 km/h (2 Bft) 96,30 %
14.06.2018 11:05 15,1 C 22,2 C 84 % 1015,4 hPa 0,0 l/m 4,8 km/h (1 Bft) SW 225 5 min 0,000 mm 3,7 UV-I 582 W/m 12,4 C 15,1 C 11,3 km/h (2 Bft) 97,37 %
14.06.2018 11:06 15,1 C 22,8 C 81 % 1015,4 hPa 0,0 l/m 5,8 km/h (2 Bft) W-SW 249 1 min 0,000 mm 4,5 UV-I 632 W/m 11,9 C 15,1 C 9,7 km/h (2 Bft) 96,53 %
14.06.2018 11:07 15,2 C 22,8 C 82 % 1015,4 hPa 0,0 l/m 5,6 km/h (1 Bft) W-SW 239 1 min 0,000 mm 4,8 UV-I 645 W/m 12,1 C 15,2 C 8,0 km/h (2 Bft) 91,67 %
14.06.2018 11:08 15,3 C 22,2 C 81 % 1015,4 hPa 0,0 l/m 7,0 km/h (2 Bft) W-SW 237 1 min 0,000 mm 4,3 UV-I 645 W/m 12,1 C 15,0 C 12,9 km/h (3 Bft) 100,00 %
14.06.2018 11:09 15,4 C 22,2 C 82 % 1015,4 hPa 0,0 l/m 7,8 km/h (2 Bft) SW 234 1 min 0,000 mm 4,1 UV-I 773 W/m 12,3 C 14,6 C 12,9 km/h (3 Bft) 96,30 %
14.06.2018 11:10 15,4 C 22,8 C 80 % 1015,3 hPa 0,0 l/m 7,6 km/h (2 Bft) SW 233 1 min 0,000 mm 4,6 UV-I 788 W/m 12,0 C 14,7 C 9,7 km/h (2 Bft) 100,00 %
14.06.2018 11:11 15,4 C 22,8 C 78 % 1015,4 hPa 0,0 l/m 6,2 km/h (2 Bft) SW 217 1 min 0,000 mm 4,7 UV-I 828 W/m 11,6 C 15,4 C 11,3 km/h (2 Bft) 100,00 %
14.06.2018 11:15 16,1 C 22,8 C 72 % 1015,4 hPa 0,0 l/m 6,4 km/h (2 Bft) W-SW 247 4 min 0,000 mm 5,1 UV-I 990 W/m 11,0 C 16,1 C 11,3 km/h (2 Bft) 98,25 %
14.06.2018 11:20 15,9 C 22,8 C 77 % 1015,4 hPa 0,0 l/m 6,6 km/h (2 Bft) SW 231 5 min 0,000 mm 4,4 UV-I 722 W/m 11,9 C 15,8 C 9,7 km/h (2 Bft) 100,00 %
14.06.2018 11:21 16,1 C 22,8 C 81 % 1015,4 hPa 0,0 l/m 4,0 km/h (1 Bft) W 266 1 min 0,000 mm 3,9 UV-I 565 W/m 12,8 C 16,1 C 8,0 km/h (2 Bft) 100,00 %
14.06.2018 11:22 16,2 C 22,8 C 79 % 1015,4 hPa 0,0 l/m 8,0 km/h (2 Bft) SW 229 1 min 0,000 mm 3,8 UV-I 535 W/m 12,6 C 15,4 C 11,3 km/h (2 Bft) 100,00 %
14.06.2018 11:23 16,2 C 22,8 C 76 % 1015,4 hPa 0,0 l/m 7,9 km/h (2 Bft) W-SW 252 1 min 0,000 mm 4,0 UV-I 564 W/m 12,0 C 15,4 C 9,7 km/h (2 Bft) 100,00 %
14.06.2018 11:24 16,2 C 22,8 C 75 % 1015,4 hPa 0,0 l/m 6,9 km/h (2 Bft) SW 236 1 min 0,000 mm 4,2 UV-I 564 W/m 11,8 C 15,9 C 9,7 km/h (2 Bft) 100,00 %
14.06.2018 11:25 16,0 C 22,8 C 75 % 1015,4 hPa 0,0 l/m 5,9 km/h (2 Bft) NW 306 1 min 0,000 mm 3,9 UV-I 547 W/m 11,6 C 16,0 C 8,0 km/h (2 Bft) 100,00 %
14.06.2018 11:26 15,9 C 22,8 C 76 % 1015,4 hPa 0,0 l/m 2,3 km/h (1 Bft) NW 307 1 min 0,000 mm 3,8 UV-I 530 W/m 11,7 C 15,9 C 4,8 km/h (1 Bft) 100,00 %
14.06.2018 11:27 15,9 C 22,8 C 76 % 1015,4 hPa 0,0 l/m 3,6 km/h (1 Bft) W-SW 254 1 min 0,000 mm 3,8 UV-I 526 W/m 11,7 C 15,9 C 6,4 km/h (2 Bft) 100,00 %
14.06.2018 11:28 15,8 C 22,8 C 77 % 1015,4 hPa 0,0 l/m 4,2 km/h (1 Bft) W-SW 250 1 min 0,000 mm 3,9 UV-I 572 W/m 11,8 C 15,8 C 4,8 km/h (1 Bft) 100,00 %
14.06.2018 11:29 15,8 C 22,8 C 78 % 1015,4 hPa 0,0 l/m 1,8 km/h (1 Bft) W 261 1 min 0,000 mm 4,4 UV-I 610 W/m 12,0 C 15,8 C 3,2 km/h (1 Bft) 100,00 %
14.06.2018 11:30 15,9 C 22,8 C 79 % 1015,4 hPa 0,0 l/m 4,1 km/h (1 Bft) NW 317 1 min 0,000 mm 4,3 UV-I 610 W/m 12,3 C 15,9 C 6,4 km/h (2 Bft) 100,00 %
14.06.2018 11:31 16,0 C 22,8 C 76 % 1015,4 hPa 0,0 l/m 3,3 km/h (1 Bft) N 355 1 min 0,000 mm 4,1 UV-I 600 W/m 11,8 C 16,0 C 6,4 km/h (2 Bft) 95,83 %
14.06.2018 11:32 15,9 C 22,8 C 76 % 1015,4 hPa 0,0 l/m 4,3 km/h (1 Bft) N-NW 333 1 min 0,000 mm 4,1 UV-I 570 W/m 11,7 C 15,9 C 6,4 km/h (2 Bft) 100,00 %
14.06.2018 11:33 16,1 C 22,8 C 79 % 1015,4 hPa 0,0 l/m 4,7 km/h (1 Bft) NW 312 1 min 0,000 mm 5,2 UV-I 561 W/m 12,5 C 16,1 C 6,4 km/h (2 Bft) 100,00 %
14.06.2018 11:34 16,2 C 22,8 C 77 % 1015,4 hPa 0,0 l/m 5,1 km/h (1 Bft) W 267 1 min 0,000 mm 5,7 UV-I 651 W/m 12,2 C 16,2 C 9,7 km/h (2 Bft) 100,00 %
14.06.2018 11:35 16,2 C 22,8 C 76 % 1015,4 hPa 0,0 l/m 3,4 km/h (1 Bft) W 264 1 min 0,000 mm 5,4 UV-I 1011 W/m 12,0 C 16,2 C 9,7 km/h (2 Bft) 100,00 %
14.06.2018 11:36 16,1 C 22,8 C 70 % 1015,4 hPa 0,0 l/m 4,1 km/h (1 Bft) SW 225 1 min 0,000 mm 4,7 UV-I 1011 W/m 10,6 C 16,1 C 6,4 km/h (2 Bft) 100,00 %
14.06.2018 11:37 16,1 C 22,8 C 71 % 1015,4 hPa 0,0 l/m 4,9 km/h (1 Bft) SW 221 1 min 0,000 mm 4,2 UV-I 1011 W/m 10,8 C 16,1 C 6,4 km/h (2 Bft) 100,00 %
14.06.2018 11:38 15,9 C 22,8 C 69 % 1015,4 hPa 0,0 l/m 3,8 km/h (1 Bft) SW 221 1 min 0,000 mm 4,1 UV-I 654 W/m 10,2 C 15,9 C 4,8 km/h (1 Bft) 100,00 %
14.06.2018 11:39 15,9 C 22,8 C 71 % 1015,3 hPa 0,0 l/m 3,0 km/h (1 Bft) SW 221 1 min 0,000 mm 4,4 UV-I 569 W/m 10,6 C 15,9 C 4,8 km/h (1 Bft) 100,00 %
14.06.2018 11:40 15,8 C 22,8 C 71 % 1015,3 hPa 0,0 l/m 3,2 km/h (1 Bft) SW 220 1 min 0,000 mm 4,4 UV-I 589 W/m 10,6 C 15,8 C 4,8 km/h (1 Bft) 100,00 %
14.06.2018 11:41 15,8 C 22,8 C 72 % 1015,3 hPa 0,0 l/m 4,5 km/h (1 Bft) S-SO 166 1 min 0,000 mm 4,5 UV-I 646 W/m 10,8 C 15,8 C 8,0 km/h (2 Bft) 100,00 %
14.06.2018 11:42 15,7 C 22,8 C 73 % 1015,3 hPa 0,0 l/m 5,7 km/h (1 Bft) S-SO 166 1 min 0,000 mm 4,6 UV-I 573 W/m 10,9 C 15,7 C 6,4 km/h (2 Bft) 93,33 %
14.06.2018 11:43 15,8 C 22,8 C 73 % 1015,4 hPa 0,0 l/m 1,7 km/h (1 Bft) S-SO 166 1 min 0,000 mm 4,8 UV-I 619 W/m 11,0 C 15,8 C 4,8 km/h (1 Bft) 100,00 %
14.06.2018 11:44 15,9 C 22,8 C 73 % 1015,4 hPa 0,0 l/m 0,7 km/h (0 Bft) S-SO 166 1 min 0,000 mm 4,5 UV-I 608 W/m 11,1 C 15,9 C 1,6 km/h (1 Bft) 95,83 %
14.06.2018 11:45 15,9 C 22,8 C 73 % 1015,4 hPa 0,0 l/m 1,6 km/h (1 Bft) S 182 1 min 0,000 mm 4,4 UV-I 575 W/m 11,1 C 15,9 C 3,2 km/h (1 Bft) 100,00 %
14.06.2018 11:46 16,0 C 22,8 C 72 % 1015,4 hPa 0,0 l/m 4,5 km/h (1 Bft) W-SW 257 1 min 0,000 mm 4,6 UV-I 619 W/m 11,0 C 16,0 C 11,3 km/h (2 Bft) 100,00 %
14.06.2018 11:47 16,0 C 22,8 C 74 % 1015,4 hPa 0,0 l/m 3,8 km/h (1 Bft) W 270 1 min 0,000 mm 5,7 UV-I 619 W/m 11,4 C 16,0 C 6,4 km/h (2 Bft) 100,00 %
14.06.2018 11:48 15,9 C 22,8 C 73 % 1015,4 hPa 0,0 l/m 6,2 km/h (2 Bft) W-NW 283 1 min 0,000 mm 5,5 UV-I 619 W/m 11,1 C 15,9 C 9,7 km/h (2 Bft) 100,00 %
14.06.2018 11:49 15,9 C 22,8 C 74 % 1015,4 hPa 0,0 l/m 5,0 km/h (1 Bft) W-SW 242 1 min 0,000 mm 5,1 UV-I 619 W/m 11,3 C 15,9 C 6,4 km/h (2 Bft) 100,00 %
14.06.2018 11:50 15,9 C 22,8 C 75 % 1015,4 hPa 0,0 l/m 5,5 km/h (1 Bft) W-NW 286 1 min 0,000 mm 5,8 UV-I 619 W/m 11,5 C 15,9 C 6,4 km/h (2 Bft) 100,00 %
14.06.2018 11:51 16,1 C 22,8 C 73 % 1015,4 hPa 0,0 l/m 1,5 km/h (1 Bft) W 276 1 min 0,000 mm 5,7 UV-I 667 W/m 11,3 C 16,1 C 3,2 km/h (1 Bft) 100,00 %
14.06.2018 11:52 16,1 C 22,8 C 73 % 1015,4 hPa 0,0 l/m 3,1 km/h (1 Bft) N 9 1 min 0,000 mm 5,8 UV-I 1028 W/m 11,3 C 16,1 C 4,8 km/h (1 Bft) 100,00 %
14.06.2018 11:53 16,2 C 22,8 C 74 % 1015,4 hPa 0,0 l/m 6,2 km/h (2 Bft) W-SW 254 1 min 0,000 mm 5,6 UV-I 1102 W/m 11,6 C 16,2 C 9,7 km/h (2 Bft) 100,00 %
14.06.2018 11:54 16,3 C 22,8 C 74 % 1015,4 hPa 0,0 l/m 5,5 km/h (1 Bft) W-SW 241 1 min 0,000 mm 4,6 UV-I 1102 W/m 11,7 C 16,3 C 9,7 km/h (2 Bft) 100,00 %
14.06.2018 11:55 16,4 C 22,8 C 73 % 1015,4 hPa 0,0 l/m 10,2 km/h (2 Bft) W-SW 257 1 min 0,000 mm 3,7 UV-I 1102 W/m 11,5 C 14,6 C 14,5 km/h (3 Bft) 100,00 %
14.06.2018 11:56 16,4 C 22,8 C 72 % 1015,4 hPa 0,0 l/m 9,9 km/h (2 Bft) W 273 1 min 0,000 mm 3,4 UV-I 547 W/m 11,3 C 14,7 C 16,1 km/h (3 Bft) 94,12 %
14.06.2018 11:57 16,3 C 22,8 C 71 % 1015,4 hPa 0,0 l/m 6,1 km/h (2 Bft) W-SW 250 1 min 0,000 mm 3,4 UV-I 495 W/m 11,0 C 16,3 C 9,7 km/h (2 Bft) 100,00 %
14.06.2018 11:58 16,3 C 22,8 C 71 % 1015,4 hPa 0,0 l/m 3,5 km/h (1 Bft) W-SW 245 1 min 0,000 mm 4,3 UV-I 496 W/m 11,0 C 16,3 C 6,4 km/h (2 Bft) 100,00 %
14.06.2018 11:59 16,2 C 22,8 C 73 % 1015,4 hPa 0,0 l/m 3,0 km/h (1 Bft) W 275 1 min 0,000 mm 3,2 UV-I 496 W/m 11,4 C 16,2 C 6,4 km/h (2 Bft) 100,00 %
14.06.2018 12:00 16,2 C 22,8 C 71 % 1015,4 hPa 0,0 l/m 4,7 km/h (1 Bft) W-SW 240 0 min 0,407 mm 2,8 UV-I 403 W/m 10,9 C 16,2 C 9,7 km/h (2 Bft) 100,00 %
14.06.2018 12:01 16,2 C 22,8 C 71 % 1015,4 hPa 0,0 l/m 9,7 km/h (2 Bft) W-SW 245 0 min 0,000 mm 2,6 UV-I 335 W/m 10,9 C 14,6 C 12,9 km/h (3 Bft) 95,83 %
14.06.2018 12:02 16,2 C 22,8 C 71 % 1015,4 hPa 0,0 l/m 8,3 km/h (2 Bft) W-SW 238 0 min 0,000 mm 2,6 UV-I 321 W/m 10,9 C 15,2 C 11,3 km/h (2 Bft) 100,00 %
14.06.2018 12:03 16,2 C 22,8 C 72 % 1015,4 hPa 0,0 l/m 7,1 km/h (2 Bft) SW 227 0 min 0,000 mm 2,6 UV-I 315 W/m 11,1 C 15,8 C 9,7 km/h (2 Bft) 100,00 %
14.06.2018 12:04 16,2 C 22,8 C 72 % 1015,4 hPa 0,0 l/m 6,1 km/h (2 Bft) W 273 0 min 0,000 mm 2,7 UV-I 314 W/m 11,1 C 16,2 C 8,0 km/h (2 Bft) 96,55 %
14.06.2018 12:05 16,2 C 22,8 C 72 % 1015,4 hPa 0,0 l/m 3,5 km/h (1 Bft) W 271 0 min 0,000 mm 2,8 UV-I 322 W/m 11,1 C 16,2 C 6,4 km/h (2 Bft) 96,30 %
14.06.2018 12:06 16,1 C 22,8 C 69 % 1015,4 hPa 0,0 l/m 1,4 km/h (1 Bft) W 271 0 min 0,000 mm 3,0 UV-I 337 W/m 10,4 C 16,1 C 3,2 km/h (1 Bft) 100,00 %
14.06.2018 12:07 16,0 C 22,8 C 71 % 1015,4 hPa 0,0 l/m 1,4 km/h (1 Bft) W 271 0 min 0,000 mm 3,2 UV-I 358 W/m 10,7 C 16,0 C 3,2 km/h (1 Bft) 91,67 %
14.06.2018 12:08 15,9 C 22,8 C 70 % 1015,5 hPa 0,0 l/m 2,3 km/h (1 Bft) W-SW 237 0 min 0,000 mm 3,3 UV-I 382 W/m 10,4 C 15,9 C 4,8 km/h (1 Bft) 100,00 %
14.06.2018 12:09 16,0 C 22,8 C 72 % 1015,4 hPa 0,0 l/m 8,1 km/h (2 Bft) W-SW 254 0 min 0,000 mm 3,5 UV-I 405 W/m 11,0 C 15,1 C 11,3 km/h (2 Bft) 93,33 %
14.06.2018 12:10 16,1 C 22,8 C 73 % 1015,4 hPa 0,0 l/m 7,2 km/h (2 Bft) W-SW 258 0 min 0,000 mm 3,7 UV-I 424 W/m 11,3 C 15,7 C 9,7 km/h (2 Bft) 100,00 %
14.06.2018 12:11 16,1 C 22,8 C 72 % 1015,4 hPa 0,0 l/m 4,8 km/h (1 Bft) W-SW 244 0 min 0,000 mm 4,1 UV-I 455 W/m 11,0 C 16,1 C 6,4 km/h (2 Bft) 96,55 %
14.06.2018 12:12 16,1 C 22,8 C 74 % 1015,3 hPa 0,0 l/m 6,0 km/h (2 Bft) S-SW 209 0 min 0,000 mm 5,0 UV-I 455 W/m 11,5 C 16,1 C 9,7 km/h (2 Bft) 96,15 %
14.06.2018 12:13 16,3 C 22,8 C 73 % 1015,4 hPa 0,0 l/m 6,6 km/h (2 Bft) S-SW 211 1 min 0,000 mm 5,5 UV-I 827 W/m 11,4 C 16,2 C 8,0 km/h (2 Bft) 95,83 %
14.06.2018 12:14 16,4 C 22,8 C 72 % 1015,4 hPa 0,0 l/m 5,2 km/h (1 Bft) S-SW 209 1 min 0,000 mm 5,9 UV-I 1008 W/m 11,3 C 16,4 C 8,0 km/h (2 Bft) 95,65 %
14.06.2018 12:15 16,6 C 22,8 C 71 % 1015,3 hPa 0,0 l/m 3,4 km/h (1 Bft) W 264 1 min 0,000 mm 6,3 UV-I 1027 W/m 11,3 C 16,6 C 6,4 km/h (2 Bft) 100,00 %
14.06.2018 12:16 16,8 C 22,8 C 73 % 1015,3 hPa 0,0 l/m 2,7 km/h (1 Bft) SW 223 1 min 0,000 mm 6,5 UV-I 1095 W/m 11,9 C 16,8 C 4,8 km/h (1 Bft) 95,83 %
14.06.2018 12:17 16,9 C 22,8 C 75 % 1015,3 hPa 0,0 l/m 6,2 km/h (2 Bft) W 265 1 min 0,000 mm 6,5 UV-I 1106 W/m 12,4 C 16,9 C 11,3 km/h (2 Bft) 100,00 %
14.06.2018 12:18 16,9 C 22,8 C 67 % 1015,3 hPa 0,0 l/m 8,1 km/h (2 Bft) W-NW 294 1 min 0,000 mm 6,2 UV-I 1106 W/m 10,7 C 16,0 C 12,9 km/h (3 Bft) 95,83 %
14.06.2018 12:19 16,9 C 22,8 C 65 % 1015,3 hPa 0,0 l/m 6,0 km/h (2 Bft) N 355 1 min 0,000 mm 6,7 UV-I 1124 W/m 10,3 C 16,9 C 8,0 km/h (2 Bft) 100,00 %
14.06.2018 12:20 17,0 C 22,8 C 66 % 1015,2 hPa 0,0 l/m 5,3 km/h (1 Bft) NW 311 1 min 0,000 mm 6,8 UV-I 1151 W/m 10,6 C 17,0 C 6,4 km/h (2 Bft) 91,67 %
14.06.2018 12:21 17,1 C 22,8 C 69 % 1015,3 hPa 0,0 l/m 4,6 km/h (1 Bft) W-NW 296 1 min 0,000 mm 6,8 UV-I 1173 W/m 11,4 C 17,1 C 6,4 km/h (2 Bft) 96,15 %
14.06.2018 12:22 17,1 C 22,8 C 66 % 1015,2 hPa 0,0 l/m 4,3 km/h (1 Bft) N 5 1 min 0,000 mm 6,3 UV-I 1171 W/m 10,7 C 17,1 C 6,4 km/h (2 Bft) 100,00 %
14.06.2018 12:23 17,1 C 22,8 C 68 % 1015,3 hPa 0,0 l/m 4,4 km/h (1 Bft) NW 306 1 min 0,000 mm 5,0 UV-I 884 W/m 11,1 C 17,1 C 6,4 km/h (2 Bft) 100,00 %
14.06.2018 12:24 17,2 C 22,8 C 68 % 1015,3 hPa 0,0 l/m 7,9 km/h (2 Bft) W 277 1 min 0,000 mm 5,1 UV-I 601 W/m 11,2 C 16,5 C 12,9 km/h (3 Bft) 96,30 %
14.06.2018 12:25 17,1 C 22,8 C 67 % 1015,2 hPa 0,0 l/m 7,1 km/h (2 Bft) W-SW 248 1 min 0,000 mm 5,9 UV-I 603 W/m 10,9 C 16,7 C 11,3 km/h (2 Bft) 92,31 %
14.06.2018 12:26 16,9 C 22,8 C 68 % 1015,2 hPa 0,0 l/m 8,8 km/h (2 Bft) SW 226 1 min 0,000 mm 5,9 UV-I 970 W/m 11,0 C 15,7 C 12,9 km/h (3 Bft) 100,00 %
14.06.2018 12:27 16,8 C 22,8 C 67 % 1015,2 hPa 0,0 l/m 4,2 km/h (1 Bft) W 270 1 min 0,000 mm 5,1 UV-I 1011 W/m 10,6 C 16,8 C 8,0 km/h (2 Bft) 96,30 %
14.06.2018 12:28 16,9 C 22,8 C 68 % 1015,2 hPa 0,0 l/m 5,0 km/h (1 Bft) S 190 1 min 0,000 mm 6,5 UV-I 1011 W/m 11,0 C 16,9 C 8,0 km/h (2 Bft) 100,00 %
14.06.2018 12:29 17,1 C 22,8 C 70 % 1015,2 hPa 0,0 l/m 12,9 km/h (3 Bft) W-SW 241 1 min 0,000 mm 5,7 UV-I 1011 W/m 11,6 C 14,4 C 19,3 km/h (3 Bft) 95,83 %
14.06.2018 12:30 17,2 C 22,8 C 65 % 1015,2 hPa 0,0 l/m 8,6 km/h (2 Bft) S-SW 210 1 min 0,000 mm 5,1 UV-I 1011 W/m 10,6 C 16,1 C 14,5 km/h (3 Bft) 100,00 %
14.06.2018 12:31 17,3 C 22,8 C 64 % 1015,2 hPa 0,0 l/m 7,4 km/h (2 Bft) W-SW 250 1 min 0,000 mm 5,5 UV-I 1011 W/m 10,4 C 16,8 C 12,9 km/h (3 Bft) 91,67 %
14.06.2018 12:32 17,4 C 22,8 C 65 % 1015,2 hPa 0,0 l/m 7,1 km/h (2 Bft) NO 38 1 min 0,000 mm 6,4 UV-I 1022 W/m 10,8 C 17,1 C 11,3 km/h (2 Bft) 96,15 %
14.06.2018 12:33 17,6 C 22,8 C 65 % 1015,2 hPa 0,0 l/m 4,4 km/h (1 Bft) W-NW 290 1 min 0,000 mm 6,6 UV-I 1156 W/m 10,9 C 17,6 C 6,4 km/h (2 Bft) 100,00 %
14.06.2018 12:34 17,7 C 22,8 C 65 % 1015,2 hPa 0,0 l/m 3,8 km/h (1 Bft) NW 325 1 min 0,000 mm 6,7 UV-I 1183 W/m 11,0 C 17,7 C 9,7 km/h (2 Bft) 95,65 %
14.06.2018 12:35 17,8 C 22,8 C 66 % 1015,2 hPa 0,0 l/m 7,6 km/h (2 Bft) N-NW 334 1 min 0,000 mm 6,1 UV-I 1164 W/m 11,4 C 17,2 C 9,7 km/h (2 Bft) 100,00 %
14.06.2018 12:36 17,9 C 22,8 C 67 % 1015,2 hPa 0,0 l/m 5,7 km/h (1 Bft) N-NO 22 1 min 0,000 mm 6,1 UV-I 1164 W/m 11,7 C 17,9 C 9,7 km/h (2 Bft) 100,00 %
14.06.2018 12:37 17,8 C 22,8 C 63 % 1015,0 hPa 0,0 l/m 7,1 km/h (2 Bft) N 355 1 min 0,000 mm 6,4 UV-I 1164 W/m 10,7 C 17,5 C 11,3 km/h (2 Bft) 100,00 %
14.06.2018 12:38 17,8 C 22,8 C 66 % 1015,1 hPa 0,0 l/m 7,6 km/h (2 Bft) N-NO 17 1 min 0,000 mm 6,5 UV-I 1163 W/m 11,4 C 17,2 C 11,3 km/h (2 Bft) 100,00 %
14.06.2018 12:39 17,9 C 22,8 C 64 % 1015,1 hPa 0,0 l/m 3,8 km/h (1 Bft) W-SW 245 1 min 0,000 mm 6,5 UV-I 1147 W/m 11,0 C 17,9 C 6,4 km/h (2 Bft) 100,00 %
14.06.2018 12:40 18,0 C 22,8 C 68 % 1015,1 hPa 0,0 l/m 6,0 km/h (2 Bft) W-NW 289 1 min 0,000 mm 6,5 UV-I 1141 W/m 12,0 C 18,0 C 11,3 km/h (2 Bft) 100,00 %
14.06.2018 12:41 17,9 C 22,8 C 62 % 1015,1 hPa 0,0 l/m 9,4 km/h (2 Bft) W 275 1 min 0,000 mm 5,9 UV-I 1144 W/m 10,5 C 16,6 C 12,9 km/h (3 Bft) 100,00 %
14.06.2018 12:42 17,8 C 22,8 C 62 % 1015,1 hPa 0,0 l/m 7,4 km/h (2 Bft) W-SW 250 1 min 0,000 mm 4,7 UV-I 1144 W/m 10,4 C 17,3 C 11,3 km/h (2 Bft) 100,00 %
14.06.2018 12:43 17,7 C 22,8 C 63 % 1015,1 hPa 0,0 l/m 7,8 km/h (2 Bft) SW 235 1 min 0,000 mm 4,5 UV-I 726 W/m 10,6 C 17,0 C 9,7 km/h (2 Bft) 100,00 %
14.06.2018 12:44 17,6 C 22,8 C 63 % 1015,1 hPa 0,0 l/m 6,8 km/h (2 Bft) SW 223 1 min 0,000 mm 4,3 UV-I 632 W/m 10,5 C 17,4 C 11,3 km/h (2 Bft) 100,00 %
14.06.2018 12:45 17,5 C 22,8 C 63 % 1015,1 hPa 0,0 l/m 3,4 km/h (1 Bft) W-SW 251 1 min 0,000 mm 4,1 UV-I 631 W/m 10,4 C 17,5 C 6,4 km/h (2 Bft) 100,00 %
14.06.2018 12:46 17,5 C 22,8 C 65 % 1015,0 hPa 0,0 l/m 3,8 km/h (1 Bft) W-SW 237 1 min 0,000 mm 4,1 UV-I 649 W/m 10,8 C 17,5 C 6,4 km/h (2 Bft) 100,00 %
14.06.2018 12:47 17,4 C 22,8 C 65 % 1015,1 hPa 0,0 l/m 4,3 km/h (1 Bft) W-NW 292 1 min 0,000 mm 3,5 UV-I 536 W/m 10,8 C 17,4 C 6,4 km/h (2 Bft) 100,00 %
14.06.2018 12:48 17,4 C 22,8 C 65 % 1015,1 hPa 0,0 l/m 10,0 km/h (2 Bft) NW 308 0 min 0,000 mm 3,2 UV-I 468 W/m 10,8 C 15,8 C 14,5 km/h (3 Bft) 100,00 %
14.06.2018 12:49 17,3 C 22,8 C 64 % 1015,1 hPa 0,0 l/m 6,3 km/h (2 Bft) NW 307 0 min 0,000 mm 3,3 UV-I 467 W/m 10,4 C 17,3 C 8,0 km/h (2 Bft) 100,00 %
14.06.2018 12:50 17,2 C 22,8 C 64 % 1015,1 hPa 0,0 l/m 3,6 km/h (1 Bft) NW 307 0 min 0,000 mm 3,0 UV-I 413 W/m 10,3 C 17,2 C 4,8 km/h (1 Bft) 100,00 %
14.06.2018 12:51 17,1 C 22,8 C 63 % 1015,1 hPa 0,0 l/m 2,7 km/h (1 Bft) W-SW 245 0 min 0,000 mm 2,6 UV-I 370 W/m 10,0 C 17,1 C 6,4 km/h (2 Bft) 100,00 %
14.06.2018 12:52 16,9 C 22,8 C 64 % 1015,1 hPa 0,0 l/m 5,5 km/h (1 Bft) W 268 0 min 0,000 mm 2,4 UV-I 346 W/m 10,0 C 16,9 C 8,0 km/h (2 Bft) 100,00 %
14.06.2018 12:53 16,9 C 22,8 C 65 % 1015,1 hPa 0,0 l/m 3,4 km/h (1 Bft) N-NO 12 0 min 0,000 mm 2,3 UV-I 322 W/m 10,3 C 16,9 C 4,8 km/h (1 Bft) 100,00 %
14.06.2018 12:54 16,9 C 22,8 C 66 % 1015,1 hPa 0,0 l/m 3,8 km/h (1 Bft) N 355 0 min 0,000 mm 2,2 UV-I 309 W/m 10,5 C 16,9 C 6,4 km/h (2 Bft) 100,00 %
14.06.2018 12:55 16,9 C 22,8 C 66 % 1015,1 hPa 0,0 l/m 5,0 km/h (1 Bft) N 360 0 min 0,000 mm 2,2 UV-I 302 W/m 10,5 C 16,9 C 12,9 km/h (3 Bft) 100,00 %
14.06.2018 12:56 16,8 C 22,8 C 68 % 1015,1 hPa 0,0 l/m 6,6 km/h (2 Bft) NO 34 0 min 0,000 mm 2,2 UV-I 296 W/m 10,9 C 16,7 C 12,9 km/h (3 Bft) 100,00 %
14.06.2018 12:57 16,8 C 22,8 C 66 % 1015,1 hPa 0,0 l/m 6,6 km/h (2 Bft) N 360 0 min 0,000 mm 2,1 UV-I 293 W/m 10,4 C 16,7 C 11,3 km/h (2 Bft) 100,00 %
14.06.2018 12:58 16,8 C 22,8 C 69 % 1015,1 hPa 0,0 l/m 7,3 km/h (2 Bft) N 351 0 min 0,000 mm 2,1 UV-I 291 W/m 11,1 C 16,3 C 12,9 km/h (3 Bft) 100,00 %
14.06.2018 12:59 16,7 C 22,8 C 67 % 1015,1 hPa 0,0 l/m 6,4 km/h (2 Bft) NO 40 0 min 0,000 mm 2,1 UV-I 293 W/m 10,5 C 16,7 C 8,0 km/h (2 Bft) 100,00 %
14.06.2018 13:00 16,7 C 22,8 C 68 % 1015,1 hPa 0,0 l/m 7,4 km/h (2 Bft) N-NO 17 0 min 0,406 mm 2,2 UV-I 295 W/m 10,8 C 16,2 C 11,3 km/h (2 Bft) 100,00 %
14.06.2018 13:02 16,6 C 22,8 C 70 % 1015,1 hPa 0,0 l/m 8,6 km/h (2 Bft) N-NO 22 0 min 0,000 mm 2,2 UV-I 294 W/m 11,1 C 15,5 C 12,9 km/h (3 Bft) 97,56 %
14.06.2018 13:03 16,6 C 22,8 C 68 % 1015,1 hPa 0,0 l/m 9,3 km/h (2 Bft) N 349 0 min 0,000 mm 2,1 UV-I 287 W/m 10,7 C 15,2 C 12,9 km/h (3 Bft) 100,00 %
14.06.2018 13:04 16,6 C 22,8 C 66 % 1015,1 hPa 0,0 l/m 5,5 km/h (1 Bft) N-NW 329 0 min 0,000 mm 2,1 UV-I 276 W/m 10,2 C 16,6 C 6,4 km/h (2 Bft) 97,94 %
14.06.2018 13:05 16,6 C 22,8 C 70 % 1015,1 hPa 0,0 l/m 4,8 km/h (1 Bft) N 355 0 min 0,000 mm 2,0 UV-I 267 W/m 11,1 C 16,6 C 8,0 km/h (2 Bft) 95,24 %
14.06.2018 13:06 16,5 C 22,8 C 68 % 1015,1 hPa 0,0 l/m 6,2 km/h (2 Bft) NW 310 0 min 0,000 mm 1,9 UV-I 259 W/m 10,6 C 16,5 C 8,0 km/h (2 Bft) 100,00 %
14.06.2018 13:07 16,4 C 22,8 C 67 % 1015,1 hPa 0,0 l/m 4,3 km/h (1 Bft) N 355 0 min 0,000 mm 1,8 UV-I 255 W/m 10,3 C 16,4 C 8,0 km/h (2 Bft) 100,00 %
14.06.2018 13:08 16,4 C 22,8 C 66 % 1015,1 hPa 0,0 l/m 7,2 km/h (2 Bft) N-NW 340 0 min 0,000 mm 1,8 UV-I 251 W/m 10,0 C 16,0 C 8,0 km/h (2 Bft) 100,00 %
14.06.2018 13:09 16,3 C 22,8 C 67 % 1015,1 hPa 0,0 l/m 5,0 km/h (1 Bft) W 259 0 min 0,000 mm 1,8 UV-I 249 W/m 10,2 C 16,3 C 12,9 km/h (3 Bft) 100,00 %
14.06.2018 13:10 16,3 C 22,8 C 69 % 1015,1 hPa 0,0 l/m 5,0 km/h (1 Bft) N-NO 27 0 min 0,000 mm 1,8 UV-I 248 W/m 10,6 C 16,3 C 6,4 km/h (2 Bft) 100,00 %
14.06.2018 13:11 16,3 C 22,8 C 71 % 1015,0 hPa 0,0 l/m 6,0 km/h (2 Bft) N-NO 29 0 min 0,000 mm 1,8 UV-I 247 W/m 11,0 C 16,3 C 9,7 km/h (2 Bft) 100,00 %
14.06.2018 13:12 16,3 C 22,8 C 69 % 1015,0 hPa 0,0 l/m 4,7 km/h (1 Bft) N-NO 29 0 min 0,000 mm 1,8 UV-I 246 W/m 10,6 C 16,3 C 6,4 km/h (2 Bft) 100,00 %
14.06.2018 13:13 16,3 C 22,8 C 69 % 1015,0 hPa 0,0 l/m 4,7 km/h (1 Bft) N 351 0 min 0,000 mm 1,8 UV-I 244 W/m 10,6 C 16,3 C 6,4 km/h (2 Bft) 100,00 %
14.06.2018 13:14 16,3 C 22,8 C 70 % 1015,0 hPa 0,0 l/m 9,9 km/h (2 Bft) N-NO 26 0 min 0,000 mm 1,7 UV-I 242 W/m 10,8 C 14,6 C 16,1 km/h (3 Bft) 100,00 %
14.06.2018 13:15 16,3 C 22,8 C 70 % 1015,0 hPa 0,0 l/m 7,6 km/h (2 Bft) N 5 0 min 0,000 mm 1,7 UV-I 237 W/m 10,8 C 15,7 C 12,9 km/h (3 Bft) 100,00 %
14.06.2018 13:16 16,3 C 22,8 C 72 % 1015,0 hPa 0,0 l/m 6,9 km/h (2 Bft) NO 35 0 min 0,000 mm 1,7 UV-I 232 W/m 11,2 C 16,0 C 9,7 km/h (2 Bft) 100,00 %
14.06.2018 13:17 16,3 C 22,8 C 71 % 1015,0 hPa 0,0 l/m 5,2 km/h (1 Bft) N-NO 13 0 min 0,000 mm 1,6 UV-I 228 W/m 11,0 C 16,3 C 6,4 km/h (2 Bft) 96,30 %
14.06.2018 13:18 16,3 C 22,8 C 74 % 1015,0 hPa 0,0 l/m 4,7 km/h (1 Bft) NO 35 0 min 0,000 mm 1,6 UV-I 225 W/m 11,7 C 16,3 C 6,4 km/h (2 Bft) 95,65 %
14.06.2018 13:19 16,3 C 22,8 C 73 % 1015,0 hPa 0,0 l/m 6,9 km/h (2 Bft) N 360 0 min 0,000 mm 1,6 UV-I 225 W/m 11,4 C 16,0 C 8,0 km/h (2 Bft) 100,00 %
14.06.2018 13:20 16,3 C 22,8 C 71 % 1015,0 hPa 0,0 l/m 11,1 km/h (2 Bft) N-NO 30 0 min 0,000 mm 1,6 UV-I 227 W/m 11,0 C 14,1 C 16,1 km/h (3 Bft) 100,00 %
14.06.2018 13:21 16,3 C 22,8 C 70 % 1015,0 hPa 0,0 l/m 9,7 km/h (2 Bft) N-NO 24 0 min 0,000 mm 1,6 UV-I 230 W/m 10,8 C 14,7 C 16,1 km/h (3 Bft) 100,00 %
14.06.2018 13:22 16,2 C 22,8 C 71 % 1015,1 hPa 0,0 l/m 6,4 km/h (2 Bft) N 11 0 min 0,000 mm 1,6 UV-I 234 W/m 10,9 C 16,2 C 11,3 km/h (2 Bft) 100,00 %
14.06.2018 13:23 16,2 C 22,8 C 71 % 1015,0 hPa 0,0 l/m 7,6 km/h (2 Bft) N 355 0 min 0,000 mm 1,6 UV-I 237 W/m 10,9 C 15,6 C 11,3 km/h (2 Bft) 100,00 %
14.06.2018 13:24 16,2 C 22,8 C 71 % 1015,0 hPa 0,0 l/m 13,0 km/h (3 Bft) NO 34 0 min 0,000 mm 1,7 UV-I 239 W/m 10,9 C 13,3 C 16,1 km/h (3 Bft) 100,00 %
14.06.2018 13:25 16,2 C 22,8 C 72 % 1015,0 hPa 0,0 l/m 13,6 km/h (3 Bft) N 11 0 min 0,000 mm 1,7 UV-I 241 W/m 11,1 C 13,1 C 17,7 km/h (3 Bft) 95,65 %
14.06.2018 13:26 16,1 C 22,8 C 72 % 1015,0 hPa 0,0 l/m 9,8 km/h (2 Bft) N-NO 12 0 min 0,000 mm 1,7 UV-I 243 W/m 11,0 C 14,4 C 14,5 km/h (3 Bft) 100,00 %
14.06.2018 13:27 16,1 C 22,8 C 70 % 1015,0 hPa 0,0 l/m 7,4 km/h (2 Bft) N-NO 24 0 min 0,000 mm 1,7 UV-I 243 W/m 10,6 C 15,6 C 12,9 km/h (3 Bft) 100,00 %
14.06.2018 13:28 16,1 C 22,8 C 71 % 1015,0 hPa 0,0 l/m 10,4 km/h (2 Bft) N 355 0 min 0,000 mm 1,7 UV-I 244 W/m 10,8 C 14,2 C 12,9 km/h (3 Bft) 100,00 %
14.06.2018 13:29 16,1 C 22,8 C 70 % 1015,1 hPa 0,0 l/m 8,9 km/h (2 Bft) N-NO 20 0 min 0,000 mm 1,7 UV-I 247 W/m 10,6 C 14,8 C 12,9 km/h (3 Bft) 100,00 %
14.06.2018 13:30 16,1 C 22,8 C 71 % 1015,1 hPa 0,0 l/m 10,9 km/h (2 Bft) N 355 0 min 0,000 mm 1,8 UV-I 251 W/m 10,8 C 14,0 C 16,1 km/h (3 Bft) 100,00 %
14.06.2018 13:31 16,1 C 22,8 C 71 % 1015,0 hPa 0,0 l/m 7,8 km/h (2 Bft) N 355 0 min 0,000 mm 1,8 UV-I 256 W/m 10,8 C 15,4 C 11,3 km/h (2 Bft) 100,00 %
14.06.2018 13:32 16,1 C 22,8 C 70 % 1015,0 hPa 0,0 l/m 7,6 km/h (2 Bft) N-NO 12 0 min 0,000 mm 1,9 UV-I 262 W/m 10,6 C 15,5 C 9,7 km/h (2 Bft) 100,00 %
14.06.2018 13:33 16,1 C 22,8 C 72 % 1015,0 hPa 0,0 l/m 7,2 km/h (2 Bft) N-NO 30 0 min 0,000 mm 1,9 UV-I 271 W/m 11,0 C 15,7 C 14,5 km/h (3 Bft) 100,00 %
14.06.2018 13:34 16,1 C 22,8 C 73 % 1015,0 hPa 0,0 l/m 7,6 km/h (2 Bft) NO 46 0 min 0,000 mm 2,0 UV-I 276 W/m 11,3 C 15,5 C 9,7 km/h (2 Bft) 100,00 %
14.06.2018 13:35 16,2 C 22,8 C 73 % 1015,0 hPa 0,0 l/m 9,9 km/h (2 Bft) N-NO 23 0 min 0,000 mm 2,0 UV-I 279 W/m 11,4 C 14,5 C 11,3 km/h (2 Bft) 100,00 %
14.06.2018 13:36 16,2 C 22,8 C 73 % 1015,0 hPa 0,0 l/m 6,3 km/h (2 Bft) N-NO 18 0 min 0,000 mm 2,0 UV-I 281 W/m 11,4 C 16,2 C 11,3 km/h (2 Bft) 100,00 %
14.06.2018 13:37 16,2 C 22,8 C 73 % 1015,0 hPa 0,0 l/m 7,6 km/h (2 Bft) N-NO 13 0 min 0,000 mm 2,1 UV-I 284 W/m 11,4 C 15,6 C 9,7 km/h (2 Bft) 100,00 %
14.06.2018 13:38 16,2 C 22,8 C 73 % 1015,0 hPa 0,0 l/m 6,8 km/h (2 Bft) N 10 0 min 0,000 mm 2,1 UV-I 289 W/m 11,4 C 16,0 C 11,3 km/h (2 Bft) 100,00 %
14.06.2018 13:39 16,3 C 22,8 C 74 % 1015,0 hPa 0,0 l/m 6,1 km/h (2 Bft) N-NO 22 0 min 0,000 mm 2,1 UV-I 295 W/m 11,7 C 16,3 C 11,3 km/h (2 Bft) 100,00 %
14.06.2018 13:40 16,3 C 22,8 C 73 % 1015,0 hPa 0,0 l/m 8,4 km/h (2 Bft) N 355 0 min 0,000 mm 2,2 UV-I 300 W/m 11,4 C 15,3 C 12,9 km/h (3 Bft) 100,00 %
14.06.2018 13:41 16,3 C 22,8 C 71 % 1015,0 hPa 0,0 l/m 5,9 km/h (2 Bft) NW 325 0 min 0,000 mm 2,2 UV-I 307 W/m 11,0 C 16,3 C 12,9 km/h (3 Bft) 100,00 %
14.06.2018 13:42 16,3 C 22,8 C 71 % 1015,0 hPa 0,0 l/m 5,1 km/h (1 Bft) N-NO 26 0 min 0,000 mm 2,3 UV-I 311 W/m 11,0 C 16,3 C 8,0 km/h (2 Bft) 100,00 %
14.06.2018 13:43 16,3 C 22,8 C 73 % 1014,9 hPa 0,0 l/m 6,0 km/h (2 Bft) N-NO 21 0 min 0,000 mm 2,4 UV-I 319 W/m 11,4 C 16,3 C 9,7 km/h (2 Bft) 100,00 %
14.06.2018 13:44 16,3 C 22,8 C 73 % 1014,9 hPa 0,0 l/m 6,0 km/h (2 Bft) NO 42 0 min 0,000 mm 2,4 UV-I 323 W/m 11,4 C 16,3 C 8,0 km/h (2 Bft) 100,00 %
14.06.2018 13:45 16,3 C 22,8 C 72 % 1014,9 hPa 0,0 l/m 3,0 km/h (1 Bft) NO 41 0 min 0,000 mm 2,5 UV-I 327 W/m 11,2 C 16,3 C 4,8 km/h (1 Bft) 100,00 %
14.06.2018 13:46 16,4 C 22,8 C 74 % 1015,0 hPa 0,0 l/m 6,3 km/h (2 Bft) NW 311 0 min 0,000 mm 2,6 UV-I 331 W/m 11,8 C 16,4 C 9,7 km/h (2 Bft) 100,00 %
14.06.2018 13:47 16,4 C 22,8 C 74 % 1014,9 hPa 0,0 l/m 9,6 km/h (2 Bft) N-NO 22 0 min 0,000 mm 2,6 UV-I 334 W/m 11,8 C 14,8 C 16,1 km/h (3 Bft) 100,00 %
14.06.2018 13:48 16,4 C 22,8 C 71 % 1014,9 hPa 0,0 l/m 10,6 km/h (2 Bft) N-NW 333 0 min 0,000 mm 2,7 UV-I 336 W/m 11,1 C 14,4 C 14,5 km/h (3 Bft) 100,00 %
14.06.2018 13:49 16,4 C 22,8 C 70 % 1014,9 hPa 0,0 l/m 10,2 km/h (2 Bft) N-NW 327 0 min 0,000 mm 2,7 UV-I 336 W/m 10,9 C 14,6 C 12,9 km/h (3 Bft) 100,00 %
14.06.2018 13:50 16,4 C 22,8 C 70 % 1014,9 hPa 0,0 l/m 6,6 km/h (2 Bft) N 355 0 min 0,000 mm 2,7 UV-I 339 W/m 10,9 C 16,3 C 8,0 km/h (2 Bft) 100,00 %
14.06.2018 13:51 16,4 C 22,8 C 70 % 1014,9 hPa 0,0 l/m 7,6 km/h (2 Bft) N-NW 347 0 min 0,000 mm 2,7 UV-I 344 W/m 10,9 C 15,8 C 9,7 km/h (2 Bft) 100,00 %
14.06.2018 13:52 16,4 C 22,8 C 72 % 1014,9 hPa 0,0 l/m 6,3 km/h (2 Bft) N-NO 21 0 min 0,000 mm 2,8 UV-I 351 W/m 11,3 C 16,4 C 12,9 km/h (3 Bft) 100,00 %
14.06.2018 13:53 16,5 C 22,8 C 70 % 1014,8 hPa 0,0 l/m 8,4 km/h (2 Bft) N-NO 25 0 min 0,000 mm 2,9 UV-I 358 W/m 11,0 C 15,5 C 14,5 km/h (3 Bft) 100,00 %
14.06.2018 13:54 16,5 C 22,8 C 71 % 1014,8 hPa 0,0 l/m 9,5 km/h (2 Bft) N-NO 17 0 min 0,000 mm 2,9 UV-I 367 W/m 11,2 C 15,0 C 12,9 km/h (3 Bft) 96,15 %
14.06.2018 13:55 16,5 C 22,8 C 68 % 1014,9 hPa 0,0 l/m 6,6 km/h (2 Bft) N 355 0 min 0,000 mm 2,9 UV-I 375 W/m 10,6 C 16,4 C 8,0 km/h (2 Bft) 91,67 %
14.06.2018 13:56 16,5 C 22,8 C 70 % 1014,9 hPa 0,0 l/m 5,2 km/h (1 Bft) N 351 0 min 0,000 mm 3,0 UV-I 385 W/m 11,0 C 16,5 C 8,0 km/h (2 Bft) 100,00 %
14.06.2018 13:57 16,5 C 22,8 C 69 % 1014,9 hPa 0,0 l/m 4,7 km/h (1 Bft) N 360 0 min 0,000 mm 3,0 UV-I 389 W/m 10,8 C 16,5 C 6,4 km/h (2 Bft) 95,83 %
14.06.2018 13:58 16,6 C 22,8 C 71 % 1014,8 hPa 0,0 l/m 5,9 km/h (2 Bft) N 5 0 min 0,000 mm 3,0 UV-I 386 W/m 11,3 C 16,6 C 8,0 km/h (2 Bft) 96,15 %
14.06.2018 13:59 16,6 C 22,8 C 67 % 1014,8 hPa 0,0 l/m 3,7 km/h (1 Bft) N-NO 19 0 min 0,000 mm 3,1 UV-I 380 W/m 10,4 C 16,6 C 4,8 km/h (1 Bft) 96,30 %
14.06.2018 14:00 16,6 C 22,8 C 67 % 1014,8 hPa 0,0 l/m 6,8 km/h (2 Bft) N-NO 15 0 min 0,000 mm 3,0 UV-I 376 W/m 10,4 C 16,4 C 11,3 km/h (2 Bft) 95,65 %
14.06.2018 14:01 16,6 C 22,8 C 67 % 1014,8 hPa 0,0 l/m 6,7 km/h (2 Bft) N 355 0 min 0,178 mm 3,0 UV-I 370 W/m 10,4 C 16,5 C 8,0 km/h (2 Bft) 96,30 %
14.06.2018 14:02 16,7 C 22,8 C 68 % 1014,8 hPa 0,0 l/m 6,0 km/h (2 Bft) N-NO 20 0 min 0,000 mm 3,0 UV-I 364 W/m 10,8 C 16,7 C 8,0 km/h (2 Bft) 98,04 %
14.06.2018 14:03 16,7 C 22,8 C 65 % 1014,8 hPa 0,0 l/m 4,6 km/h (1 Bft) N-NO 29 0 min 0,000 mm 3,0 UV-I 360 W/m 10,1 C 16,7 C 6,4 km/h (2 Bft) 94,74 %
14.06.2018 14:04 16,7 C 22,8 C 69 % 1014,8 hPa 0,0 l/m 6,2 km/h (2 Bft) NO 44 0 min 0,000 mm 2,9 UV-I 356 W/m 11,0 C 16,7 C 8,0 km/h (2 Bft) 95,83 %
14.06.2018 14:05 16,7 C 22,8 C 67 % 1014,8 hPa 0,0 l/m 3,7 km/h (1 Bft) N-NO 13 0 min 0,000 mm 2,9 UV-I 352 W/m 10,5 C 16,7 C 6,4 km/h (2 Bft) 96,15 %
14.06.2018 14:06 16,7 C 22,8 C 64 % 1014,8 hPa 0,0 l/m 0,3 km/h (0 Bft) N-NO 13 0 min 0,000 mm 2,9 UV-I 350 W/m 9,9 C 16,7 C 1,6 km/h (1 Bft) 98,03 %
14.06.2018 14:07 16,6 C 22,8 C 63 % 1014,8 hPa 0,0 l/m 0,3 km/h (0 Bft) N-NO 13 0 min 0,000 mm 2,9 UV-I 352 W/m 9,5 C 16,6 C 1,6 km/h (1 Bft) 97,73 %
14.06.2018 14:08 16,6 C 22,8 C 63 % 1014,7 hPa 0,0 l/m 0,0 km/h (0 Bft) N-NO 13 0 min 0,000 mm 3,0 UV-I 355 W/m 9,5 C 16,6 C 0,0 km/h (0 Bft) 95,83 %
14.06.2018 14:09 16,6 C 22,8 C 65 % 1014,7 hPa 0,0 l/m 0,0 km/h (0 Bft) N-NO 13 0 min 0,000 mm 3,0 UV-I 362 W/m 10,0 C 16,6 C 0,0 km/h (0 Bft) 95,65 %
14.06.2018 14:10 16,7 C 22,8 C 66 % 1014,7 hPa 0,0 l/m 1,2 km/h (1 Bft) N-NO 13 0 min 0,000 mm 3,1 UV-I 368 W/m 10,3 C 16,7 C 4,8 km/h (1 Bft) 100,00 %
14.06.2018 14:11 16,8 C 22,8 C 68 % 1014,7 hPa 0,0 l/m 6,4 km/h (2 Bft) N-NW 348 0 min 0,000 mm 3,1 UV-I 374 W/m 10,9 C 16,8 C 9,7 km/h (2 Bft) 95,65 %
14.06.2018 14:12 16,8 C 22,8 C 65 % 1014,7 hPa 0,0 l/m 1,1 km/h (1 Bft) N-NW 348 0 min 0,000 mm 3,1 UV-I 376 W/m 10,2 C 16,8 C 1,6 km/h (1 Bft) 96,30 %
14.06.2018 14:13 16,8 C 22,8 C 63 % 1014,7 hPa 0,0 l/m 3,9 km/h (1 Bft) NO 43 0 min 0,000 mm 3,1 UV-I 376 W/m 9,7 C 16,8 C 9,7 km/h (2 Bft) 96,15 %
14.06.2018 14:14 16,9 C 22,8 C 66 % 1014,7 hPa 0,0 l/m 8,8 km/h (2 Bft) NO 39 0 min 0,000 mm 3,1 UV-I 376 W/m 10,5 C 15,7 C 11,3 km/h (2 Bft) 100,00 %
14.06.2018 14:15 16,9 C 22,8 C 66 % 1014,7 hPa 0,0 l/m 7,3 km/h (2 Bft) NO 37 0 min 0,000 mm 3,1 UV-I 379 W/m 10,5 C 16,4 C 9,7 km/h (2 Bft) 96,15 %
14.06.2018 14:16 16,9 C 22,8 C 67 % 1014,7 hPa 0,0 l/m 4,4 km/h (1 Bft) NO 34 0 min 0,000 mm 3,1 UV-I 384 W/m 10,7 C 16,9 C 6,4 km/h (2 Bft) 96,30 %
14.06.2018 14:17 16,9 C 22,8 C 67 % 1014,7 hPa 0,0 l/m 6,4 km/h (2 Bft) NO 34 0 min 0,000 mm 3,1 UV-I 390 W/m 10,7 C 16,9 C 8,0 km/h (2 Bft) 100,00 %
14.06.2018 14:18 17,1 C 22,8 C 68 % 1014,7 hPa 0,0 l/m 7,7 km/h (2 Bft) N-NW 348 0 min 0,000 mm 3,2 UV-I 398 W/m 11,1 C 16,5 C 11,3 km/h (2 Bft) 95,65 %
14.06.2018 14:19 17,1 C 22,8 C 66 % 1014,7 hPa 0,0 l/m 6,0 km/h (2 Bft) N-NO 20 0 min 0,000 mm 3,2 UV-I 405 W/m 10,7 C 17,1 C 11,3 km/h (2 Bft) 100,00 %
14.06.2018 14:20 17,1 C 22,8 C 67 % 1014,7 hPa 0,0 l/m 11,1 km/h (2 Bft) N-NO 13 0 min 0,000 mm 3,2 UV-I 410 W/m 10,9 C 15,0 C 14,5 km/h (3 Bft) 95,83 %
14.06.2018 14:21 17,1 C 22,8 C 64 % 1014,7 hPa 0,0 l/m 8,8 km/h (2 Bft) N-NW 345 0 min 0,000 mm 3,2 UV-I 411 W/m 10,2 C 15,9 C 12,9 km/h (3 Bft) 96,55 %
14.06.2018 14:22 17,1 C 22,8 C 65 % 1014,7 hPa 0,0 l/m 7,7 km/h (2 Bft) N-NO 28 0 min 0,000 mm 3,2 UV-I 410 W/m 10,5 C 16,5 C 12,9 km/h (3 Bft) 93,33 %
14.06.2018 14:23 17,1 C 22,8 C 66 % 1014,7 hPa 0,0 l/m 8,4 km/h (2 Bft) N-NO 24 0 min 0,000 mm 3,2 UV-I 413 W/m 10,7 C 16,1 C 9,7 km/h (2 Bft) 96,30 %
14.06.2018 14:24 17,1 C 22,8 C 65 % 1014,7 hPa 0,0 l/m 5,8 km/h (2 Bft) N 11 0 min 0,000 mm 3,2 UV-I 414 W/m 10,5 C 17,1 C 8,0 km/h (2 Bft) 96,15 %
14.06.2018 14:25 17,1 C 22,8 C 66 % 1014,7 hPa 0,0 l/m 5,6 km/h (1 Bft) N 9 0 min 0,000 mm 3,2 UV-I 422 W/m 10,7 C 17,1 C 8,0 km/h (2 Bft) 95,83 %
14.06.2018 14:26 17,1 C 22,8 C 61 % 1014,7 hPa 0,0 l/m 2,0 km/h (1 Bft) N 9 0 min 0,000 mm 3,4 UV-I 447 W/m 9,5 C 17,1 C 3,2 km/h (1 Bft) 96,15 %
14.06.2018 14:28 17,0 C 22,8 C 61 % 1014,6 hPa 0,0 l/m 1,0 km/h (0 Bft) N 9 2 min 0,000 mm 3,5 UV-I 491 W/m 9,4 C 17,0 C 3,2 km/h (1 Bft) 95,74 %
14.06.2018 14:29 17,1 C 22,8 C 60 % 1014,6 hPa 0,0 l/m 2,6 km/h (1 Bft) N 5 1 min 0,000 mm 3,5 UV-I 471 W/m 9,3 C 17,1 C 3,2 km/h (1 Bft) 100,00 %
14.06.2018 14:30 17,1 C 22,8 C 61 % 1014,7 hPa 0,0 l/m 2,3 km/h (1 Bft) N 5 1 min 0,000 mm 3,6 UV-I 488 W/m 9,5 C 17,1 C 3,2 km/h (1 Bft) 96,15 %
14.06.2018 14:31 17,2 C 22,8 C 61 % 1014,6 hPa 0,0 l/m 2,9 km/h (1 Bft) N 9 1 min 0,000 mm 3,6 UV-I 491 W/m 9,6 C 17,2 C 3,2 km/h (1 Bft) 95,83 %
14.06.2018 14:32 17,3 C 22,8 C 63 % 1014,7 hPa 0,0 l/m 3,8 km/h (1 Bft) NO 44 1 min 0,000 mm 3,6 UV-I 482 W/m 10,2 C 17,3 C 6,4 km/h (2 Bft) 92,31 %
14.06.2018 14:33 17,4 C 22,8 C 65 % 1014,6 hPa 0,0 l/m 8,0 km/h (2 Bft) N-NW 339 1 min 0,000 mm 3,6 UV-I 479 W/m 10,8 C 16,6 C 12,9 km/h (3 Bft) 100,00 %
14.06.2018 14:34 17,6 C 22,8 C 65 % 1014,6 hPa 0,0 l/m 8,5 km/h (2 Bft) NO 36 1 min 0,000 mm 3,6 UV-I 487 W/m 10,9 C 16,6 C 14,5 km/h (3 Bft) 96,15 %
14.06.2018 14:35 17,6 C 22,8 C 61 % 1014,6 hPa 0,0 l/m 10,6 km/h (2 Bft) N-NO 24 1 min 0,000 mm 3,6 UV-I 492 W/m 10,0 C 15,8 C 17,7 km/h (3 Bft) 100,00 %
14.06.2018 14:36 17,6 C 22,8 C 62 % 1014,7 hPa 0,0 l/m 3,7 km/h (1 Bft) NO 36 1 min 0,000 mm 3,7 UV-I 508 W/m 10,2 C 17,6 C 8,0 km/h (2 Bft) 92,31 %
14.06.2018 14:38 17,5 C 22,8 C 59 % 1014,6 hPa 0,0 l/m 5,7 km/h (1 Bft) N-NW 338 2 min 0,000 mm 4,1 UV-I 547 W/m 9,4 C 17,5 C 11,3 km/h (2 Bft) 90,24 %
14.06.2018 14:39 17,6 C 22,8 C 61 % 1014,6 hPa 0,0 l/m 4,1 km/h (1 Bft) W-NW 296 1 min 0,000 mm 4,0 UV-I 542 W/m 10,0 C 17,6 C 6,4 km/h (2 Bft) 95,83 %
14.06.2018 14:40 17,6 C 22,8 C 58 % 1014,6 hPa 0,0 l/m 3,0 km/h (1 Bft) W-NW 296 1 min 0,000 mm 4,0 UV-I 563 W/m 9,2 C 17,6 C 4,8 km/h (1 Bft) 100,00 %
14.06.2018 14:41 17,5 C 22,8 C 62 % 1014,6 hPa 0,0 l/m 0,7 km/h (0 Bft) W-NW 296 1 min 0,000 mm 4,4 UV-I 603 W/m 10,1 C 17,5 C 3,2 km/h (1 Bft) 97,37 %
14.06.2018 14:42 17,6 C 22,8 C 59 % 1014,6 hPa 0,0 l/m 0,9 km/h (0 Bft) N-NW 344 1 min 0,000 mm 4,7 UV-I 802 W/m 9,5 C 17,6 C 3,2 km/h (1 Bft) 100,00 %
14.06.2018 14:43 17,7 C 22,8 C 58 % 1014,6 hPa 0,0 l/m 5,7 km/h (1 Bft) N-NW 344 1 min 0,000 mm 4,5 UV-I 802 W/m 9,3 C 17,7 C 8,0 km/h (2 Bft) 96,15 %
14.06.2018 14:44 17,8 C 22,8 C 60 % 1014,6 hPa 0,0 l/m 6,1 km/h (2 Bft) W-NW 290 1 min 0,000 mm 4,6 UV-I 798 W/m 9,9 C 17,8 C 11,3 km/h (2 Bft) 100,00 %
14.06.2018 14:45 17,9 C 22,8 C 59 % 1014,6 hPa 0,0 l/m 4,9 km/h (1 Bft) NW 321 1 min 0,000 mm 4,6 UV-I 738 W/m 9,8 C 17,9 C 9,7 km/h (2 Bft) 91,30 %
14.06.2018 14:46 17,9 C 22,8 C 58 % 1014,6 hPa 0,0 l/m 6,6 km/h (2 Bft) W-SW 258 1 min 0,000 mm 4,4 UV-I 641 W/m 9,5 C 17,8 C 11,3 km/h (2 Bft) 100,00 %
14.06.2018 14:48 18,1 C 22,8 C 63 % 1014,5 hPa 0,0 l/m 5,6 km/h (1 Bft) N 355 2 min 0,000 mm 4,5 UV-I 603 W/m 10,9 C 18,1 C 11,3 km/h (2 Bft) 96,00 %
14.06.2018 14:49 18,2 C 22,8 C 60 % 1014,5 hPa 0,0 l/m 2,3 km/h (1 Bft) N 355 1 min 0,000 mm 4,5 UV-I 698 W/m 10,3 C 18,2 C 4,8 km/h (1 Bft) 100,00 %
14.06.2018 14:50 18,3 C 22,8 C 57 % 1014,5 hPa 0,0 l/m 5,6 km/h (1 Bft) NW 324 1 min 0,000 mm 4,8 UV-I 833 W/m 9,6 C 18,3 C 8,0 km/h (2 Bft) 100,00 %
14.06.2018 14:51 18,3 C 22,8 C 55 % 1014,5 hPa 0,0 l/m 2,0 km/h (1 Bft) NW 324 1 min 0,000 mm 4,9 UV-I 875 W/m 9,1 C 18,3 C 3,2 km/h (1 Bft) 95,65 %
14.06.2018 14:52 18,3 C 22,8 C 57 % 1014,5 hPa 0,0 l/m 0,1 km/h (0 Bft) NW 325 1 min 0,000 mm 5,0 UV-I 894 W/m 9,6 C 18,3 C 1,6 km/h (1 Bft) 96,30 %
14.06.2018 14:53 18,4 C 22,8 C 59 % 1014,5 hPa 0,0 l/m 2,6 km/h (1 Bft) N-NW 335 1 min 0,000 mm 5,0 UV-I 912 W/m 10,2 C 18,4 C 6,4 km/h (2 Bft) 100,00 %
14.06.2018 14:54 18,6 C 22,8 C 58 % 1014,5 hPa 0,0 l/m 3,9 km/h (1 Bft) W-SW 245 1 min 0,000 mm 4,7 UV-I 861 W/m 10,2 C 18,6 C 6,4 km/h (2 Bft) 96,30 %
14.06.2018 14:55 18,7 C 22,8 C 57 % 1014,5 hPa 0,0 l/m 5,6 km/h (1 Bft) W 263 1 min 0,000 mm 3,8 UV-I 682 W/m 10,0 C 18,7 C 9,7 km/h (2 Bft) 100,00 %
14.06.2018 14:56 18,7 C 22,8 C 55 % 1014,5 hPa 0,0 l/m 3,2 km/h (1 Bft) W 263 0 min 0,000 mm 4,2 UV-I 450 W/m 9,5 C 18,7 C 4,8 km/h (1 Bft) 95,83 %
14.06.2018 14:58 18,8 C 22,8 C 59 % 1014,5 hPa 0,0 l/m 3,7 km/h (1 Bft) W-SW 254 2 min 0,000 mm 5,1 UV-I 670 W/m 10,6 C 18,8 C 6,4 km/h (2 Bft) 98,11 %
14.06.2018 14:59 18,8 C 22,8 C 54 % 1014,5 hPa 0,0 l/m 4,2 km/h (1 Bft) W-SW 257 1 min 0,000 mm 5,1 UV-I 890 W/m 9,3 C 18,8 C 6,4 km/h (2 Bft) 100,00 %
14.06.2018 15:00 18,8 C 22,8 C 55 % 1014,5 hPa 0,0 l/m 5,6 km/h (1 Bft) N 5 1 min 0,330 mm 5,0 UV-I 865 W/m 9,6 C 18,8 C 12,9 km/h (3 Bft) 95,65 %
14.06.2018 15:01 18,9 C 22,8 C 59 % 1014,4 hPa 0,0 l/m 7,4 km/h (2 Bft) N-NO 16 1 min 0,000 mm 5,0 UV-I 864 W/m 10,7 C 18,5 C 11,3 km/h (2 Bft) 95,83 %
14.06.2018 15:03 18,8 C 22,8 C 54 % 1014,4 hPa 0,0 l/m 3,0 km/h (1 Bft) SW 229 2 min 0,000 mm 4,8 UV-I 829 W/m 9,3 C 18,8 C 6,4 km/h (2 Bft) 100,00 %
14.06.2018 15:04 18,8 C 22,8 C 54 % 1014,4 hPa 0,0 l/m 6,4 km/h (2 Bft) W 273 1 min 0,000 mm 4,7 UV-I 813 W/m 9,3 C 18,8 C 11,3 km/h (2 Bft) 96,55 %
14.06.2018 15:05 18,8 C 22,8 C 53 % 1014,4 hPa 0,0 l/m 9,1 km/h (2 Bft) W-NW 288 1 min 0,000 mm 4,7 UV-I 790 W/m 9,0 C 17,6 C 12,9 km/h (3 Bft) 95,83 %
14.06.2018 15:06 18,7 C 22,8 C 54 % 1014,4 hPa 0,0 l/m 8,6 km/h (2 Bft) NW 306 1 min 0,000 mm 4,8 UV-I 811 W/m 9,2 C 17,7 C 12,9 km/h (3 Bft) 100,00 %
14.06.2018 15:07 18,6 C 22,8 C 54 % 1014,4 hPa 0,0 l/m 5,0 km/h (1 Bft) W-NW 285 1 min 0,000 mm 4,8 UV-I 840 W/m 9,1 C 18,6 C 8,0 km/h (2 Bft) 95,83 %
14.06.2018 15:08 18,5 C 22,8 C 54 % 1014,4 hPa 0,0 l/m 4,9 km/h (1 Bft) W-SW 250 1 min 0,000 mm 4,9 UV-I 852 W/m 9,0 C 18,5 C 8,0 km/h (2 Bft) 95,65 %
14.06.2018 15:09 18,6 C 22,8 C 56 % 1014,4 hPa 0,0 l/m 2,6 km/h (1 Bft) W-NW 294 1 min 0,000 mm 4,6 UV-I 850 W/m 9,6 C 18,6 C 4,8 km/h (1 Bft) 96,30 %
14.06.2018 15:10 18,6 C 22,8 C 56 % 1014,4 hPa 0,0 l/m 5,8 km/h (2 Bft) W 281 1 min 0,000 mm 4,8 UV-I 840 W/m 9,6 C 18,6 C 16,1 km/h (3 Bft) 100,00 %
14.06.2018 15:11 18,7 C 22,8 C 54 % 1014,4 hPa 0,0 l/m 8,9 km/h (2 Bft) W-SW 242 1 min 0,000 mm 4,6 UV-I 828 W/m 9,2 C 17,6 C 12,9 km/h (3 Bft) 95,83 %
14.06.2018 15:13 18,6 C 23,3 C 56 % 1014,3 hPa 0,0 l/m 3,8 km/h (1 Bft) N-NO 23 2 min 0,000 mm 3,4 UV-I 713 W/m 9,6 C 18,6 C 8,0 km/h (2 Bft) 97,87 %
14.06.2018 15:14 18,6 C 23,3 C 58 % 1014,3 hPa 0,0 l/m 6,5 km/h (2 Bft) NW 315 1 min 0,000 mm 3,9 UV-I 446 W/m 10,2 C 18,6 C 14,5 km/h (3 Bft) 96,15 %
14.06.2018 15:15 18,6 C 23,3 C 56 % 1014,3 hPa 0,0 l/m 1,8 km/h (1 Bft) NW 317 1 min 0,000 mm 4,5 UV-I 446 W/m 9,6 C 18,6 C 3,2 km/h (1 Bft) 100,00 %
14.06.2018 15:16 18,6 C 23,3 C 60 % 1014,3 hPa 0,0 l/m 3,4 km/h (1 Bft) N-NW 329 1 min 0,000 mm 4,4 UV-I 850 W/m 10,7 C 18,6 C 6,4 km/h (2 Bft) 100,00 %
14.06.2018 15:18 18,7 C 23,3 C 54 % 1014,4 hPa 0,0 l/m 4,7 km/h (1 Bft) N-NW 330 2 min 0,000 mm 4,5 UV-I 783 W/m 9,2 C 18,7 C 6,4 km/h (2 Bft) 96,88 %
14.06.2018 15:19 18,6 C 23,3 C 55 % 1014,4 hPa 0,0 l/m 6,6 km/h (2 Bft) W-NW 285 1 min 0,000 mm 4,1 UV-I 586 W/m 9,4 C 18,5 C 11,3 km/h (2 Bft) 100,00 %
14.06.2018 15:20 18,5 C 23,3 C 53 % 1014,4 hPa 0,0 l/m 3,4 km/h (1 Bft) W 264 1 min 0,000 mm 4,4 UV-I 577 W/m 8,7 C 18,5 C 4,8 km/h (1 Bft) 95,65 %
14.06.2018 15:21 18,4 C 23,3 C 53 % 1014,4 hPa 0,0 l/m 3,0 km/h (1 Bft) S 188 1 min 0,000 mm 4,6 UV-I 577 W/m 8,6 C 18,4 C 6,4 km/h (2 Bft) 95,83 %
14.06.2018 15:22 18,4 C 23,3 C 54 % 1014,3 hPa 0,0 l/m 3,4 km/h (1 Bft) N 351 1 min 0,000 mm 4,3 UV-I 872 W/m 8,9 C 18,4 C 4,8 km/h (1 Bft) 100,00 %
14.06.2018 15:23 18,6 C 23,3 C 57 % 1014,4 hPa 0,0 l/m 5,2 km/h (1 Bft) N-NO 13 1 min 0,000 mm 4,7 UV-I 886 W/m 9,9 C 18,6 C 11,3 km/h (2 Bft) 96,15 %
14.06.2018 15:24 18,7 C 23,3 C 58 % 1014,3 hPa 0,0 l/m 6,1 km/h (2 Bft) N-NO 24 1 min 0,000 mm 4,6 UV-I 868 W/m 10,3 C 18,7 C 9,7 km/h (2 Bft) 100,00 %
14.06.2018 15:25 18,7 C 23,3 C 57 % 1014,3 hPa 0,0 l/m 7,2 km/h (2 Bft) N-NO 20 1 min 0,000 mm 4,7 UV-I 874 W/m 10,0 C 18,3 C 9,7 km/h (2 Bft) 95,65 %
14.06.2018 15:26 18,8 C 23,3 C 56 % 1014,3 hPa 0,0 l/m 5,1 km/h (1 Bft) N-NW 331 1 min 0,000 mm 4,6 UV-I 852 W/m 9,8 C 18,8 C 8,0 km/h (2 Bft) 100,00 %
14.06.2018 15:27 18,9 C 23,3 C 56 % 1014,3 hPa 0,0 l/m 7,6 km/h (2 Bft) N-NO 24 1 min 0,000 mm 4,6 UV-I 855 W/m 9,9 C 18,4 C 12,9 km/h (3 Bft) 95,65 %
14.06.2018 15:28 18,9 C 23,3 C 55 % 1014,3 hPa 0,0 l/m 6,0 km/h (2 Bft) W-NW 288 1 min 0,000 mm 4,2 UV-I 847 W/m 9,7 C 18,9 C 9,7 km/h (2 Bft) 96,30 %
14.06.2018 15:29 18,9 C 23,3 C 52 % 1014,3 hPa 0,0 l/m 7,2 km/h (2 Bft) W 281 1 min 0,000 mm 4,3 UV-I 763 W/m 8,8 C 18,5 C 12,9 km/h (3 Bft) 90,91 %
14.06.2018 15:30 18,8 C 23,3 C 53 % 1014,3 hPa 0,0 l/m 6,6 km/h (2 Bft) N-NW 336 1 min 0,000 mm 4,4 UV-I 811 W/m 9,0 C 18,7 C 9,7 km/h (2 Bft) 100,00 %
14.06.2018 15:31 18,8 C 23,3 C 56 % 1014,3 hPa 0,0 l/m 3,7 km/h (1 Bft) N 355 1 min 0,000 mm 4,4 UV-I 867 W/m 9,8 C 18,8 C 4,8 km/h (1 Bft) 95,65 %
14.06.2018 15:33 18,8 C 23,3 C 52 % 1014,2 hPa 0,0 l/m 4,5 km/h (1 Bft) N-NO 22 2 min 0,000 mm 3,9 UV-I 868 W/m 8,7 C 18,8 C 14,5 km/h (3 Bft) 98,11 %
14.06.2018 15:34 18,8 C 23,3 C 56 % 1014,2 hPa 0,0 l/m 6,8 km/h (2 Bft) N-NO 28 1 min 0,000 mm 3,2 UV-I 868 W/m 9,8 C 18,6 C 9,7 km/h (2 Bft) 100,00 %
14.06.2018 15:35 18,8 C 23,3 C 55 % 1014,2 hPa 0,0 l/m 5,9 km/h (2 Bft) S-SW 208 1 min 0,000 mm 3,6 UV-I 868 W/m 9,6 C 18,8 C 9,7 km/h (2 Bft) 96,67 %
14.06.2018 15:36 18,9 C 23,3 C 56 % 1014,2 hPa 0,0 l/m 5,6 km/h (1 Bft) S-SW 200 1 min 0,000 mm 4,0 UV-I 857 W/m 9,9 C 18,9 C 9,7 km/h (2 Bft) 96,15 %
14.06.2018 15:38 19,3 C 23,3 C 56 % 1014,2 hPa 0,0 l/m 6,9 km/h (2 Bft) NO 43 2 min 0,000 mm 3,4 UV-I 837 W/m 10,3 C 19,1 C 12,9 km/h (3 Bft) 97,87 %
14.06.2018 15:39 19,4 C 23,3 C 59 % 1014,2 hPa 0,0 l/m 9,7 km/h (2 Bft) N-NO 15 1 min 0,000 mm 3,8 UV-I 833 W/m 11,2 C 18,1 C 14,5 km/h (3 Bft) 100,00 %
14.06.2018 15:40 19,3 C 23,3 C 57 % 1014,2 hPa 0,0 l/m 11,4 km/h (2 Bft) N-NO 14 1 min 0,000 mm 3,8 UV-I 784 W/m 10,6 C 17,4 C 14,5 km/h (3 Bft) 95,65 %
14.06.2018 15:41 19,2 C 23,3 C 55 % 1014,2 hPa 0,0 l/m 8,2 km/h (2 Bft) N-NO 23 1 min 0,000 mm 3,7 UV-I 752 W/m 9,9 C 18,4 C 11,3 km/h (2 Bft) 100,00 %
14.06.2018 15:42 19,1 C 23,3 C 58 % 1014,2 hPa 0,0 l/m 7,7 km/h (2 Bft) N-NO 31 1 min 0,000 mm 3,1 UV-I 752 W/m 10,6 C 18,5 C 14,5 km/h (3 Bft) 95,65 %
14.06.2018 15:43 19,1 C 23,3 C 59 % 1014,2 hPa 0,0 l/m 10,3 km/h (2 Bft) N-NW 346 1 min 0,000 mm 3,2 UV-I 752 W/m 10,9 C 17,5 C 14,5 km/h (3 Bft) 100,00 %
14.06.2018 15:44 19,1 C 23,3 C 58 % 1014,1 hPa 0,0 l/m 6,0 km/h (2 Bft) N-NO 33 1 min 0,000 mm 2,7 UV-I 752 W/m 10,6 C 19,1 C 9,7 km/h (2 Bft) 91,30 %
14.06.2018 15:45 18,9 C 23,3 C 56 % 1014,2 hPa 0,0 l/m 5,7 km/h (1 Bft) N-NO 13 0 min 0,000 mm 2,6 UV-I 347 W/m 9,9 C 18,9 C 11,3 km/h (2 Bft) 95,83 %
14.06.2018 15:46 18,7 C 23,3 C 55 % 1014,2 hPa 0,0 l/m 8,6 km/h (2 Bft) N-NW 336 0 min 0,000 mm 2,5 UV-I 301 W/m 9,5 C 17,7 C 11,3 km/h (2 Bft) 95,65 %
14.06.2018 15:48 18,3 C 23,3 C 59 % 1014,1 hPa 0,0 l/m 4,1 km/h (1 Bft) N 5 0 min 0,000 mm 2,4 UV-I 291 W/m 10,1 C 18,3 C 6,4 km/h (2 Bft) 94,00 %
14.06.2018 15:49 18,3 C 23,3 C 59 % 1014,1 hPa 0,0 l/m 5,4 km/h (1 Bft) N-NW 334 0 min 0,000 mm 2,3 UV-I 287 W/m 10,1 C 18,3 C 6,4 km/h (2 Bft) 93,33 %
14.06.2018 15:50 18,2 C 23,3 C 59 % 1014,1 hPa 0,0 l/m 7,9 km/h (2 Bft) N-NW 348 0 min 0,000 mm 2,3 UV-I 287 W/m 10,1 C 17,5 C 9,7 km/h (2 Bft) 96,15 %
14.06.2018 15:51 18,1 C 23,3 C 59 % 1014,1 hPa 0,0 l/m 6,4 km/h (2 Bft) N-NO 24 0 min 0,000 mm 2,3 UV-I 288 W/m 10,0 C 18,1 C 9,7 km/h (2 Bft) 96,67 %
14.06.2018 15:53 18,1 C 23,3 C 58 % 1014,1 hPa 0,0 l/m 3,0 km/h (1 Bft) N-NO 24 0 min 0,000 mm 2,3 UV-I 306 W/m 9,7 C 18,1 C 4,8 km/h (1 Bft) 98,00 %
14.06.2018 15:54 18,1 C 23,3 C 61 % 1014,1 hPa 0,0 l/m 2,6 km/h (1 Bft) N-NO 24 0 min 0,000 mm 2,4 UV-I 375 W/m 10,5 C 18,1 C 3,2 km/h (1 Bft) 100,00 %
14.06.2018 15:55 18,2 C 23,3 C 60 % 1014,1 hPa 0,0 l/m 3,6 km/h (1 Bft) W 273 0 min 0,000 mm 2,5 UV-I 367 W/m 10,3 C 18,2 C 4,8 km/h (1 Bft) 96,15 %
14.06.2018 15:56 18,2 C 23,3 C 56 % 1014,1 hPa 0,0 l/m 3,4 km/h (1 Bft) W 273 0 min 0,000 mm 2,5 UV-I 357 W/m 9,3 C 18,2 C 4,8 km/h (1 Bft) 100,00 %
14.06.2018 15:58 18,2 C 23,3 C 56 % 1014,0 hPa 0,0 l/m 3,2 km/h (1 Bft) W-SW 254 0 min 0,000 mm 3,1 UV-I 395 W/m 9,3 C 18,2 C 4,8 km/h (1 Bft) 97,87 %
14.06.2018 15:59 18,4 C 23,3 C 60 % 1014,0 hPa 0,0 l/m 3,6 km/h (1 Bft) SW 218 1 min 0,000 mm 3,2 UV-I 559 W/m 10,5 C 18,4 C 4,8 km/h (1 Bft) 95,65 %
14.06.2018 16:00 18,5 C 23,3 C 57 % 1014,0 hPa 0,0 l/m 2,0 km/h (1 Bft) W-SW 239 1 min 0,000 mm 3,5 UV-I 559 W/m 9,8 C 18,5 C 3,2 km/h (1 Bft) 100,00 %
14.06.2018 16:02 19,0 C 23,3 C 54 % 1014,0 hPa 0,0 l/m 3,8 km/h (1 Bft) S 191 2 min 0,406 mm 3,3 UV-I 700 W/m 9,5 C 19,0 C 6,4 km/h (2 Bft) 94,64 %
14.06.2018 16:03 19,1 C 23,3 C 53 % 1014,0 hPa 0,0 l/m 3,2 km/h (1 Bft) W-NW 284 1 min 0,000 mm 3,0 UV-I 796 W/m 9,3 C 19,1 C 9,7 km/h (2 Bft) 100,00 %
14.06.2018 16:04 19,2 C 23,3 C 59 % 1014,0 hPa 0,0 l/m 4,2 km/h (1 Bft) W-SW 252 1 min 0,000 mm 2,7 UV-I 519 W/m 11,0 C 19,2 C 6,4 km/h (2 Bft) 91,67 %
14.06.2018 16:05 19,1 C 23,3 C 54 % 1014,0 hPa 0,0 l/m 2,2 km/h (1 Bft) W 264 1 min 0,000 mm 2,5 UV-I 431 W/m 9,6 C 19,1 C 3,2 km/h (1 Bft) 100,00 %
14.06.2018 16:06 19,1 C 23,3 C 59 % 1014,0 hPa 0,0 l/m 4,1 km/h (1 Bft) W-SW 242 1 min 0,000 mm 2,4 UV-I 403 W/m 10,9 C 19,1 C 6,4 km/h (2 Bft) 95,83 %
14.06.2018 16:07 19,0 C 23,3 C 55 % 1014,0 hPa 0,0 l/m 8,1 km/h (2 Bft) W 271 0 min 0,000 mm 2,2 UV-I 389 W/m 9,8 C 18,3 C 12,9 km/h (3 Bft) 96,55 %
14.06.2018 16:08 18,9 C 23,3 C 55 % 1014,0 hPa 0,0 l/m 6,0 km/h (2 Bft) W 279 0 min 0,000 mm 2,1 UV-I 361 W/m 9,7 C 18,9 C 9,7 km/h (2 Bft) 100,00 %
14.06.2018 16:09 18,9 C 23,3 C 54 % 1014,0 hPa 0,0 l/m 8,4 km/h (2 Bft) W 272 0 min 0,000 mm 2,0 UV-I 343 W/m 9,4 C 18,0 C 14,5 km/h (3 Bft) 95,65 %
14.06.2018 16:10 18,7 C 23,3 C 54 % 1014,0 hPa 0,0 l/m 10,9 km/h (2 Bft) W-SW 256 0 min 0,000 mm 2,0 UV-I 325 W/m 9,2 C 16,9 C 16,1 km/h (3 Bft) 100,00 %
14.06.2018 16:11 18,6 C 23,3 C 56 % 1013,9 hPa 0,0 l/m 11,5 km/h (2 Bft) W-NW 285 0 min 0,000 mm 1,9 UV-I 313 W/m 9,6 C 16,6 C 16,1 km/h (3 Bft) 95,65 %
14.06.2018 16:12 18,6 C 23,3 C 57 % 1013,9 hPa 0,0 l/m 9,7 km/h (2 Bft) W 275 0 min 0,000 mm 1,8 UV-I 304 W/m 9,9 C 17,2 C 16,1 km/h (3 Bft) 100,00 %
14.06.2018 16:13 18,6 C 23,3 C 55 % 1013,9 hPa 0,0 l/m 9,3 km/h (2 Bft) W 259 0 min 0,000 mm 1,8 UV-I 293 W/m 9,4 C 17,4 C 14,5 km/h (3 Bft) 96,88 %
14.06.2018 16:14 18,4 C 23,3 C 56 % 1013,9 hPa 0,0 l/m 3,5 km/h (1 Bft) NW 309 0 min 0,000 mm 1,7 UV-I 288 W/m 9,5 C 18,4 C 4,8 km/h (1 Bft) 100,00 %
14.06.2018 16:15 18,4 C 23,3 C 57 % 1013,9 hPa 0,0 l/m 2,4 km/h (1 Bft) N 349 0 min 0,000 mm 1,7 UV-I 287 W/m 9,7 C 18,4 C 4,8 km/h (1 Bft) 96,67 %
14.06.2018 16:16 18,3 C 23,3 C 58 % 1013,9 hPa 0,0 l/m 1,5 km/h (1 Bft) W 277 0 min 0,000 mm 1,7 UV-I 287 W/m 9,9 C 18,3 C 3,2 km/h (1 Bft) 96,15 %
14.06.2018 16:17 18,3 C 23,3 C 58 % 1013,8 hPa 0,0 l/m 5,5 km/h (1 Bft) W 262 0 min 0,000 mm 1,7 UV-I 290 W/m 9,9 C 18,3 C 8,0 km/h (2 Bft) 100,00 %
14.06.2018 16:18 18,3 C 23,3 C 56 % 1013,9 hPa 0,0 l/m 4,6 km/h (1 Bft) NW 306 0 min 0,000 mm 1,7 UV-I 294 W/m 9,4 C 18,3 C 6,4 km/h (2 Bft) 100,00 %
14.06.2018 16:19 18,3 C 23,3 C 58 % 1013,9 hPa 0,0 l/m 5,1 km/h (1 Bft) O-SO 118 0 min 0,000 mm 1,8 UV-I 298 W/m 9,9 C 18,3 C 6,4 km/h (2 Bft) 100,00 %
14.06.2018 16:20 18,3 C 23,3 C 58 % 1013,8 hPa 0,0 l/m 4,7 km/h (1 Bft) W-NW 288 0 min 0,000 mm 1,8 UV-I 296 W/m 9,9 C 18,3 C 6,4 km/h (2 Bft) 100,00 %
14.06.2018 16:21 18,3 C 23,3 C 57 % 1013,8 hPa 0,0 l/m 2,3 km/h (1 Bft) W-NW 287 0 min 0,000 mm 1,8 UV-I 302 W/m 9,6 C 18,3 C 3,2 km/h (1 Bft) 100,00 %
14.06.2018 16:23 18,3 C 23,3 C 58 % 1013,8 hPa 0,0 l/m 1,4 km/h (1 Bft) W 277 0 min 0,000 mm 1,8 UV-I 300 W/m 9,9 C 18,3 C 3,2 km/h (1 Bft) 100,00 %
14.06.2018 16:24 18,3 C 23,3 C 59 % 1013,8 hPa 0,0 l/m 3,0 km/h (1 Bft) W 276 0 min 0,000 mm 1,9 UV-I 294 W/m 10,1 C 18,3 C 6,4 km/h (2 Bft) 100,00 %
14.06.2018 16:25 18,4 C 23,3 C 58 % 1013,8 hPa 0,0 l/m 3,7 km/h (1 Bft) W-SW 257 0 min 0,000 mm 1,8 UV-I 291 W/m 10,0 C 18,4 C 6,4 km/h (2 Bft) 100,00 %
14.06.2018 16:26 18,4 C 23,3 C 57 % 1013,8 hPa 0,0 l/m 1,4 km/h (1 Bft) W-SW 257 0 min 0,000 mm 1,8 UV-I 287 W/m 9,7 C 18,4 C 1,6 km/h (1 Bft) 100,00 %
14.06.2018 16:27 18,4 C 23,3 C 60 % 1013,7 hPa 0,0 l/m 2,7 km/h (1 Bft) W-SW 257 0 min 0,000 mm 1,8 UV-I 285 W/m 10,5 C 18,4 C 4,8 km/h (1 Bft) 100,00 %
14.06.2018 16:28 18,6 C 23,3 C 60 % 1013,8 hPa 0,0 l/m 1,7 km/h (1 Bft) W-SW 255 0 min 0,000 mm 1,8 UV-I 288 W/m 10,7 C 18,6 C 3,2 km/h (1 Bft) 100,00 %
14.06.2018 16:29 18,6 C 23,3 C 63 % 1013,7 hPa 0,0 l/m 2,5 km/h (1 Bft) N 355 0 min 0,000 mm 1,8 UV-I 291 W/m 11,4 C 18,6 C 6,4 km/h (2 Bft) 95,83 %
14.06.2018 16:30 18,6 C 23,3 C 60 % 1013,7 hPa 0,0 l/m 3,0 km/h (1 Bft) N-NW 334 0 min 0,000 mm 1,8 UV-I 289 W/m 10,7 C 18,6 C 4,8 km/h (1 Bft) 100,00 %
14.06.2018 16:31 18,6 C 23,3 C 58 % 1013,7 hPa 0,0 l/m 3,0 km/h (1 Bft) W 281 0 min 0,000 mm 1,8 UV-I 289 W/m 10,2 C 18,6 C 4,8 km/h (1 Bft) 100,00 %
14.06.2018 16:33 18,5 C 23,3 C 56 % 1013,7 hPa 0,0 l/m 2,1 km/h (1 Bft) W 272 0 min 0,000 mm 1,9 UV-I 330 W/m 9,6 C 18,5 C 4,8 km/h (1 Bft) 100,00 %
14.06.2018 16:34 18,6 C 23,3 C 57 % 1013,7 hPa 0,0 l/m 2,5 km/h (1 Bft) W 270 0 min 0,000 mm 2,2 UV-I 346 W/m 9,9 C 18,6 C 3,2 km/h (1 Bft) 100,00 %
14.06.2018 16:35 18,7 C 23,3 C 56 % 1013,7 hPa 0,0 l/m 8,0 km/h (2 Bft) W-SW 245 1 min 0,000 mm 1,8 UV-I 372 W/m 9,7 C 18,0 C 12,9 km/h (3 Bft) 100,00 %
14.06.2018 16:36 18,7 C 23,3 C 56 % 1013,7 hPa 0,0 l/m 5,8 km/h (2 Bft) SW 233 1 min 0,000 mm 2,1 UV-I 397 W/m 9,7 C 18,7 C 11,3 km/h (2 Bft) 100,00 %
14.06.2018 16:38 19,0 C 23,3 C 57 % 1013,7 hPa 0,0 l/m 8,9 km/h (2 Bft) W-SW 250 2 min 0,000 mm 2,2 UV-I 630 W/m 10,3 C 17,9 C 16,1 km/h (3 Bft) 97,92 %
14.06.2018 16:39 19,2 C 23,3 C 56 % 1013,7 hPa 0,0 l/m 10,7 km/h (2 Bft) W-SW 257 1 min 0,000 mm 2,3 UV-I 691 W/m 10,2 C 17,5 C 14,5 km/h (3 Bft) 100,00 %
14.06.2018 16:40 19,2 C 23,3 C 56 % 1013,6 hPa 0,0 l/m 6,4 km/h (2 Bft) W 264 1 min 0,000 mm 2,3 UV-I 709 W/m 10,2 C 19,2 C 11,3 km/h (2 Bft) 100,00 %
14.06.2018 16:41 19,3 C 23,3 C 56 % 1013,6 hPa 0,0 l/m 16,9 km/h (3 Bft) W-SW 252 1 min 0,000 mm 2,3 UV-I 721 W/m 10,3 C 15,9 C 19,3 km/h (3 Bft) 100,00 %
14.06.2018 16:43 19,4 C 23,3 C 55 % 1013,6 hPa 0,0 l/m 12,9 km/h (3 Bft) W-SW 244 2 min 0,000 mm 2,3 UV-I 738 W/m 10,1 C 17,1 C 19,3 km/h (3 Bft) 98,00 %
14.06.2018 16:44 19,5 C 23,3 C 55 % 1013,6 hPa 0,0 l/m 10,6 km/h (2 Bft) W-NW 286 1 min 0,000 mm 1,9 UV-I 747 W/m 10,2 C 17,9 C 14,5 km/h (3 Bft) 100,00 %
14.06.2018 16:45 19,6 C 23,3 C 56 % 1013,6 hPa 0,0 l/m 8,2 km/h (2 Bft) W-NW 295 1 min 0,000 mm 1,9 UV-I 666 W/m 10,6 C 18,9 C 12,9 km/h (3 Bft) 100,00 %
14.06.2018 16:46 19,6 C 23,3 C 56 % 1013,6 hPa 0,0 l/m 3,5 km/h (1 Bft) W-NW 302 1 min 0,000 mm 1,8 UV-I 382 W/m 10,6 C 19,6 C 6,4 km/h (2 Bft) 100,00 %
14.06.2018 16:47 19,6 C 23,3 C 56 % 1013,7 hPa 0,0 l/m 3,0 km/h (1 Bft) W-NW 297 0 min 0,000 mm 1,4 UV-I 327 W/m 10,6 C 19,6 C 4,8 km/h (1 Bft) 100,00 %
14.06.2018 16:48 19,4 C 23,3 C 55 % 1013,7 hPa 0,0 l/m 4,8 km/h (1 Bft) N-NW 348 0 min 0,000 mm 1,3 UV-I 300 W/m 10,1 C 19,4 C 11,3 km/h (2 Bft) 97,92 %
14.06.2018 16:49 19,3 C 23,3 C 58 % 1013,7 hPa 0,0 l/m 4,2 km/h (1 Bft) N-NW 340 0 min 0,000 mm 1,3 UV-I 295 W/m 10,8 C 19,3 C 6,4 km/h (2 Bft) 100,00 %
14.06.2018 16:50 19,2 C 23,3 C 56 % 1013,6 hPa 0,0 l/m 2,6 km/h (1 Bft) NW 321 1 min 0,000 mm 1,7 UV-I 363 W/m 10,2 C 19,2 C 4,8 km/h (1 Bft) 100,00 %
14.06.2018 16:51 19,2 C 23,3 C 59 % 1013,6 hPa 0,0 l/m 1,5 km/h (1 Bft) NW 320 1 min 0,000 mm 1,7 UV-I 705 W/m 11,0 C 19,2 C 4,8 km/h (1 Bft) 100,00 %
14.06.2018 16:53 19,3 C 23,3 C 57 % 1013,7 hPa 0,0 l/m 3,5 km/h (1 Bft) NW 315 2 min 0,000 mm 1,1 UV-I 375 W/m 10,6 C 19,3 C 6,4 km/h (2 Bft) 97,87 %
14.06.2018 16:54 19,2 C 23,3 C 56 % 1013,7 hPa 0,0 l/m 3,4 km/h (1 Bft) N-NW 330 0 min 0,000 mm 1,0 UV-I 233 W/m 10,2 C 19,2 C 6,4 km/h (2 Bft) 96,15 %
14.06.2018 16:55 19,1 C 23,3 C 56 % 1013,6 hPa 0,0 l/m 1,4 km/h (1 Bft) N-NW 331 0 min 0,000 mm 1,0 UV-I 227 W/m 10,1 C 19,1 C 3,2 km/h (1 Bft) 100,00 %
14.06.2018 16:56 18,9 C 23,3 C 56 % 1013,6 hPa 0,0 l/m 1,4 km/h (1 Bft) N-NW 331 0 min 0,000 mm 0,9 UV-I 220 W/m 9,9 C 18,9 C 3,2 km/h (1 Bft) 100,00 %
14.06.2018 16:58 18,7 C 23,3 C 57 % 1013,6 hPa 0,0 l/m 3,3 km/h (1 Bft) SW 229 0 min 0,000 mm 0,9 UV-I 213 W/m 10,0 C 18,7 C 8,0 km/h (2 Bft) 100,00 %
14.06.2018 16:59 18,7 C 23,3 C 56 % 1013,6 hPa 0,0 l/m 6,0 km/h (2 Bft) W 271 0 min 0,000 mm 0,8 UV-I 208 W/m 9,7 C 18,7 C 11,3 km/h (2 Bft) 100,00 %
14.06.2018 17:00 18,6 C 23,3 C 57 % 1013,6 hPa 0,0 l/m 2,7 km/h (1 Bft) W 269 0 min 0,254 mm 0,8 UV-I 204 W/m 9,9 C 18,6 C 4,8 km/h (1 Bft) 100,00 %
14.06.2018 17:02 18,4 C 23,3 C 57 % 1013,6 hPa 0,0 l/m 1,4 km/h (1 Bft) W 271 0 min 0,000 mm 0,8 UV-I 198 W/m 9,7 C 18,4 C 4,8 km/h (1 Bft) 100,00 %
14.06.2018 17:03 18,4 C 23,3 C 58 % 1013,6 hPa 0,0 l/m 4,3 km/h (1 Bft) NW 312 0 min 0,000 mm 0,8 UV-I 193 W/m 10,0 C 18,4 C 6,4 km/h (2 Bft) 100,00 %
14.06.2018 17:04 18,5 C 23,3 C 60 % 1013,6 hPa 0,0 l/m 2,7 km/h (1 Bft) W-NW 301 0 min 0,000 mm 0,8 UV-I 191 W/m 10,6 C 18,5 C 3,2 km/h (1 Bft) 100,00 %
14.06.2018 17:05 18,4 C 23,3 C 59 % 1013,7 hPa 0,0 l/m 3,8 km/h (1 Bft) W 265 0 min 0,000 mm 0,8 UV-I 190 W/m 10,2 C 18,4 C 4,8 km/h (1 Bft) 100,00 %
14.06.2018 17:06 18,4 C 23,3 C 60 % 1013,6 hPa 0,0 l/m 5,4 km/h (1 Bft) W 265 0 min 0,000 mm 0,7 UV-I 188 W/m 10,5 C 18,4 C 6,4 km/h (2 Bft) 100,00 %
14.06.2018 17:08 18,3 C 23,3 C 58 % 1013,6 hPa 0,0 l/m 2,5 km/h (1 Bft) W 267 0 min 0,000 mm 0,7 UV-I 185 W/m 9,9 C 18,3 C 4,8 km/h (1 Bft) 100,00 %
14.06.2018 17:09 18,3 C 23,3 C 58 % 1013,6 hPa 0,0 l/m 2,2 km/h (1 Bft) W-NW 298 0 min 0,000 mm 0,7 UV-I 180 W/m 9,9 C 18,3 C 4,8 km/h (1 Bft) 100,00 %
14.06.2018 17:10 18,3 C 23,3 C 59 % 1013,6 hPa 0,0 l/m 3,3 km/h (1 Bft) W-NW 298 0 min 0,000 mm 0,7 UV-I 176 W/m 10,1 C 18,3 C 4,8 km/h (1 Bft) 100,00 %
14.06.2018 17:11 18,3 C 23,3 C 57 % 1013,6 hPa 0,0 l/m 3,3 km/h (1 Bft) W-NW 298 0 min 0,000 mm 0,7 UV-I 172 W/m 9,6 C 18,3 C 4,8 km/h (1 Bft) 100,00 %
14.06.2018 17:13 18,3 C 23,3 C 58 % 1013,6 hPa 0,0 l/m 2,2 km/h (1 Bft) W-NW 296 0 min 0,000 mm 0,6 UV-I 166 W/m 9,9 C 18,3 C 4,8 km/h (1 Bft) 98,00 %
14.06.2018 17:14 18,3 C 23,3 C 58 % 1013,7 hPa 0,0 l/m 3,6 km/h (1 Bft) W-NW 296 0 min 0,000 mm 0,6 UV-I 163 W/m 9,9 C 18,3 C 4,8 km/h (1 Bft) 100,00 %
14.06.2018 17:15 18,3 C 23,3 C 57 % 1013,7 hPa 0,0 l/m 1,9 km/h (1 Bft) W-NW 296 0 min 0,000 mm 0,6 UV-I 161 W/m 9,6 C 18,3 C 3,2 km/h (1 Bft) 100,00 %
14.06.2018 17:16 18,2 C 23,3 C 56 % 1013,6 hPa 0,0 l/m 5,0 km/h (1 Bft) NO 38 0 min 0,000 mm 0,6 UV-I 158 W/m 9,3 C 18,2 C 6,4 km/h (2 Bft) 100,00 %
14.06.2018 17:18 18,2 C 23,3 C 60 % 1013,7 hPa 0,0 l/m 4,2 km/h (1 Bft) NO 34 0 min 0,000 mm 0,6 UV-I 154 W/m 10,3 C 18,2 C 6,4 km/h (2 Bft) 100,00 %
14.06.2018 17:19 18,2 C 23,3 C 60 % 1013,7 hPa 0,0 l/m 4,9 km/h (1 Bft) NO 34 0 min 0,000 mm 0,6 UV-I 151 W/m 10,3 C 18,2 C 6,4 km/h (2 Bft) 100,00 %
14.06.2018 17:20 18,1 C 23,3 C 62 % 1013,7 hPa 0,0 l/m 3,2 km/h (1 Bft) NO 34 0 min 0,000 mm 0,6 UV-I 149 W/m 10,7 C 18,1 C 4,8 km/h (1 Bft) 100,00 %
14.06.2018 17:21 18,1 C 23,3 C 62 % 1013,7 hPa 0,0 l/m 4,6 km/h (1 Bft) NO 36 0 min 0,000 mm 0,6 UV-I 149 W/m 10,7 C 18,1 C 4,8 km/h (1 Bft) 100,00 %
14.06.2018 17:23 18,2 C 23,3 C 62 % 1013,7 hPa 0,0 l/m 4,5 km/h (1 Bft) NO 43 0 min 0,000 mm 0,6 UV-I 146 W/m 10,8 C 18,2 C 8,0 km/h (2 Bft) 100,00 %
14.06.2018 17:24 18,2 C 23,3 C 63 % 1013,7 hPa 0,0 l/m 6,3 km/h (2 Bft) NO 44 0 min 0,000 mm 0,5 UV-I 142 W/m 11,0 C 18,2 C 8,0 km/h (2 Bft) 100,00 %
14.06.2018 17:25 18,1 C 23,3 C 62 % 1013,7 hPa 0,0 l/m 4,1 km/h (1 Bft) NO 44 0 min 0,000 mm 0,5 UV-I 138 W/m 10,7 C 18,1 C 4,8 km/h (1 Bft) 100,00 %
14.06.2018 17:26 18,1 C 23,3 C 64 % 1013,7 hPa 0,0 l/m 4,3 km/h (1 Bft) N 5 0 min 0,000 mm 0,5 UV-I 133 W/m 11,2 C 18,1 C 4,8 km/h (1 Bft) 100,00 %
14.06.2018 17:27 18,0 C 23,3 C 62 % 1013,7 hPa 0,0 l/m 4,8 km/h (1 Bft) N-NO 17 0 min 0,000 mm 0,5 UV-I 130 W/m 10,6 C 18,0 C 6,4 km/h (2 Bft) 100,00 %
14.06.2018 17:28 18,0 C 23,3 C 63 % 1013,7 hPa 0,0 l/m 8,4 km/h (2 Bft) NO 40 0 min 0,000 mm 0,5 UV-I 126 W/m 10,8 C 17,1 C 11,3 km/h (2 Bft) 100,00 %
14.06.2018 17:29 17,9 C 23,3 C 62 % 1013,7 hPa 0,0 l/m 7,3 km/h (2 Bft) NO 39 0 min 0,000 mm 0,5 UV-I 123 W/m 10,5 C 17,5 C 8,0 km/h (2 Bft) 100,00 %
14.06.2018 17:30 17,8 C 23,3 C 62 % 1013,8 hPa 0,0 l/m 7,3 km/h (2 Bft) N-NO 27 0 min 0,000 mm 0,5 UV-I 123 W/m 10,4 C 17,4 C 8,0 km/h (2 Bft) 100,00 %
14.06.2018 17:31 17,8 C 23,3 C 63 % 1013,7 hPa 0,0 l/m 5,2 km/h (1 Bft) N-NO 26 0 min 0,000 mm 0,5 UV-I 121 W/m 10,7 C 17,8 C 6,4 km/h (2 Bft) 100,00 %
14.06.2018 17:33 17,7 C 23,3 C 62 % 1013,8 hPa 0,0 l/m 3,2 km/h (1 Bft) N-NO 26 0 min 0,000 mm 0,5 UV-I 121 W/m 10,3 C 17,7 C 4,8 km/h (1 Bft) 100,00 %
14.06.2018 17:34 17,7 C 23,3 C 63 % 1013,8 hPa 0,0 l/m 2,9 km/h (1 Bft) N-NO 26 0 min 0,000 mm 0,5 UV-I 120 W/m 10,6 C 17,7 C 3,2 km/h (1 Bft) 100,00 %
14.06.2018 17:35 17,7 C 23,3 C 63 % 1013,8 hPa 0,0 l/m 4,6 km/h (1 Bft) N-NO 26 0 min 0,000 mm 0,5 UV-I 120 W/m 10,6 C 17,7 C 6,4 km/h (2 Bft) 100,00 %
14.06.2018 17:36 17,8 C 23,3 C 64 % 1013,8 hPa 0,0 l/m 5,3 km/h (1 Bft) N-NO 18 0 min 0,000 mm 0,5 UV-I 120 W/m 10,9 C 17,8 C 8,0 km/h (2 Bft) 100,00 %
14.06.2018 17:37 17,8 C 23,3 C 62 % 1013,7 hPa 0,0 l/m 3,8 km/h (1 Bft) N-NO 17 0 min 0,000 mm 0,1 UV-I 118 W/m 10,4 C 17,8 C 4,8 km/h (1 Bft) 100,00 %
14.06.2018 17:38 17,8 C 23,3 C 63 % 1013,8 hPa 0,0 l/m 4,0 km/h (1 Bft) N 349 0 min 0,000 mm 0,0 UV-I 115 W/m 10,7 C 17,8 C 4,8 km/h (1 Bft) 100,00 %
14.06.2018 17:39 17,8 C 23,3 C 62 % 1013,8 hPa 0,0 l/m 3,7 km/h (1 Bft) N 349 0 min 0,000 mm 0,0 UV-I 114 W/m 10,4 C 17,8 C 4,8 km/h (1 Bft) 96,30 %
14.06.2018 17:40 17,8 C 23,3 C 62 % 1013,7 hPa 0,0 l/m 3,6 km/h (1 Bft) N 350 0 min 0,000 mm 0,0 UV-I 112 W/m 10,4 C 17,8 C 6,4 km/h (2 Bft) 100,00 %
14.06.2018 17:41 17,8 C 23,3 C 62 % 1013,7 hPa 0,0 l/m 3,4 km/h (1 Bft) N 350 0 min 0,000 mm 0,0 UV-I 108 W/m 10,4 C 17,8 C 4,8 km/h (1 Bft) 91,67 %
14.06.2018 17:42 17,8 C 23,3 C 62 % 1013,8 hPa 0,0 l/m 3,1 km/h (1 Bft) N 350 0 min 0,000 mm 0,0 UV-I 105 W/m 10,4 C 17,8 C 4,8 km/h (1 Bft) 96,15 %
14.06.2018 17:43 17,8 C 23,3 C 63 % 1013,8 hPa 0,0 l/m 2,2 km/h (1 Bft) N 350 0 min 0,000 mm 0,0 UV-I 104 W/m 10,7 C 17,8 C 3,2 km/h (1 Bft) 96,30 %
14.06.2018 17:44 17,8 C 23,3 C 63 % 1013,8 hPa 0,0 l/m 2,7 km/h (1 Bft) N 350 0 min 0,000 mm 0,0 UV-I 104 W/m 10,7 C 17,8 C 4,8 km/h (1 Bft) 96,15 %
14.06.2018 17:45 17,8 C 23,3 C 65 % 1013,8 hPa 0,0 l/m 5,0 km/h (1 Bft) N 5 0 min 0,000 mm 0,0 UV-I 104 W/m 11,1 C 17,8 C 6,4 km/h (2 Bft) 100,00 %
14.06.2018 17:46 17,8 C 23,3 C 64 % 1013,8 hPa 0,0 l/m 4,4 km/h (1 Bft) N 9 0 min 0,000 mm 0,0 UV-I 105 W/m 10,9 C 17,8 C 6,4 km/h (2 Bft) 100,00 %
14.06.2018 17:48 17,7 C 23,3 C 65 % 1013,8 hPa 0,0 l/m 3,8 km/h (1 Bft) N-NO 28 0 min 0,000 mm 0,0 UV-I 108 W/m 11,0 C 17,7 C 6,4 km/h (2 Bft) 95,08 %
14.06.2018 17:49 17,7 C 23,3 C 64 % 1013,8 hPa 0,0 l/m 3,1 km/h (1 Bft) N-NO 28 0 min 0,000 mm 0,0 UV-I 111 W/m 10,8 C 17,7 C 4,8 km/h (1 Bft) 100,00 %
14.06.2018 17:50 17,7 C 23,3 C 64 % 1013,7 hPa 0,0 l/m 2,9 km/h (1 Bft) N-NO 28 0 min 0,000 mm 0,0 UV-I 113 W/m 10,8 C 17,7 C 4,8 km/h (1 Bft) 96,30 %
14.06.2018 17:51 17,7 C 23,3 C 66 % 1013,8 hPa 0,0 l/m 2,7 km/h (1 Bft) N-NO 28 0 min 0,000 mm 0,0 UV-I 115 W/m 11,3 C 17,7 C 3,2 km/h (1 Bft) 96,15 %
14.06.2018 17:53 17,8 C 23,3 C 60 % 1013,7 hPa 0,0 l/m 2,2 km/h (1 Bft) N-NO 29 0 min 0,000 mm 0,0 UV-I 119 W/m 9,9 C 17,8 C 4,8 km/h (1 Bft) 95,74 %
14.06.2018 17:54 17,8 C 23,3 C 61 % 1013,7 hPa 0,0 l/m 2,5 km/h (1 Bft) N-NO 30 0 min 0,000 mm 0,0 UV-I 121 W/m 10,2 C 17,8 C 4,8 km/h (1 Bft) 100,00 %
14.06.2018 17:55 17,8 C 23,3 C 62 % 1013,8 hPa 0,0 l/m 4,5 km/h (1 Bft) NO 45 0 min 0,000 mm 0,0 UV-I 123 W/m 10,4 C 17,8 C 8,0 km/h (2 Bft) 95,65 %
14.06.2018 17:56 17,8 C 23,3 C 63 % 1013,7 hPa 0,0 l/m 5,4 km/h (1 Bft) NO 47 0 min 0,000 mm 0,0 UV-I 124 W/m 10,7 C 17,8 C 6,4 km/h (2 Bft) 100,00 %
14.06.2018 17:58 17,7 C 23,3 C 66 % 1013,7 hPa 0,0 l/m 4,5 km/h (1 Bft) NO 36 0 min 0,000 mm 0,0 UV-I 127 W/m 11,3 C 17,7 C 8,0 km/h (2 Bft) 97,87 %
14.06.2018 17:59 17,7 C 23,3 C 63 % 1013,7 hPa 0,0 l/m 6,2 km/h (2 Bft) N-NO 20 0 min 0,000 mm 0,0 UV-I 130 W/m 10,6 C 17,7 C 8,0 km/h (2 Bft) 92,86 %
14.06.2018 18:00 17,7 C 23,3 C 64 % 1013,7 hPa 0,0 l/m 5,5 km/h (1 Bft) NO 41 0 min 0,000 mm 0,0 UV-I 132 W/m 10,8 C 17,7 C 8,0 km/h (2 Bft) 100,00 %
14.06.2018 18:02 17,7 C 23,3 C 62 % 1013,7 hPa 0,0 l/m 2,8 km/h (1 Bft) N 355 0 min 0,102 mm 0,0 UV-I 133 W/m 10,3 C 17,7 C 6,4 km/h (2 Bft) 96,00 %
14.06.2018 18:03 17,7 C 23,3 C 63 % 1013,7 hPa 0,0 l/m 2,0 km/h (1 Bft) NO 36 0 min 0,000 mm 0,0 UV-I 134 W/m 10,6 C 17,7 C 4,8 km/h (1 Bft) 100,00 %
14.06.2018 18:04 17,8 C 23,3 C 63 % 1013,7 hPa 0,0 l/m 2,8 km/h (1 Bft) NO 36 0 min 0,000 mm 0,0 UV-I 134 W/m 10,7 C 17,8 C 4,8 km/h (1 Bft) 96,15 %
14.06.2018 18:05 17,8 C 23,3 C 64 % 1013,8 hPa 0,0 l/m 0,9 km/h (0 Bft) NO 37 0 min 0,000 mm 0,0 UV-I 134 W/m 10,9 C 17,8 C 4,8 km/h (1 Bft) 100,00 %
14.06.2018 18:06 17,8 C 23,3 C 63 % 1013,7 hPa 0,0 l/m 3,7 km/h (1 Bft) W-NW 282 0 min 0,000 mm 0,0 UV-I 134 W/m 10,7 C 17,8 C 6,4 km/h (2 Bft) 92,86 %
14.06.2018 18:08 17,8 C 23,3 C 60 % 1013,7 hPa 0,0 l/m 3,5 km/h (1 Bft) NO 46 0 min 0,000 mm 0,0 UV-I 134 W/m 9,9 C 17,8 C 8,0 km/h (2 Bft) 98,39 %
14.06.2018 18:09 17,8 C 23,3 C 62 % 1013,7 hPa 0,0 l/m 1,7 km/h (1 Bft) N-NW 348 0 min 0,000 mm 0,0 UV-I 134 W/m 10,4 C 17,8 C 4,8 km/h (1 Bft) 100,00 %
14.06.2018 18:10 17,8 C 23,3 C 61 % 1013,7 hPa 0,0 l/m 5,1 km/h (1 Bft) N-NW 342 0 min 0,000 mm 0,0 UV-I 134 W/m 10,2 C 17,8 C 6,4 km/h (2 Bft) 91,30 %
14.06.2018 18:11 17,8 C 23,3 C 60 % 1013,7 hPa 0,0 l/m 3,8 km/h (1 Bft) NW 317 0 min 0,000 mm 0,0 UV-I 134 W/m 9,9 C 17,8 C 6,4 km/h (2 Bft) 100,00 %
14.06.2018 18:13 17,8 C 23,3 C 62 % 1013,8 hPa 0,0 l/m 3,0 km/h (1 Bft) NW 315 0 min 0,000 mm 0,0 UV-I 133 W/m 10,4 C 17,8 C 8,0 km/h (2 Bft) 100,00 %
14.06.2018 18:14 17,8 C 23,3 C 61 % 1013,8 hPa 0,0 l/m 3,9 km/h (1 Bft) N-NO 32 0 min 0,000 mm 0,0 UV-I 132 W/m 10,2 C 17,8 C 6,4 km/h (2 Bft) 100,00 %
14.06.2018 18:15 17,8 C 23,3 C 60 % 1013,8 hPa 0,0 l/m 6,0 km/h (2 Bft) NW 323 0 min 0,000 mm 0,0 UV-I 132 W/m 9,9 C 17,8 C 9,7 km/h (2 Bft) 100,00 %
14.06.2018 18:16 17,8 C 23,3 C 60 % 1013,7 hPa 0,0 l/m 4,0 km/h (1 Bft) NW 311 0 min 0,000 mm 0,0 UV-I 132 W/m 9,9 C 17,8 C 6,4 km/h (2 Bft) 100,00 %
14.06.2018 18:17 17,8 C 23,3 C 61 % 1013,8 hPa 0,0 l/m 1,9 km/h (1 Bft) NW 311 0 min 0,000 mm 0,0 UV-I 132 W/m 10,2 C 17,8 C 3,2 km/h (1 Bft) 100,00 %
14.06.2018 18:18 17,8 C 23,3 C 62 % 1013,8 hPa 0,0 l/m 2,6 km/h (1 Bft) N-NO 15 0 min 0,000 mm 0,0 UV-I 134 W/m 10,4 C 17,8 C 8,0 km/h (2 Bft) 96,15 %
14.06.2018 18:19 17,8 C 23,3 C 62 % 1013,8 hPa 0,0 l/m 4,2 km/h (1 Bft) NW 305 0 min 0,000 mm 0,0 UV-I 134 W/m 10,4 C 17,8 C 4,8 km/h (1 Bft) 100,00 %
14.06.2018 18:20 17,8 C 23,3 C 61 % 1013,8 hPa 0,0 l/m 4,2 km/h (1 Bft) W 273 0 min 0,000 mm 0,0 UV-I 135 W/m 10,2 C 17,8 C 6,4 km/h (2 Bft) 95,65 %
14.06.2018 18:21 17,8 C 23,3 C 60 % 1013,8 hPa 0,0 l/m 2,9 km/h (1 Bft) W 275 0 min 0,000 mm 0,0 UV-I 136 W/m 9,9 C 17,8 C 3,2 km/h (1 Bft) 100,00 %
14.06.2018 18:23 17,8 C 23,3 C 61 % 1013,8 hPa 0,0 l/m 1,6 km/h (1 Bft) W 275 0 min 0,000 mm 0,0 UV-I 141 W/m 10,2 C 17,8 C 3,2 km/h (1 Bft) 100,00 %
14.06.2018 18:24 17,8 C 23,3 C 63 % 1013,8 hPa 0,0 l/m 3,4 km/h (1 Bft) N 5 0 min 0,000 mm 0,0 UV-I 146 W/m 10,7 C 17,8 C 6,4 km/h (2 Bft) 100,00 %
14.06.2018 18:25 17,8 C 23,3 C 62 % 1013,8 hPa 0,0 l/m 5,4 km/h (1 Bft) N-NW 338 0 min 0,000 mm 0,0 UV-I 150 W/m 10,4 C 17,8 C 6,4 km/h (2 Bft) 100,00 %
14.06.2018 18:26 17,8 C 23,3 C 62 % 1013,8 hPa 0,0 l/m 2,8 km/h (1 Bft) N-NW 339 0 min 0,000 mm 0,0 UV-I 157 W/m 10,4 C 17,8 C 4,8 km/h (1 Bft) 100,00 %
14.06.2018 18:27 17,8 C 23,3 C 62 % 1013,7 hPa 0,0 l/m 2,1 km/h (1 Bft) N-NW 340 0 min 0,000 mm 0,0 UV-I 164 W/m 10,4 C 17,8 C 3,2 km/h (1 Bft) 100,00 %
14.06.2018 18:28 17,9 C 23,3 C 63 % 1013,8 hPa 0,0 l/m 0,9 km/h (0 Bft) N-NW 340 0 min 0,000 mm 0,0 UV-I 173 W/m 10,8 C 17,9 C 1,6 km/h (1 Bft) 100,00 %
14.06.2018 18:29 17,9 C 23,3 C 60 % 1013,8 hPa 0,0 l/m 3,4 km/h (1 Bft) N-NW 340 0 min 0,000 mm 0,0 UV-I 183 W/m 10,0 C 17,9 C 4,8 km/h (1 Bft) 95,65 %
14.06.2018 18:30 17,9 C 23,3 C 60 % 1013,7 hPa 0,0 l/m 3,6 km/h (1 Bft) N-NW 342 0 min 0,000 mm 0,0 UV-I 195 W/m 10,0 C 17,9 C 6,4 km/h (2 Bft) 100,00 %
14.06.2018 18:31 17,9 C 23,3 C 59 % 1013,7 hPa 0,0 l/m 2,7 km/h (1 Bft) N-NW 342 0 min 0,000 mm 0,5 UV-I 204 W/m 9,8 C 17,9 C 4,8 km/h (1 Bft) 100,00 %
14.06.2018 18:32 18,1 C 23,3 C 60 % 1013,7 hPa 0,0 l/m 1,9 km/h (1 Bft) N-NW 342 1 min 0,000 mm 0,5 UV-I 214 W/m 10,2 C 18,1 C 3,2 km/h (1 Bft) 100,00 %
14.06.2018 18:33 18,1 C 23,3 C 62 % 1013,7 hPa 0,0 l/m 2,3 km/h (1 Bft) N-NW 342 1 min 0,000 mm 0,5 UV-I 227 W/m 10,7 C 18,1 C 3,2 km/h (1 Bft) 100,00 %
14.06.2018 18:34 18,2 C 23,3 C 62 % 1013,7 hPa 0,0 l/m 5,0 km/h (1 Bft) N 9 1 min 0,000 mm 0,5 UV-I 236 W/m 10,8 C 18,2 C 6,4 km/h (2 Bft) 96,30 %
14.06.2018 18:35 18,2 C 23,3 C 59 % 1013,7 hPa 0,0 l/m 2,3 km/h (1 Bft) N 9 1 min 0,000 mm 0,5 UV-I 256 W/m 10,1 C 18,2 C 3,2 km/h (1 Bft) 100,00 %
14.06.2018 18:36 18,2 C 23,3 C 60 % 1013,7 hPa 0,0 l/m 1,7 km/h (1 Bft) N 9 1 min 0,000 mm 0,5 UV-I 300 W/m 10,3 C 18,2 C 3,2 km/h (1 Bft) 100,00 %
14.06.2018 18:37 18,3 C 23,3 C 60 % 1013,7 hPa 0,0 l/m 1,8 km/h (1 Bft) N 10 1 min 0,000 mm 0,5 UV-I 274 W/m 10,4 C 18,3 C 3,2 km/h (1 Bft) 100,00 %
14.06.2018 18:38 18,3 C 23,3 C 60 % 1013,7 hPa 0,0 l/m 3,8 km/h (1 Bft) N-NW 335 1 min 0,000 mm 0,6 UV-I 272 W/m 10,4 C 18,3 C 6,4 km/h (2 Bft) 100,00 %
14.06.2018 18:39 18,3 C 23,3 C 59 % 1013,7 hPa 0,0 l/m 8,9 km/h (2 Bft) N 350 1 min 0,000 mm 0,6 UV-I 272 W/m 10,1 C 17,2 C 12,9 km/h (3 Bft) 95,65 %
14.06.2018 18:40 18,3 C 23,3 C 61 % 1013,7 hPa 0,0 l/m 11,6 km/h (2 Bft) N-NO 16 1 min 0,000 mm 0,6 UV-I 274 W/m 10,6 C 16,2 C 16,1 km/h (3 Bft) 93,33 %
14.06.2018 18:41 18,3 C 23,3 C 62 % 1013,7 hPa 0,0 l/m 10,8 km/h (2 Bft) N-NO 15 1 min 0,000 mm 0,6 UV-I 290 W/m 10,9 C 16,5 C 14,5 km/h (3 Bft) 96,30 %
14.06.2018 18:43 18,2 C 23,3 C 60 % 1013,7 hPa 0,0 l/m 6,0 km/h (2 Bft) NO 41 2 min 0,000 mm 0,5 UV-I 274 W/m 10,3 C 18,2 C 8,0 km/h (2 Bft) 100,00 %
14.06.2018 18:44 18,2 C 23,3 C 60 % 1013,7 hPa 0,0 l/m 4,9 km/h (1 Bft) N 11 1 min 0,000 mm 0,5 UV-I 297 W/m 10,3 C 18,2 C 6,4 km/h (2 Bft) 100,00 %
14.06.2018 18:45 18,3 C 23,3 C 62 % 1013,7 hPa 0,0 l/m 4,8 km/h (1 Bft) N 355 1 min 0,000 mm 0,5 UV-I 265 W/m 10,9 C 18,3 C 6,4 km/h (2 Bft) 100,00 %
14.06.2018 18:46 18,3 C 23,3 C 60 % 1013,7 hPa 0,0 l/m 3,6 km/h (1 Bft) N-NO 13 1 min 0,000 mm 0,5 UV-I 239 W/m 10,4 C 18,3 C 6,4 km/h (2 Bft) 100,00 %
14.06.2018 18:48 18,4 C 23,3 C 61 % 1013,7 hPa 0,0 l/m 4,1 km/h (1 Bft) N-NO 13 2 min 0,000 mm 0,5 UV-I 217 W/m 10,7 C 18,4 C 6,4 km/h (2 Bft) 100,00 %
14.06.2018 18:49 18,4 C 23,3 C 62 % 1013,7 hPa 0,0 l/m 1,0 km/h (0 Bft) N-NO 13 1 min 0,000 mm 0,5 UV-I 202 W/m 11,0 C 18,4 C 1,6 km/h (1 Bft) 100,00 %
14.06.2018 18:50 18,4 C 23,3 C 62 % 1013,7 hPa 0,0 l/m 2,4 km/h (1 Bft) N-NO 13 1 min 0,000 mm 0,5 UV-I 196 W/m 11,0 C 18,4 C 4,8 km/h (1 Bft) 100,00 %
14.06.2018 18:51 18,4 C 23,3 C 59 % 1013,7 hPa 0,0 l/m 5,1 km/h (1 Bft) NW 310 1 min 0,000 mm 0,5 UV-I 194 W/m 10,2 C 18,4 C 6,4 km/h (2 Bft) 100,00 %
14.06.2018 18:53 18,3 C 23,3 C 59 % 1013,7 hPa 0,0 l/m 6,2 km/h (2 Bft) N 11 2 min 0,000 mm 0,5 UV-I 194 W/m 10,1 C 18,3 C 8,0 km/h (2 Bft) 100,00 %
14.06.2018 18:54 18,2 C 23,3 C 61 % 1013,7 hPa 0,0 l/m 7,2 km/h (2 Bft) N-NO 13 1 min 0,000 mm 0,4 UV-I 181 W/m 10,6 C 17,8 C 8,0 km/h (2 Bft) 100,00 %
14.06.2018 18:55 18,1 C 23,3 C 61 % 1013,7 hPa 0,0 l/m 5,8 km/h (2 Bft) N-NO 23 0 min 0,000 mm 0,0 UV-I 171 W/m 10,5 C 18,1 C 8,0 km/h (2 Bft) 100,00 %
14.06.2018 18:56 18,1 C 23,3 C 65 % 1013,7 hPa 0,0 l/m 6,8 km/h (2 Bft) N 5 0 min 0,000 mm 0,0 UV-I 167 W/m 11,4 C 17,9 C 8,0 km/h (2 Bft) 100,00 %
14.06.2018 18:58 17,9 C 23,3 C 61 % 1013,7 hPa 0,0 l/m 5,2 km/h (1 Bft) N 5 0 min 0,000 mm 0,0 UV-I 157 W/m 10,3 C 17,9 C 8,0 km/h (2 Bft) 100,00 %
14.06.2018 18:59 17,9 C 23,3 C 60 % 1013,7 hPa 0,0 l/m 5,1 km/h (1 Bft) N 5 0 min 0,000 mm 0,0 UV-I 158 W/m 10,0 C 17,9 C 6,4 km/h (2 Bft) 100,00 %
14.06.2018 19:00 17,9 C 23,3 C 61 % 1013,7 hPa 0,0 l/m 3,9 km/h (1 Bft) N 9 0 min 0,127 mm 0,0 UV-I 159 W/m 10,3 C 17,9 C 4,8 km/h (1 Bft) 100,00 %
14.06.2018 19:01 17,9 C 23,3 C 62 % 1013,7 hPa 0,0 l/m 3,1 km/h (1 Bft) N 9 0 min 0,000 mm 0,0 UV-I 148 W/m 10,5 C 17,9 C 4,8 km/h (1 Bft) 100,00 %
14.06.2018 19:02 17,9 C 23,3 C 62 % 1013,7 hPa 0,0 l/m 3,1 km/h (1 Bft) N 10 0 min 0,000 mm 0,0 UV-I 150 W/m 10,5 C 17,9 C 4,8 km/h (1 Bft) 100,00 %
14.06.2018 19:03 17,9 C 23,3 C 63 % 1013,7 hPa 0,0 l/m 4,3 km/h (1 Bft) N 11 0 min 0,000 mm 0,0 UV-I 153 W/m 10,8 C 17,9 C 6,4 km/h (2 Bft) 100,00 %
14.06.2018 19:04 17,8 C 23,3 C 64 % 1013,7 hPa 0,0 l/m 3,3 km/h (1 Bft) N 11 0 min 0,000 mm 0,0 UV-I 137 W/m 10,9 C 17,8 C 4,8 km/h (1 Bft) 100,00 %
14.06.2018 19:05 17,8 C 23,3 C 64 % 1013,7 hPa 0,0 l/m 3,1 km/h (1 Bft) N 11 0 min 0,000 mm 0,0 UV-I 135 W/m 10,9 C 17,8 C 4,8 km/h (1 Bft) 100,00 %
14.06.2018 19:06 17,8 C 23,3 C 64 % 1013,7 hPa 0,0 l/m 2,3 km/h (1 Bft) N-NO 12 0 min 0,000 mm 0,0 UV-I 128 W/m 10,9 C 17,8 C 3,2 km/h (1 Bft) 95,83 %
14.06.2018 19:07 17,7 C 23,3 C 65 % 1013,7 hPa 0,0 l/m 4,2 km/h (1 Bft) NO 38 0 min 0,000 mm 0,0 UV-I 126 W/m 11,0 C 17,7 C 4,8 km/h (1 Bft) 100,00 %
14.06.2018 19:08 17,7 C 23,3 C 66 % 1013,7 hPa 0,0 l/m 4,3 km/h (1 Bft) N-NO 31 0 min 0,000 mm 0,0 UV-I 134 W/m 11,3 C 17,7 C 6,4 km/h (2 Bft) 100,00 %
14.06.2018 19:09 17,7 C 23,3 C 64 % 1013,7 hPa 0,0 l/m 4,1 km/h (1 Bft) N-NO 26 0 min 0,000 mm 0,0 UV-I 136 W/m 10,8 C 17,7 C 6,4 km/h (2 Bft) 92,86 %
14.06.2018 19:10 17,7 C 23,3 C 65 % 1013,7 hPa 0,0 l/m 3,6 km/h (1 Bft) N-NO 26 0 min 0,000 mm 0,0 UV-I 144 W/m 11,0 C 17,7 C 4,8 km/h (1 Bft) 100,00 %
14.06.2018 19:11 17,7 C 23,3 C 68 % 1013,7 hPa 0,0 l/m 4,0 km/h (1 Bft) O-NO 69 0 min 0,000 mm 0,0 UV-I 145 W/m 11,7 C 17,7 C 6,4 km/h (2 Bft) 100,00 %
14.06.2018 19:12 17,7 C 23,3 C 65 % 1013,7 hPa 0,0 l/m 6,1 km/h (2 Bft) NO 34 0 min 0,000 mm 0,0 UV-I 132 W/m 11,0 C 17,7 C 9,7 km/h (2 Bft) 91,67 %
14.06.2018 19:13 17,7 C 23,3 C 64 % 1013,7 hPa 0,0 l/m 8,6 km/h (2 Bft) O 84 0 min 0,000 mm 0,0 UV-I 117 W/m 10,8 C 16,7 C 11,3 km/h (2 Bft) 100,00 %
14.06.2018 19:14 17,7 C 23,3 C 63 % 1013,7 hPa 0,0 l/m 7,3 km/h (2 Bft) O 90 0 min 0,000 mm 0,0 UV-I 109 W/m 10,6 C 17,3 C 11,3 km/h (2 Bft) 97,44 %
14.06.2018 19:15 17,6 C 23,3 C 63 % 1013,7 hPa 0,0 l/m 5,7 km/h (1 Bft) O 94 0 min 0,000 mm 0,0 UV-I 105 W/m 10,5 C 17,6 C 6,4 km/h (2 Bft) 90,91 %
14.06.2018 19:16 17,5 C 23,3 C 64 % 1013,7 hPa 0,0 l/m 6,4 km/h (2 Bft) O-SO 109 0 min 0,000 mm 0,0 UV-I 105 W/m 10,6 C 17,5 C 9,7 km/h (2 Bft) 96,30 %
14.06.2018 19:18 17,4 C 23,3 C 65 % 1013,7 hPa 0,0 l/m 6,0 km/h (2 Bft) O 93 0 min 0,000 mm 0,0 UV-I 105 W/m 10,8 C 17,4 C 11,3 km/h (2 Bft) 98,21 %
14.06.2018 19:19 17,4 C 23,3 C 65 % 1013,7 hPa 0,0 l/m 6,8 km/h (2 Bft) O-NO 68 0 min 0,000 mm 0,0 UV-I 105 W/m 10,8 C 17,2 C 9,7 km/h (2 Bft) 91,30 %
14.06.2018 19:20 17,4 C 23,3 C 66 % 1013,7 hPa 0,0 l/m 7,5 km/h (2 Bft) O 84 0 min 0,000 mm 0,0 UV-I 105 W/m 11,0 C 16,9 C 11,3 km/h (2 Bft) 100,00 %
14.06.2018 19:21 17,3 C 23,3 C 64 % 1013,7 hPa 0,0 l/m 7,7 km/h (2 Bft) O 82 0 min 0,000 mm 0,0 UV-I 104 W/m 10,4 C 16,7 C 11,3 km/h (2 Bft) 95,83 %
14.06.2018 19:22 17,3 C 23,3 C 65 % 1013,7 hPa 0,0 l/m 6,2 km/h (2 Bft) O 90 0 min 0,000 mm 0,0 UV-I 102 W/m 10,7 C 17,3 C 9,7 km/h (2 Bft) 100,00 %
14.06.2018 19:23 17,2 C 23,3 C 65 % 1013,7 hPa 0,0 l/m 5,7 km/h (1 Bft) O 84 0 min 0,000 mm 0,0 UV-I 100 W/m 10,6 C 17,2 C 9,7 km/h (2 Bft) 95,83 %
14.06.2018 19:24 17,2 C 23,3 C 66 % 1013,7 hPa 0,0 l/m 7,9 km/h (2 Bft) O 90 0 min 0,000 mm 0,0 UV-I 98 W/m 10,8 C 16,5 C 11,3 km/h (2 Bft) 100,00 %
14.06.2018 19:25 17,2 C 23,3 C 67 % 1013,7 hPa 0,0 l/m 5,7 km/h (1 Bft) O-SO 104 0 min 0,000 mm 0,0 UV-I 95 W/m 11,0 C 17,2 C 9,7 km/h (2 Bft) 96,30 %
14.06.2018 19:26 17,2 C 23,3 C 66 % 1013,8 hPa 0,0 l/m 4,7 km/h (1 Bft) O 97 0 min 0,000 mm 0,0 UV-I 91 W/m 10,8 C 17,2 C 6,4 km/h (2 Bft) 81,82 %
14.06.2018 19:28 17,1 C 23,3 C 66 % 1013,8 hPa 0,0 l/m 5,8 km/h (2 Bft) O-SO 102 0 min 0,000 mm 0,0 UV-I 86 W/m 10,7 C 17,1 C 9,7 km/h (2 Bft) 96,61 %
14.06.2018 19:29 17,1 C 23,3 C 67 % 1013,8 hPa 0,0 l/m 3,6 km/h (1 Bft) O-SO 105 0 min 0,000 mm 0,0 UV-I 82 W/m 10,9 C 17,1 C 6,4 km/h (2 Bft) 100,00 %
14.06.2018 19:30 17,1 C 23,3 C 68 % 1013,8 hPa 0,0 l/m 4,2 km/h (1 Bft) O-SO 105 0 min 0,000 mm 0,0 UV-I 80 W/m 11,1 C 17,1 C 6,4 km/h (2 Bft) 100,00 %
14.06.2018 19:31 17,1 C 23,3 C 67 % 1013,8 hPa 0,0 l/m 4,9 km/h (1 Bft) O 98 0 min 0,000 mm 0,0 UV-I 79 W/m 10,9 C 17,1 C 9,7 km/h (2 Bft) 95,83 %
14.06.2018 19:32 17,0 C 23,3 C 67 % 1013,8 hPa 0,0 l/m 5,4 km/h (1 Bft) O 83 0 min 0,000 mm 0,0 UV-I 78 W/m 10,8 C 17,0 C 11,3 km/h (2 Bft) 86,96 %
14.06.2018 19:33 17,1 C 23,3 C 67 % 1013,8 hPa 0,0 l/m 7,8 km/h (2 Bft) O-SO 107 0 min 0,000 mm 0,0 UV-I 77 W/m 10,9 C 16,4 C 12,9 km/h (3 Bft) 100,00 %
14.06.2018 19:34 17,0 C 23,3 C 67 % 1013,8 hPa 0,0 l/m 7,2 km/h (2 Bft) O 79 0 min 0,000 mm 0,0 UV-I 77 W/m 10,8 C 16,6 C 11,3 km/h (2 Bft) 91,30 %
14.06.2018 19:35 17,0 C 23,3 C 67 % 1013,9 hPa 0,0 l/m 5,2 km/h (1 Bft) O 86 0 min 0,000 mm 0,0 UV-I 77 W/m 10,8 C 17,0 C 11,3 km/h (2 Bft) 95,83 %
14.06.2018 19:36 17,0 C 23,3 C 67 % 1013,8 hPa 0,0 l/m 8,2 km/h (2 Bft) O 98 0 min 0,000 mm 0,0 UV-I 77 W/m 10,8 C 16,1 C 14,5 km/h (3 Bft) 91,30 %
14.06.2018 19:38 16,9 C 23,3 C 67 % 1013,8 hPa 0,0 l/m 9,0 km/h (2 Bft) O 101 0 min 0,000 mm 0,0 UV-I 79 W/m 10,7 C 15,6 C 12,9 km/h (3 Bft) 96,23 %
14.06.2018 19:39 16,9 C 23,3 C 67 % 1013,8 hPa 0,0 l/m 6,8 km/h (2 Bft) O 93 0 min 0,000 mm 0,0 UV-I 81 W/m 10,7 C 16,7 C 11,3 km/h (2 Bft) 91,67 %
14.06.2018 19:40 16,9 C 23,3 C 67 % 1013,8 hPa 0,0 l/m 4,8 km/h (1 Bft) O-SO 105 0 min 0,000 mm 0,0 UV-I 84 W/m 10,7 C 16,9 C 6,4 km/h (2 Bft) 100,00 %
14.06.2018 19:41 16,9 C 23,3 C 67 % 1013,8 hPa 0,0 l/m 5,1 km/h (1 Bft) SO 140 0 min 0,000 mm 0,0 UV-I 86 W/m 10,7 C 16,9 C 8,0 km/h (2 Bft) 95,65 %
14.06.2018 19:43 16,9 C 23,3 C 68 % 1013,8 hPa 0,0 l/m 5,2 km/h (1 Bft) O-SO 122 0 min 0,000 mm 0,0 UV-I 90 W/m 11,0 C 16,9 C 9,7 km/h (2 Bft) 91,49 %
14.06.2018 19:44 16,9 C 23,3 C 68 % 1013,8 hPa 0,0 l/m 5,5 km/h (1 Bft) O-SO 121 0 min 0,000 mm 0,0 UV-I 97 W/m 11,0 C 16,9 C 8,0 km/h (2 Bft) 96,67 %
14.06.2018 19:45 16,9 C 23,3 C 68 % 1013,7 hPa 0,0 l/m 4,7 km/h (1 Bft) O-SO 121 1 min 0,000 mm 0,0 UV-I 105 W/m 11,0 C 16,9 C 6,4 km/h (2 Bft) 96,15 %
14.06.2018 19:46 16,9 C 23,3 C 68 % 1013,7 hPa 0,0 l/m 3,5 km/h (1 Bft) O-SO 120 1 min 0,000 mm 0,0 UV-I 111 W/m 11,0 C 16,9 C 4,8 km/h (1 Bft) 100,00 %
14.06.2018 19:48 16,9 C 23,3 C 68 % 1013,7 hPa 0,0 l/m 3,9 km/h (1 Bft) O-SO 121 2 min 0,000 mm 0,0 UV-I 113 W/m 11,0 C 16,9 C 9,7 km/h (2 Bft) 93,55 %
14.06.2018 19:49 16,9 C 23,3 C 69 % 1013,7 hPa 0,0 l/m 5,3 km/h (1 Bft) O-SO 122 1 min 0,000 mm 0,0 UV-I 106 W/m 11,2 C 16,9 C 6,4 km/h (2 Bft) 90,91 %
14.06.2018 19:50 16,9 C 23,3 C 68 % 1013,8 hPa 0,0 l/m 6,2 km/h (2 Bft) O-SO 122 1 min 0,000 mm 0,0 UV-I 102 W/m 11,0 C 16,9 C 8,0 km/h (2 Bft) 95,83 %
14.06.2018 19:51 16,9 C 23,3 C 69 % 1013,8 hPa 0,0 l/m 4,6 km/h (1 Bft) SO 124 1 min 0,000 mm 0,0 UV-I 100 W/m 11,2 C 16,9 C 6,4 km/h (2 Bft) 96,15 %
14.06.2018 19:52 16,9 C 23,3 C 69 % 1013,8 hPa 0,0 l/m 8,7 km/h (2 Bft) O 92 1 min 0,000 mm 0,0 UV-I 102 W/m 11,2 C 15,8 C 11,3 km/h (2 Bft) 91,67 %
14.06.2018 19:53 16,9 C 23,3 C 69 % 1013,8 hPa 0,0 l/m 5,0 km/h (1 Bft) O-SO 123 1 min 0,000 mm 0,0 UV-I 105 W/m 11,2 C 16,9 C 6,4 km/h (2 Bft) 96,15 %
14.06.2018 19:54 17,0 C 23,3 C 69 % 1013,8 hPa 0,0 l/m 4,6 km/h (1 Bft) O-SO 123 1 min 0,000 mm 0,0 UV-I 109 W/m 11,3 C 17,0 C 4,8 km/h (1 Bft) 95,83 %
14.06.2018 19:55 17,0 C 23,3 C 68 % 1013,9 hPa 0,0 l/m 3,1 km/h (1 Bft) O-SO 123 1 min 0,000 mm 0,0 UV-I 112 W/m 11,0 C 17,0 C 4,8 km/h (1 Bft) 95,65 %
14.06.2018 19:56 17,1 C 23,3 C 70 % 1013,9 hPa 0,0 l/m 2,7 km/h (1 Bft) O-SO 123 1 min 0,000 mm 0,0 UV-I 113 W/m 11,6 C 17,1 C 3,2 km/h (1 Bft) 91,67 %
14.06.2018 19:58 17,1 C 23,3 C 68 % 1013,9 hPa 0,0 l/m 4,3 km/h (1 Bft) O-SO 123 2 min 0,000 mm 0,0 UV-I 108 W/m 11,1 C 17,1 C 8,0 km/h (2 Bft) 96,43 %
14.06.2018 19:59 17,1 C 23,3 C 69 % 1013,9 hPa 0,0 l/m 6,1 km/h (2 Bft) SO 136 1 min 0,000 mm 0,0 UV-I 101 W/m 11,4 C 17,1 C 8,0 km/h (2 Bft) 95,83 %
14.06.2018 20:00 17,1 C 23,3 C 68 % 1013,9 hPa 0,0 l/m 3,0 km/h (1 Bft) SO 136 1 min 0,076 mm 0,0 UV-I 95 W/m 11,1 C 17,1 C 4,8 km/h (1 Bft) 96,15 %
14.06.2018 20:02 17,1 C 23,3 C 69 % 1014,0 hPa 0,0 l/m 4,0 km/h (1 Bft) SO 136 2 min 0,000 mm 0,0 UV-I 91 W/m 11,4 C 17,1 C 6,4 km/h (2 Bft) 93,18 %
14.06.2018 20:03 17,1 C 23,3 C 69 % 1014,0 hPa 0,0 l/m 4,0 km/h (1 Bft) SO 128 1 min 0,000 mm 0,0 UV-I 91 W/m 11,4 C 17,1 C 6,4 km/h (2 Bft) 91,67 %
14.06.2018 20:04 17,1 C 23,3 C 69 % 1014,0 hPa 0,0 l/m 5,2 km/h (1 Bft) SO 126 1 min 0,000 mm 0,0 UV-I 89 W/m 11,4 C 17,1 C 6,4 km/h (2 Bft) 96,15 %
14.06.2018 20:05 17,1 C 23,3 C 69 % 1014,1 hPa 0,0 l/m 5,3 km/h (1 Bft) SO 132 1 min 0,000 mm 0,0 UV-I 85 W/m 11,4 C 17,1 C 6,4 km/h (2 Bft) 100,00 %
14.06.2018 20:06 17,0 C 23,3 C 69 % 1014,0 hPa 0,0 l/m 3,2 km/h (1 Bft) SO 132 1 min 0,000 mm 0,0 UV-I 82 W/m 11,3 C 17,0 C 4,8 km/h (1 Bft) 96,15 %
14.06.2018 20:08 17,1 C 23,3 C 70 % 1014,1 hPa 0,0 l/m 2,1 km/h (1 Bft) SO 132 2 min 0,000 mm 0,0 UV-I 74 W/m 11,6 C 17,1 C 3,2 km/h (1 Bft) 96,00 %
14.06.2018 20:09 17,1 C 23,3 C 69 % 1014,1 hPa 0,0 l/m 2,3 km/h (1 Bft) SO 132 1 min 0,000 mm 0,0 UV-I 69 W/m 11,4 C 17,1 C 3,2 km/h (1 Bft) 95,83 %
14.06.2018 20:10 17,1 C 23,3 C 70 % 1014,0 hPa 0,0 l/m 1,9 km/h (1 Bft) SO 132 1 min 0,000 mm 0,0 UV-I 70 W/m 11,6 C 17,1 C 3,2 km/h (1 Bft) 100,00 %
14.06.2018 20:11 17,1 C 23,3 C 69 % 1014,1 hPa 0,0 l/m 3,8 km/h (1 Bft) O-NO 59 1 min 0,000 mm 0,0 UV-I 70 W/m 11,4 C 17,1 C 4,8 km/h (1 Bft) 95,83 %
14.06.2018 20:13 17,0 C 23,3 C 69 % 1014,1 hPa 0,0 l/m 5,4 km/h (1 Bft) O 89 2 min 0,000 mm 0,0 UV-I 70 W/m 11,3 C 17,0 C 9,7 km/h (2 Bft) 94,00 %
14.06.2018 20:14 17,0 C 23,3 C 69 % 1014,1 hPa 0,0 l/m 5,3 km/h (1 Bft) O 90 1 min 0,000 mm 0,0 UV-I 69 W/m 11,3 C 17,0 C 6,4 km/h (2 Bft) 95,65 %
14.06.2018 20:15 17,0 C 23,3 C 70 % 1014,1 hPa 0,0 l/m 5,0 km/h (1 Bft) O-NO 71 1 min 0,000 mm 0,0 UV-I 65 W/m 11,5 C 17,0 C 6,4 km/h (2 Bft) 100,00 %
14.06.2018 20:16 16,9 C 23,3 C 70 % 1014,1 hPa 0,0 l/m 5,9 km/h (2 Bft) O-SO 107 1 min 0,000 mm 0,0 UV-I 64 W/m 11,4 C 16,9 C 9,7 km/h (2 Bft) 96,30 %
14.06.2018 20:17 16,9 C 23,3 C 70 % 1014,1 hPa 0,0 l/m 9,8 km/h (2 Bft) O-SO 102 1 min 0,000 mm 0,0 UV-I 67 W/m 11,4 C 15,3 C 12,9 km/h (3 Bft) 96,55 %
14.06.2018 20:18 16,9 C 23,3 C 69 % 1014,1 hPa 0,0 l/m 6,0 km/h (2 Bft) O-NO 76 1 min 0,000 mm 0,0 UV-I 69 W/m 11,2 C 16,9 C 11,3 km/h (2 Bft) 91,30 %
14.06.2018 20:19 16,8 C 23,3 C 69 % 1014,1 hPa 0,0 l/m 4,4 km/h (1 Bft) O-SO 105 1 min 0,000 mm 0,0 UV-I 69 W/m 11,1 C 16,8 C 6,4 km/h (2 Bft) 95,83 %
14.06.2018 20:20 16,8 C 23,3 C 70 % 1014,1 hPa 0,0 l/m 8,0 km/h (2 Bft) O-SO 119 1 min 0,000 mm 0,0 UV-I 67 W/m 11,3 C 16,0 C 11,3 km/h (2 Bft) 93,33 %
14.06.2018 20:21 16,8 C 23,3 C 69 % 1014,1 hPa 0,0 l/m 5,5 km/h (1 Bft) O 101 1 min 0,000 mm 0,0 UV-I 65 W/m 11,1 C 16,8 C 8,0 km/h (2 Bft) 100,00 %
14.06.2018 20:23 16,7 C 23,3 C 69 % 1014,1 hPa 0,0 l/m 4,1 km/h (1 Bft) O-SO 112 2 min 0,000 mm 0,0 UV-I 62 W/m 11,0 C 16,7 C 6,4 km/h (2 Bft) 98,31 %
14.06.2018 20:24 16,7 C 23,3 C 70 % 1014,1 hPa 0,0 l/m 5,2 km/h (1 Bft) O 99 1 min 0,000 mm 0,0 UV-I 60 W/m 11,2 C 16,7 C 11,3 km/h (2 Bft) 100,00 %
14.06.2018 20:25 16,6 C 23,3 C 70 % 1014,1 hPa 0,0 l/m 8,6 km/h (2 Bft) O-SO 108 1 min 0,000 mm 0,0 UV-I 59 W/m 11,1 C 15,5 C 11,3 km/h (2 Bft) 100,00 %
14.06.2018 20:26 16,6 C 22,8 C 70 % 1014,1 hPa 0,0 l/m 6,7 km/h (2 Bft) O 100 1 min 0,000 mm 0,0 UV-I 58 W/m 11,1 C 16,5 C 9,7 km/h (2 Bft) 96,67 %
14.06.2018 20:27 16,6 C 22,8 C 70 % 1014,1 hPa 0,0 l/m 4,3 km/h (1 Bft) O-SO 104 1 min 0,000 mm 0,0 UV-I 53 W/m 11,1 C 16,6 C 6,4 km/h (2 Bft) 97,91 %
14.06.2018 20:28 16,5 C 22,8 C 70 % 1014,1 hPa 0,0 l/m 3,5 km/h (1 Bft) O-SO 105 1 min 0,000 mm 0,0 UV-I 48 W/m 11,0 C 16,5 C 6,4 km/h (2 Bft) 100,00 %
14.06.2018 20:29 16,5 C 22,8 C 71 % 1014,2 hPa 0,0 l/m 5,8 km/h (2 Bft) O-SO 109 1 min 0,000 mm 0,0 UV-I 45 W/m 11,2 C 16,5 C 6,4 km/h (2 Bft) 100,00 %
14.06.2018 20:30 16,4 C 22,8 C 69 % 1014,1 hPa 0,0 l/m 5,6 km/h (1 Bft) O-SO 110 1 min 0,000 mm 0,0 UV-I 43 W/m 10,7 C 16,4 C 9,7 km/h (2 Bft) 100,00 %
14.06.2018 20:31 16,4 C 22,8 C 70 % 1014,1 hPa 0,0 l/m 4,2 km/h (1 Bft) O-SO 102 1 min 0,000 mm 0,0 UV-I 42 W/m 10,9 C 16,4 C 6,4 km/h (2 Bft) 100,00 %
14.06.2018 20:33 16,3 C 22,8 C 71 % 1014,1 hPa 0,0 l/m 4,7 km/h (1 Bft) O 96 2 min 0,000 mm 0,0 UV-I 40 W/m 11,0 C 16,3 C 9,7 km/h (2 Bft) 100,00 %
14.06.2018 20:34 16,3 C 22,8 C 71 % 1014,1 hPa 0,0 l/m 4,1 km/h (1 Bft) O 96 1 min 0,000 mm 0,0 UV-I 38 W/m 11,0 C 16,3 C 4,8 km/h (1 Bft) 100,00 %
14.06.2018 20:35 16,3 C 22,8 C 71 % 1014,0 hPa 0,0 l/m 5,0 km/h (1 Bft) O 84 1 min 0,000 mm 0,0 UV-I 37 W/m 11,0 C 16,3 C 6,4 km/h (2 Bft) 100,00 %
14.06.2018 20:36 16,3 C 22,8 C 71 % 1014,1 hPa 0,0 l/m 5,0 km/h (1 Bft) O-NO 74 1 min 0,000 mm 0,0 UV-I 35 W/m 11,0 C 16,3 C 6,4 km/h (2 Bft) 100,00 %
14.06.2018 20:37 16,2 C 22,8 C 72 % 1014,1 hPa 0,0 l/m 4,6 km/h (1 Bft) O 94 1 min 0,000 mm 0,0 UV-I 34 W/m 11,1 C 16,2 C 6,4 km/h (2 Bft) 100,00 %
14.06.2018 20:38 16,2 C 22,8 C 72 % 1014,1 hPa 0,0 l/m 5,3 km/h (1 Bft) O 94 1 min 0,000 mm 0,0 UV-I 33 W/m 11,1 C 16,2 C 9,7 km/h (2 Bft) 100,00 %
14.06.2018 20:39 16,2 C 22,8 C 71 % 1014,1 hPa 0,0 l/m 5,5 km/h (1 Bft) O 94 1 min 0,000 mm 0,0 UV-I 32 W/m 10,9 C 16,2 C 6,4 km/h (2 Bft) 100,00 %
14.06.2018 20:40 16,2 C 22,8 C 72 % 1014,1 hPa 0,0 l/m 5,4 km/h (1 Bft) O 97 1 min 0,000 mm 0,0 UV-I 31 W/m 11,1 C 16,2 C 9,7 km/h (2 Bft) 95,65 %
14.06.2018 20:41 16,2 C 22,8 C 72 % 1014,1 hPa 0,0 l/m 6,2 km/h (2 Bft) O-NO 63 1 min 0,000 mm 0,0 UV-I 30 W/m 11,1 C 16,2 C 9,7 km/h (2 Bft) 100,00 %
14.06.2018 20:43 16,1 C 22,8 C 72 % 1014,1 hPa 0,0 l/m 4,9 km/h (1 Bft) O 88 2 min 0,000 mm 0,0 UV-I 28 W/m 11,0 C 16,1 C 6,4 km/h (2 Bft) 100,00 %
14.06.2018 20:44 16,1 C 22,8 C 72 % 1014,1 hPa 0,0 l/m 3,9 km/h (1 Bft) O 89 1 min 0,000 mm 0,0 UV-I 26 W/m 11,0 C 16,1 C 4,8 km/h (1 Bft) 100,00 %
14.06.2018 20:45 16,0 C 22,8 C 73 % 1014,1 hPa 0,0 l/m 5,7 km/h (1 Bft) O 90 1 min 0,000 mm 0,0 UV-I 25 W/m 11,2 C 16,0 C 6,4 km/h (2 Bft) 100,00 %
14.06.2018 20:46 15,9 C 22,8 C 74 % 1014,1 hPa 0,0 l/m 3,8 km/h (1 Bft) O 92 1 min 0,000 mm 0,0 UV-I 25 W/m 11,3 C 15,9 C 4,8 km/h (1 Bft) 95,65 %
14.06.2018 20:47 15,9 C 22,8 C 74 % 1014,1 hPa 0,0 l/m 4,4 km/h (1 Bft) O 95 1 min 0,000 mm 0,0 UV-I 24 W/m 11,3 C 15,9 C 6,4 km/h (2 Bft) 96,30 %
14.06.2018 20:48 15,9 C 22,8 C 74 % 1014,1 hPa 0,0 l/m 4,4 km/h (1 Bft) O 95 1 min 0,000 mm 0,0 UV-I 23 W/m 11,3 C 15,9 C 6,4 km/h (2 Bft) 100,00 %
14.06.2018 20:49 15,8 C 22,8 C 74 % 1014,1 hPa 0,0 l/m 4,4 km/h (1 Bft) O 97 1 min 0,000 mm 0,0 UV-I 21 W/m 11,2 C 15,8 C 4,8 km/h (1 Bft) 100,00 %
14.06.2018 20:50 15,8 C 22,8 C 74 % 1014,1 hPa 0,0 l/m 3,0 km/h (1 Bft) O 97 1 min 0,000 mm 0,0 UV-I 21 W/m 11,2 C 15,8 C 4,8 km/h (1 Bft) 100,00 %
14.06.2018 20:51 15,8 C 22,8 C 75 % 1014,1 hPa 0,0 l/m 2,7 km/h (1 Bft) O 97 1 min 0,000 mm 0,0 UV-I 19 W/m 11,4 C 15,8 C 3,2 km/h (1 Bft) 100,00 %
14.06.2018 20:52 15,8 C 22,8 C 75 % 1014,2 hPa 0,0 l/m 2,1 km/h (1 Bft) O 97 1 min 0,000 mm 0,0 UV-I 18 W/m 11,4 C 15,8 C 3,2 km/h (1 Bft) 100,00 %
14.06.2018 20:53 15,7 C 22,8 C 75 % 1014,2 hPa 0,0 l/m 2,0 km/h (1 Bft) O 97 0 min 0,000 mm 0,0 UV-I 17 W/m 11,3 C 15,7 C 3,2 km/h (1 Bft) 100,00 %
14.06.2018 20:54 15,7 C 22,8 C 76 % 1014,2 hPa 0,0 l/m 2,0 km/h (1 Bft) O 97 0 min 0,000 mm 0,0 UV-I 16 W/m 11,5 C 15,7 C 3,2 km/h (1 Bft) 100,00 %
14.06.2018 20:55 15,7 C 22,8 C 76 % 1014,2 hPa 0,0 l/m 2,3 km/h (1 Bft) O 97 0 min 0,000 mm 0,0 UV-I 16 W/m 11,5 C 15,7 C 3,2 km/h (1 Bft) 100,00 %
14.06.2018 20:56 15,7 C 22,8 C 76 % 1014,2 hPa 0,0 l/m 2,5 km/h (1 Bft) O 97 0 min 0,000 mm 0,0 UV-I 14 W/m 11,5 C 15,7 C 3,2 km/h (1 Bft) 100,00 %
14.06.2018 20:57 15,6 C 22,8 C 76 % 1014,2 hPa 0,0 l/m 3,0 km/h (1 Bft) O 97 0 min 0,000 mm 0,0 UV-I 14 W/m 11,4 C 15,6 C 4,8 km/h (1 Bft) 100,00 %
14.06.2018 20:58 15,6 C 22,8 C 77 % 1014,2 hPa 0,0 l/m 4,1 km/h (1 Bft) O 98 0 min 0,000 mm 0,0 UV-I 13 W/m 11,6 C 15,6 C 4,8 km/h (1 Bft) 100,00 %
14.06.2018 20:59 15,6 C 22,8 C 77 % 1014,3 hPa 0,0 l/m 4,2 km/h (1 Bft) O 98 0 min 0,000 mm 0,0 UV-I 12 W/m 11,6 C 15,6 C 4,8 km/h (1 Bft) 100,00 %
14.06.2018 21:00 15,6 C 22,8 C 77 % 1014,3 hPa 0,0 l/m 2,7 km/h (1 Bft) O 98 0 min 0,051 mm 0,0 UV-I 11 W/m 11,6 C 15,6 C 3,2 km/h (1 Bft) 95,83 %
14.06.2018 21:02 15,5 C 22,8 C 77 % 1014,3 hPa 0,0 l/m 2,0 km/h (1 Bft) O 98 0 min 0,000 mm 0,0 UV-I 11 W/m 11,5 C 15,5 C 4,8 km/h (1 Bft) 100,00 %
14.06.2018 21:03 15,6 C 22,8 C 76 % 1014,3 hPa 0,0 l/m 2,8 km/h (1 Bft) O 98 0 min 0,000 mm 0,0 UV-I 11 W/m 11,4 C 15,6 C 3,2 km/h (1 Bft) 96,15 %
14.06.2018 21:04 15,6 C 22,8 C 76 % 1014,3 hPa 0,0 l/m 3,2 km/h (1 Bft) O 98 0 min 0,000 mm 0,0 UV-I 10 W/m 11,4 C 15,6 C 4,8 km/h (1 Bft) 100,00 %
14.06.2018 21:05 15,6 C 22,8 C 76 % 1014,3 hPa 0,0 l/m 3,7 km/h (1 Bft) O-SO 107 0 min 0,000 mm 0,0 UV-I 9 W/m 11,4 C 15,6 C 4,8 km/h (1 Bft) 100,00 %
14.06.2018 21:06 15,6 C 22,8 C 75 % 1014,3 hPa 0,0 l/m 5,1 km/h (1 Bft) O-SO 116 0 min 0,000 mm 0,0 UV-I 8 W/m 11,2 C 15,6 C 6,4 km/h (2 Bft) 100,00 %
14.06.2018 21:07 15,6 C 22,8 C 75 % 1014,3 hPa 0,0 l/m 5,7 km/h (1 Bft) O-SO 107 0 min 0,000 mm 0,0 UV-I 7 W/m 11,2 C 15,6 C 9,7 km/h (2 Bft) 100,00 %
14.06.2018 21:08 15,6 C 22,8 C 75 % 1014,3 hPa 0,0 l/m 5,1 km/h (1 Bft) O-SO 110 0 min 0,000 mm 0,0 UV-I 7 W/m 11,2 C 15,6 C 6,4 km/h (2 Bft) 100,00 %
14.06.2018 21:09 15,4 C 22,8 C 77 % 1014,3 hPa 0,0 l/m 4,3 km/h (1 Bft) O-SO 111 0 min 0,000 mm 0,0 UV-I 5 W/m 11,4 C 15,4 C 4,8 km/h (1 Bft) 96,15 %
14.06.2018 21:10 15,4 C 22,8 C 77 % 1014,3 hPa 0,0 l/m 5,5 km/h (1 Bft) O-SO 115 0 min 0,000 mm 0,0 UV-I 5 W/m 11,4 C 15,4 C 9,7 km/h (2 Bft) 96,30 %
14.06.2018 21:11 15,4 C 22,8 C 77 % 1014,3 hPa 0,0 l/m 3,8 km/h (1 Bft) O-SO 115 0 min 0,000 mm 0,0 UV-I 5 W/m 11,4 C 15,4 C 4,8 km/h (1 Bft) 100,00 %
14.06.2018 21:12 15,3 C 22,8 C 78 % 1014,4 hPa 0,0 l/m 4,4 km/h (1 Bft) O-SO 116 0 min 0,000 mm 0,0 UV-I 5 W/m 11,5 C 15,3 C 6,4 km/h (2 Bft) 96,15 %
14.06.2018 21:13 15,3 C 22,8 C 77 % 1014,4 hPa 0,0 l/m 4,6 km/h (1 Bft) O-SO 117 0 min 0,000 mm 0,0 UV-I 5 W/m 11,3 C 15,3 C 6,4 km/h (2 Bft) 100,00 %
14.06.2018 21:14 15,3 C 22,8 C 77 % 1014,4 hPa 0,0 l/m 4,4 km/h (1 Bft) O-SO 117 0 min 0,000 mm 0,0 UV-I 5 W/m 11,3 C 15,3 C 6,4 km/h (2 Bft) 100,00 %
14.06.2018 21:15 15,3 C 22,8 C 76 % 1014,4 hPa 0,0 l/m 4,2 km/h (1 Bft) O-SO 119 0 min 0,000 mm 0,0 UV-I 5 W/m 11,1 C 15,3 C 6,4 km/h (2 Bft) 100,00 %
14.06.2018 21:16 15,3 C 22,8 C 77 % 1014,4 hPa 0,0 l/m 3,5 km/h (1 Bft) O-SO 119 0 min 0,000 mm 0,0 UV-I 5 W/m 11,3 C 15,3 C 4,8 km/h (1 Bft) 100,00 %
14.06.2018 21:17 15,3 C 22,8 C 77 % 1014,4 hPa 0,0 l/m 3,4 km/h (1 Bft) O-SO 119 0 min 0,000 mm 0,0 UV-I 2 W/m 11,3 C 15,3 C 4,8 km/h (1 Bft) 100,00 %
14.06.2018 21:18 15,3 C 22,8 C 77 % 1014,5 hPa 0,0 l/m 4,4 km/h (1 Bft) SO 124 0 min 0,000 mm 0,0 UV-I 0 W/m 11,3 C 15,3 C 6,4 km/h (2 Bft) 100,00 %
14.06.2018 21:19 15,3 C 22,8 C 77 % 1014,5 hPa 0,0 l/m 6,1 km/h (2 Bft) SO 136 0 min 0,000 mm 0,0 UV-I 0 W/m 11,3 C 15,3 C 9,7 km/h (2 Bft) 100,00 %
14.06.2018 21:20 15,3 C 22,8 C 77 % 1014,5 hPa 0,0 l/m 5,6 km/h (1 Bft) SO 136 0 min 0,000 mm 0,0 UV-I 0 W/m 11,3 C 15,3 C 6,4 km/h (2 Bft) 95,65 %
14.06.2018 21:21 15,3 C 22,8 C 77 % 1014,5 hPa 0,0 l/m 4,2 km/h (1 Bft) SO 136 0 min 0,000 mm 0,0 UV-I 0 W/m 11,3 C 15,3 C 6,4 km/h (2 Bft) 100,00 %
14.06.2018 21:22 15,3 C 22,8 C 78 % 1014,5 hPa 0,0 l/m 4,7 km/h (1 Bft) SO 136 0 min 0,000 mm 0,0 UV-I 0 W/m 11,5 C 15,3 C 4,8 km/h (1 Bft) 100,00 %
14.06.2018 21:23 15,3 C 22,8 C 78 % 1014,5 hPa 0,0 l/m 5,1 km/h (1 Bft) SO 136 0 min 0,000 mm 0,0 UV-I 0 W/m 11,5 C 15,3 C 6,4 km/h (2 Bft) 100,00 %
14.06.2018 21:24 15,2 C 22,8 C 78 % 1014,5 hPa 0,0 l/m 4,6 km/h (1 Bft) SO 134 0 min 0,000 mm 0,0 UV-I 0 W/m 11,4 C 15,2 C 4,8 km/h (1 Bft) 100,00 %
14.06.2018 21:25 15,2 C 22,8 C 79 % 1014,5 hPa 0,0 l/m 4,8 km/h (1 Bft) O-SO 119 0 min 0,000 mm 0,0 UV-I 0 W/m 11,6 C 15,2 C 6,4 km/h (2 Bft) 100,00 %
14.06.2018 21:26 15,1 C 22,8 C 78 % 1014,6 hPa 0,0 l/m 5,2 km/h (1 Bft) O-SO 117 0 min 0,000 mm 0,0 UV-I 0 W/m 11,3 C 15,1 C 6,4 km/h (2 Bft) 95,65 %
14.06.2018 21:27 15,1 C 22,8 C 78 % 1014,6 hPa 0,0 l/m 5,3 km/h (1 Bft) O-SO 117 0 min 0,000 mm 0,0 UV-I 0 W/m 11,3 C 15,1 C 6,4 km/h (2 Bft) 100,00 %
14.06.2018 21:28 15,1 C 22,8 C 78 % 1014,5 hPa 0,0 l/m 5,4 km/h (1 Bft) O-SO 117 0 min 0,000 mm 0,0 UV-I 0 W/m 11,3 C 15,1 C 6,4 km/h (2 Bft) 100,00 %
14.06.2018 21:29 15,2 C 22,8 C 77 % 1014,5 hPa 0,0 l/m 4,7 km/h (1 Bft) O-SO 103 0 min 0,000 mm 0,0 UV-I 0 W/m 11,2 C 15,2 C 6,4 km/h (2 Bft) 100,00 %
14.06.2018 21:30 15,2 C 22,8 C 77 % 1014,6 hPa 0,0 l/m 5,6 km/h (1 Bft) O-SO 121 0 min 0,000 mm 0,0 UV-I 0 W/m 11,2 C 15,2 C 9,7 km/h (2 Bft) 96,15 %
14.06.2018 21:31 15,2 C 22,8 C 76 % 1014,6 hPa 0,0 l/m 5,6 km/h (1 Bft) SO 125 0 min 0,000 mm 0,0 UV-I 0 W/m 11,0 C 15,2 C 8,0 km/h (2 Bft) 96,30 %
14.06.2018 21:32 15,3 C 22,8 C 76 % 1014,6 hPa 0,0 l/m 5,5 km/h (1 Bft) O-SO 119 0 min 0,000 mm 0,0 UV-I 0 W/m 11,1 C 15,3 C 8,0 km/h (2 Bft) 95,65 %
14.06.2018 21:33 15,3 C 22,8 C 76 % 1014,6 hPa 0,0 l/m 5,6 km/h (1 Bft) O-SO 113 0 min 0,000 mm 0,0 UV-I 0 W/m 11,1 C 15,3 C 6,4 km/h (2 Bft) 100,00 %
14.06.2018 21:34 15,3 C 22,8 C 76 % 1014,6 hPa 0,0 l/m 5,2 km/h (1 Bft) O-SO 120 0 min 0,000 mm 0,0 UV-I 0 W/m 11,1 C 15,3 C 6,4 km/h (2 Bft) 95,83 %
14.06.2018 21:35 15,3 C 22,8 C 75 % 1014,7 hPa 0,0 l/m 6,0 km/h (2 Bft) O-SO 123 0 min 0,000 mm 0,0 UV-I 0 W/m 10,9 C 15,3 C 8,0 km/h (2 Bft) 100,00 %
14.06.2018 21:36 15,4 C 22,8 C 75 % 1014,6 hPa 0,0 l/m 5,1 km/h (1 Bft) O-SO 121 0 min 0,000 mm 0,0 UV-I 0 W/m 11,0 C 15,4 C 6,4 km/h (2 Bft) 95,83 %
14.06.2018 21:37 15,4 C 22,8 C 75 % 1014,7 hPa 0,0 l/m 5,0 km/h (1 Bft) O-SO 121 0 min 0,000 mm 0,0 UV-I 0 W/m 11,0 C 15,4 C 6,4 km/h (2 Bft) 95,65 %
14.06.2018 21:38 15,4 C 22,8 C 76 % 1014,7 hPa 0,0 l/m 4,7 km/h (1 Bft) O-SO 121 0 min 0,000 mm 0,0 UV-I 0 W/m 11,2 C 15,4 C 6,4 km/h (2 Bft) 100,00 %
14.06.2018 21:39 15,4 C 22,8 C 76 % 1014,7 hPa 0,0 l/m 4,0 km/h (1 Bft) O-SO 121 0 min 0,000 mm 0,0 UV-I 0 W/m 11,2 C 15,4 C 4,8 km/h (1 Bft) 91,30 %
14.06.2018 21:40 15,3 C 22,8 C 76 % 1014,7 hPa 0,0 l/m 3,6 km/h (1 Bft) O-SO 121 0 min 0,000 mm 0,0 UV-I 0 W/m 11,1 C 15,3 C 6,4 km/h (2 Bft) 100,00 %
14.06.2018 21:41 15,3 C 22,8 C 77 % 1014,7 hPa 0,0 l/m 4,5 km/h (1 Bft) SO 124 0 min 0,000 mm 0,0 UV-I 0 W/m 11,3 C 15,3 C 4,8 km/h (1 Bft) 95,65 %
14.06.2018 21:42 15,3 C 22,8 C 77 % 1014,7 hPa 0,0 l/m 3,6 km/h (1 Bft) SO 127 0 min 0,000 mm 0,0 UV-I 0 W/m 11,3 C 15,3 C 4,8 km/h (1 Bft) 100,00 %
14.06.2018 21:43 15,3 C 22,8 C 77 % 1014,8 hPa 0,0 l/m 2,7 km/h (1 Bft) SO 127 0 min 0,000 mm 0,0 UV-I 0 W/m 11,3 C 15,3 C 3,2 km/h (1 Bft) 95,65 %
14.06.2018 21:44 15,3 C 22,8 C 77 % 1014,8 hPa 0,0 l/m 3,5 km/h (1 Bft) O-SO 119 0 min 0,000 mm 0,0 UV-I 0 W/m 11,3 C 15,3 C 4,8 km/h (1 Bft) 100,00 %
14.06.2018 21:45 15,3 C 22,8 C 77 % 1014,8 hPa 0,0 l/m 2,4 km/h (1 Bft) O-SO 119 0 min 0,000 mm 0,0 UV-I 0 W/m 11,3 C 15,3 C 4,8 km/h (1 Bft) 95,65 %
14.06.2018 21:46 15,3 C 22,8 C 77 % 1014,7 hPa 0,0 l/m 4,2 km/h (1 Bft) O-SO 119 0 min 0,000 mm 0,0 UV-I 0 W/m 11,3 C 15,3 C 8,0 km/h (2 Bft) 96,30 %
14.06.2018 21:47 15,3 C 22,8 C 77 % 1014,8 hPa 0,0 l/m 3,8 km/h (1 Bft) O-SO 121 0 min 0,000 mm 0,0 UV-I 0 W/m 11,3 C 15,3 C 4,8 km/h (1 Bft) 100,00 %
14.06.2018 21:48 15,3 C 22,8 C 77 % 1014,8 hPa 0,0 l/m 3,0 km/h (1 Bft) O-SO 121 0 min 0,000 mm 0,0 UV-I 0 W/m 11,3 C 15,3 C 3,2 km/h (1 Bft) 96,15 %
14.06.2018 21:49 15,3 C 22,8 C 77 % 1014,8 hPa 0,0 l/m 3,3 km/h (1 Bft) O-SO 121 0 min 0,000 mm 0,0 UV-I 0 W/m 11,3 C 15,3 C 4,8 km/h (1 Bft) 100,00 %
14.06.2018 21:50 15,3 C 22,8 C 78 % 1014,8 hPa 0,0 l/m 2,7 km/h (1 Bft) O-SO 121 0 min 0,000 mm 0,0 UV-I 0 W/m 11,5 C 15,3 C 4,8 km/h (1 Bft) 95,65 %
14.06.2018 21:51 15,3 C 22,8 C 77 % 1014,8 hPa 0,0 l/m 3,7 km/h (1 Bft) O-SO 122 0 min 0,000 mm 0,0 UV-I 0 W/m 11,3 C 15,3 C 4,8 km/h (1 Bft) 100,00 %
14.06.2018 21:53 15,3 C 22,8 C 77 % 1014,8 hPa 0,0 l/m 3,3 km/h (1 Bft) O-SO 122 0 min 0,000 mm 0,0 UV-I 0 W/m 11,3 C 15,3 C 4,8 km/h (1 Bft) 98,00 %
14.06.2018 21:54 15,3 C 22,8 C 77 % 1014,8 hPa 0,0 l/m 3,4 km/h (1 Bft) O-SO 122 0 min 0,000 mm 0,0 UV-I 0 W/m 11,3 C 15,3 C 4,8 km/h (1 Bft) 95,65 %
14.06.2018 21:55 15,3 C 22,8 C 77 % 1014,8 hPa 0,0 l/m 3,6 km/h (1 Bft) SO 128 0 min 0,000 mm 0,0 UV-I 0 W/m 11,3 C 15,3 C 4,8 km/h (1 Bft) 95,83 %
14.06.2018 21:56 15,3 C 22,8 C 77 % 1014,8 hPa 0,0 l/m 3,0 km/h (1 Bft) SO 127 0 min 0,000 mm 0,0 UV-I 0 W/m 11,3 C 15,3 C 4,8 km/h (1 Bft) 100,00 %
14.06.2018 21:57 15,3 C 22,8 C 77 % 1014,8 hPa 0,0 l/m 3,0 km/h (1 Bft) SO 127 0 min 0,000 mm 0,0 UV-I 0 W/m 11,3 C 15,3 C 4,8 km/h (1 Bft) 96,30 %
14.06.2018 21:58 15,3 C 22,8 C 77 % 1014,8 hPa 0,0 l/m 3,7 km/h (1 Bft) O-SO 115 0 min 0,000 mm 0,0 UV-I 0 W/m 11,3 C 15,3 C 6,4 km/h (2 Bft) 100,00 %
14.06.2018 21:59 15,3 C 22,8 C 77 % 1014,9 hPa 0,0 l/m 3,8 km/h (1 Bft) O-SO 115 0 min 0,000 mm 0,0 UV-I 0 W/m 11,3 C 15,3 C 6,4 km/h (2 Bft) 92,31 %
14.06.2018 22:00 15,3 C 22,8 C 78 % 1014,9 hPa 0,0 l/m 3,3 km/h (1 Bft) O-SO 116 0 min 0,025 mm 0,0 UV-I 0 W/m 11,5 C 15,3 C 6,4 km/h (2 Bft) 96,55 %
14.06.2018 22:02 15,2 C 22,8 C 77 % 1014,9 hPa 0,0 l/m 4,6 km/h (1 Bft) O-SO 116 0 min 0,000 mm 0,0 UV-I 0 W/m 11,2 C 15,2 C 6,4 km/h (2 Bft) 97,87 %
14.06.2018 22:03 15,3 C 22,8 C 78 % 1014,9 hPa 0,0 l/m 3,1 km/h (1 Bft) O-SO 116 0 min 0,000 mm 0,0 UV-I 0 W/m 11,5 C 15,3 C 4,8 km/h (1 Bft) 91,67 %
14.06.2018 22:04 15,3 C 22,8 C 77 % 1014,9 hPa 0,0 l/m 2,9 km/h (1 Bft) O-SO 116 0 min 0,000 mm 0,0 UV-I 0 W/m 11,3 C 15,3 C 3,2 km/h (1 Bft) 100,00 %
14.06.2018 22:05 15,3 C 22,8 C 78 % 1014,9 hPa 0,0 l/m 3,3 km/h (1 Bft) O-SO 116 0 min 0,000 mm 0,0 UV-I 0 W/m 11,5 C 15,3 C 4,8 km/h (1 Bft) 91,67 %
14.06.2018 22:06 15,3 C 22,8 C 77 % 1014,9 hPa 0,0 l/m 5,0 km/h (1 Bft) O-SO 119 0 min 0,000 mm 0,0 UV-I 0 W/m 11,3 C 15,3 C 6,4 km/h (2 Bft) 100,00 %
14.06.2018 22:07 15,2 C 22,8 C 77 % 1014,9 hPa 0,0 l/m 5,4 km/h (1 Bft) O-SO 122 0 min 0,000 mm 0,0 UV-I 0 W/m 11,2 C 15,2 C 6,4 km/h (2 Bft) 100,00 %
14.06.2018 22:08 15,2 C 22,8 C 77 % 1014,9 hPa 0,0 l/m 5,2 km/h (1 Bft) O-SO 119 0 min 0,000 mm 0,0 UV-I 0 W/m 11,2 C 15,2 C 6,4 km/h (2 Bft) 100,00 %
14.06.2018 22:09 15,3 C 22,8 C 77 % 1014,9 hPa 0,0 l/m 4,2 km/h (1 Bft) O-SO 119 0 min 0,000 mm 0,0 UV-I 0 W/m 11,3 C 15,3 C 6,4 km/h (2 Bft) 100,00 %
14.06.2018 22:10 15,2 C 22,8 C 77 % 1014,9 hPa 0,0 l/m 5,1 km/h (1 Bft) SO 134 0 min 0,000 mm 0,0 UV-I 0 W/m 11,2 C 15,2 C 6,4 km/h (2 Bft) 100,00 %
14.06.2018 22:11 15,2 C 22,8 C 77 % 1014,9 hPa 0,0 l/m 3,6 km/h (1 Bft) SO 134 0 min 0,000 mm 0,0 UV-I 0 W/m 11,2 C 15,2 C 4,8 km/h (1 Bft) 100,00 %
14.06.2018 22:12 15,2 C 22,8 C 78 % 1014,9 hPa 0,0 l/m 5,2 km/h (1 Bft) O-SO 113 0 min 0,000 mm 0,0 UV-I 0 W/m 11,4 C 15,2 C 6,4 km/h (2 Bft) 100,00 %
14.06.2018 22:13 15,2 C 22,8 C 78 % 1014,9 hPa 0,0 l/m 6,6 km/h (2 Bft) O-SO 123 0 min 0,000 mm 0,0 UV-I 0 W/m 11,4 C 15,1 C 9,7 km/h (2 Bft) 95,65 %
14.06.2018 22:14 15,1 C 22,8 C 78 % 1014,9 hPa 0,0 l/m 4,3 km/h (1 Bft) O-SO 123 0 min 0,000 mm 0,0 UV-I 0 W/m 11,3 C 15,1 C 6,4 km/h (2 Bft) 100,00 %
14.06.2018 22:15 15,1 C 22,8 C 78 % 1014,8 hPa 0,0 l/m 3,3 km/h (1 Bft) O-SO 121 0 min 0,000 mm 0,0 UV-I 0 W/m 11,3 C 15,1 C 4,8 km/h (1 Bft) 100,00 %
14.06.2018 22:16 15,1 C 22,8 C 78 % 1014,8 hPa 0,0 l/m 3,0 km/h (1 Bft) O-SO 121 0 min 0,000 mm 0,0 UV-I 0 W/m 11,3 C 15,1 C 4,8 km/h (1 Bft) 100,00 %
14.06.2018 22:17 14,9 C 22,8 C 79 % 1014,8 hPa 0,0 l/m 4,4 km/h (1 Bft) O-SO 123 0 min 0,000 mm 0,0 UV-I 0 W/m 11,3 C 14,9 C 6,4 km/h (2 Bft) 100,00 %
14.06.2018 22:18 14,9 C 22,8 C 80 % 1014,9 hPa 0,0 l/m 5,4 km/h (1 Bft) SO 126 0 min 0,000 mm 0,0 UV-I 0 W/m 11,5 C 14,9 C 8,0 km/h (2 Bft) 100,00 %
14.06.2018 22:19 14,8 C 22,8 C 79 % 1014,9 hPa 0,0 l/m 4,4 km/h (1 Bft) O-SO 115 0 min 0,000 mm 0,0 UV-I 0 W/m 11,2 C 14,8 C 4,8 km/h (1 Bft) 100,00 %
14.06.2018 22:20 14,8 C 22,8 C 79 % 1015,0 hPa 0,0 l/m 4,8 km/h (1 Bft) O-SO 115 0 min 0,000 mm 0,0 UV-I 0 W/m 11,2 C 14,8 C 4,8 km/h (1 Bft) 100,00 %
14.06.2018 22:21 14,7 C 22,8 C 80 % 1015,0 hPa 0,0 l/m 4,8 km/h (1 Bft) O-SO 122 0 min 0,000 mm 0,0 UV-I 0 W/m 11,3 C 14,7 C 6,4 km/h (2 Bft) 100,00 %
14.06.2018 22:22 14,7 C 22,8 C 81 % 1015,0 hPa 0,0 l/m 4,3 km/h (1 Bft) O-SO 122 0 min 0,000 mm 0,0 UV-I 0 W/m 11,5 C 14,7 C 6,4 km/h (2 Bft) 95,83 %
14.06.2018 22:23 14,7 C 22,8 C 82 % 1015,0 hPa 0,0 l/m 4,7 km/h (1 Bft) O-SO 122 0 min 0,000 mm 0,0 UV-I 0 W/m 11,7 C 14,7 C 6,4 km/h (2 Bft) 100,00 %
14.06.2018 22:24 14,7 C 22,8 C 82 % 1015,0 hPa 0,0 l/m 4,3 km/h (1 Bft) O-SO 122 0 min 0,000 mm 0,0 UV-I 0 W/m 11,7 C 14,7 C 4,8 km/h (1 Bft) 100,00 %
14.06.2018 22:25 14,6 C 22,8 C 82 % 1015,1 hPa 0,0 l/m 4,2 km/h (1 Bft) O-SO 122 0 min 0,000 mm 0,0 UV-I 0 W/m 11,6 C 14,6 C 4,8 km/h (1 Bft) 100,00 %
14.06.2018 22:26 14,5 C 22,8 C 82 % 1015,0 hPa 0,0 l/m 4,3 km/h (1 Bft) SO 127 0 min 0,000 mm 0,0 UV-I 0 W/m 11,5 C 14,5 C 6,4 km/h (2 Bft) 100,00 %
14.06.2018 22:27 14,4 C 22,8 C 83 % 1015,0 hPa 0,0 l/m 4,8 km/h (1 Bft) SO 126 0 min 0,000 mm 0,0 UV-I 0 W/m 11,5 C 14,4 C 6,4 km/h (2 Bft) 100,00 %
14.06.2018 22:28 14,3 C 22,8 C 83 % 1015,0 hPa 0,0 l/m 4,6 km/h (1 Bft) SO 126 0 min 0,000 mm 0,0 UV-I 0 W/m 11,5 C 14,3 C 6,4 km/h (2 Bft) 100,00 %
14.06.2018 22:29 14,3 C 22,8 C 83 % 1015,0 hPa 0,0 l/m 5,5 km/h (1 Bft) SO 125 0 min 0,000 mm 0,0 UV-I 0 W/m 11,5 C 14,3 C 6,4 km/h (2 Bft) 100,00 %
14.06.2018 22:30 14,2 C 22,8 C 83 % 1015,0 hPa 0,0 l/m 4,9 km/h (1 Bft) O-SO 113 0 min 0,000 mm 0,0 UV-I 0 W/m 11,4 C 14,2 C 6,4 km/h (2 Bft) 100,00 %
14.06.2018 22:31 14,2 C 22,8 C 83 % 1015,0 hPa 0,0 l/m 4,1 km/h (1 Bft) O-SO 113 0 min 0,000 mm 0,0 UV-I 0 W/m 11,4 C 14,2 C 4,8 km/h (1 Bft) 100,00 %
14.06.2018 22:33 14,2 C 22,8 C 82 % 1015,1 hPa 0,0 l/m 5,0 km/h (1 Bft) SO 128 0 min 0,000 mm 0,0 UV-I 0 W/m 11,2 C 14,2 C 8,0 km/h (2 Bft) 100,00 %
14.06.2018 22:34 14,2 C 22,8 C 82 % 1015,1 hPa 0,0 l/m 3,9 km/h (1 Bft) SO 128 0 min 0,000 mm 0,0 UV-I 0 W/m 11,2 C 14,2 C 4,8 km/h (1 Bft) 100,00 %
14.06.2018 22:35 14,2 C 22,8 C 83 % 1015,1 hPa 0,0 l/m 2,6 km/h (1 Bft) SO 128 0 min 0,000 mm 0,0 UV-I 0 W/m 11,4 C 14,2 C 4,8 km/h (1 Bft) 100,00 %
14.06.2018 22:36 14,2 C 22,8 C 82 % 1015,1 hPa 0,0 l/m 3,3 km/h (1 Bft) SO 132 0 min 0,000 mm 0,0 UV-I 0 W/m 11,2 C 14,2 C 4,8 km/h (1 Bft) 100,00 %
14.06.2018 22:38 14,2 C 22,8 C 83 % 1015,1 hPa 0,0 l/m 2,3 km/h (1 Bft) SO 132 0 min 0,000 mm 0,0 UV-I 0 W/m 11,4 C 14,2 C 3,2 km/h (1 Bft) 98,00 %
14.06.2018 22:39 14,2 C 22,8 C 83 % 1015,1 hPa 0,0 l/m 1,9 km/h (1 Bft) SO 132 0 min 0,000 mm 0,0 UV-I 0 W/m 11,4 C 14,2 C 3,2 km/h (1 Bft) 100,00 %
14.06.2018 22:40 14,2 C 22,8 C 83 % 1015,1 hPa 0,0 l/m 2,6 km/h (1 Bft) SO 133 0 min 0,000 mm 0,0 UV-I 0 W/m 11,4 C 14,2 C 3,2 km/h (1 Bft) 100,00 %
14.06.2018 22:41 14,1 C 22,8 C 83 % 1015,1 hPa 0,0 l/m 1,8 km/h (1 Bft) SO 133 0 min 0,000 mm 0,0 UV-I 0 W/m 11,3 C 14,1 C 3,2 km/h (1 Bft) 95,83 %
14.06.2018 22:42 14,0 C 22,8 C 83 % 1015,1 hPa 0,0 l/m 1,6 km/h (1 Bft) SO 133 0 min 0,000 mm 0,0 UV-I 0 W/m 11,2 C 14,0 C 3,2 km/h (1 Bft) 100,00 %
14.06.2018 22:43 14,0 C 22,8 C 83 % 1015,1 hPa 0,0 l/m 0,7 km/h (0 Bft) SO 133 0 min 0,000 mm 0,0 UV-I 0 W/m 11,2 C 14,0 C 1,6 km/h (1 Bft) 95,83 %
14.06.2018 22:44 14,1 C 22,8 C 83 % 1015,1 hPa 0,0 l/m 0,1 km/h (0 Bft) SO 133 0 min 0,000 mm 0,0 UV-I 0 W/m 11,3 C 14,1 C 1,6 km/h (1 Bft) 100,00 %
14.06.2018 22:45 14,1 C 22,8 C 83 % 1015,1 hPa 0,0 l/m 0,0 km/h (0 Bft) SO 133 0 min 0,000 mm 0,0 UV-I 0 W/m 11,3 C 14,1 C 0,0 km/h (0 Bft) 100,00 %
14.06.2018 22:46 14,0 C 22,8 C 83 % 1015,2 hPa 0,0 l/m 0,3 km/h (0 Bft) SO 133 0 min 0,000 mm 0,0 UV-I 0 W/m 11,2 C 14,0 C 1,6 km/h (1 Bft) 100,00 %
14.06.2018 22:47 14,0 C 22,8 C 83 % 1015,2 hPa 0,0 l/m 0,1 km/h (0 Bft) SO 133 0 min 0,000 mm 0,0 UV-I 0 W/m 11,2 C 14,0 C 1,6 km/h (1 Bft) 100,00 %
14.06.2018 22:48 13,9 C 22,8 C 83 % 1015,2 hPa 0,0 l/m 0,1 km/h (0 Bft) SO 133 0 min 0,000 mm 0,0 UV-I 0 W/m 11,1 C 13,9 C 1,6 km/h (1 Bft) 100,00 %
14.06.2018 22:49 13,9 C 22,8 C 83 % 1015,2 hPa 0,0 l/m 1,1 km/h (1 Bft) SO 133 0 min 0,000 mm 0,0 UV-I 0 W/m 11,1 C 13,9 C 1,6 km/h (1 Bft) 100,00 %
14.06.2018 22:50 13,9 C 22,8 C 83 % 1015,2 hPa 0,0 l/m 1,4 km/h (1 Bft) SO 133 0 min 0,000 mm 0,0 UV-I 0 W/m 11,1 C 13,9 C 3,2 km/h (1 Bft) 100,00 %
14.06.2018 22:51 14,0 C 22,8 C 84 % 1015,2 hPa 0,0 l/m 1,5 km/h (1 Bft) SO 133 0 min 0,000 mm 0,0 UV-I 0 W/m 11,3 C 14,0 C 3,2 km/h (1 Bft) 100,00 %
14.06.2018 22:52 13,9 C 22,8 C 84 % 1015,2 hPa 0,0 l/m 2,1 km/h (1 Bft) SO 133 0 min 0,000 mm 0,0 UV-I 0 W/m 11,2 C 13,9 C 3,2 km/h (1 Bft) 95,83 %
14.06.2018 22:53 13,9 C 22,8 C 84 % 1015,2 hPa 0,0 l/m 1,6 km/h (1 Bft) SO 133 0 min 0,000 mm 0,0 UV-I 0 W/m 11,2 C 13,9 C 3,2 km/h (1 Bft) 100,00 %
14.06.2018 22:54 13,9 C 22,8 C 84 % 1015,3 hPa 0,0 l/m 0,9 km/h (0 Bft) SO 133 0 min 0,000 mm 0,0 UV-I 0 W/m 11,2 C 13,9 C 1,6 km/h (1 Bft) 95,83 %
14.06.2018 22:55 13,8 C 22,8 C 84 % 1015,3 hPa 0,0 l/m 1,3 km/h (1 Bft) SO 133 0 min 0,000 mm 0,0 UV-I 0 W/m 11,1 C 13,8 C 1,6 km/h (1 Bft) 100,00 %
14.06.2018 22:56 13,8 C 22,8 C 85 % 1015,3 hPa 0,0 l/m 0,0 km/h (0 Bft) SO 133 0 min 0,000 mm 0,0 UV-I 0 W/m 11,3 C 13,8 C 0,0 km/h (0 Bft) 100,00 %
14.06.2018 22:57 13,8 C 22,8 C 85 % 1015,3 hPa 0,0 l/m 0,0 km/h (0 Bft) SO 133 0 min 0,000 mm 0,0 UV-I 0 W/m 11,3 C 13,8 C 0,0 km/h (0 Bft) 96,15 %
14.06.2018 22:58 13,7 C 22,8 C 86 % 1015,3 hPa 0,0 l/m 0,0 km/h (0 Bft) SO 133 0 min 0,000 mm 0,0 UV-I 0 W/m 11,4 C 13,7 C 0,0 km/h (0 Bft) 100,00 %
14.06.2018 22:59 13,6 C 22,8 C 86 % 1015,3 hPa 0,0 l/m 0,0 km/h (0 Bft) SO 133 0 min 0,000 mm 0,0 UV-I 0 W/m 11,3 C 13,6 C 0,0 km/h (0 Bft) 100,00 %
14.06.2018 23:00 13,5 C 22,8 C 86 % 1015,3 hPa 0,0 l/m 0,0 km/h (0 Bft) SO 133 0 min 0,000 mm 0,0 UV-I 0 W/m 11,2 C 13,5 C 0,0 km/h (0 Bft) 100,00 %
14.06.2018 23:02 13,4 C 22,8 C 87 % 1015,4 hPa 0,0 l/m 0,0 km/h (0 Bft) SO 133 0 min 0,000 mm 0,0 UV-I 0 W/m 11,3 C 13,4 C 0,0 km/h (0 Bft) 100,00 %
14.06.2018 23:03 13,4 C 22,8 C 87 % 1015,4 hPa 0,0 l/m 0,0 km/h (0 Bft) SO 133 0 min 0,000 mm 0,0 UV-I 0 W/m 11,3 C 13,4 C 0,0 km/h (0 Bft) 95,65 %
14.06.2018 23:04 13,4 C 22,8 C 87 % 1015,4 hPa 0,0 l/m 0,0 km/h (0 Bft) SO 133 0 min 0,000 mm 0,0 UV-I 0 W/m 11,3 C 13,4 C 0,0 km/h (0 Bft) 95,83 %
14.06.2018 23:05 13,4 C 22,8 C 87 % 1015,4 hPa 0,0 l/m 0,0 km/h (0 Bft) SO 133 0 min 0,000 mm 0,0 UV-I 0 W/m 11,3 C 13,4 C 0,0 km/h (0 Bft) 100,00 %
14.06.2018 23:06 13,6 C 22,8 C 87 % 1015,4 hPa 0,0 l/m 0,0 km/h (0 Bft) SO 133 0 min 0,000 mm 0,0 UV-I 0 W/m 11,5 C 13,6 C 0,0 km/h (0 Bft) 95,83 %
14.06.2018 23:07 13,6 C 22,8 C 87 % 1015,4 hPa 0,0 l/m 0,0 km/h (0 Bft) SO 133 0 min 0,000 mm 0,0 UV-I 0 W/m 11,5 C 13,6 C 0,0 km/h (0 Bft) 95,65 %
14.06.2018 23:08 13,6 C 22,8 C 87 % 1015,4 hPa 0,0 l/m 0,5 km/h (0 Bft) SO 133 0 min 0,000 mm 0,0 UV-I 0 W/m 11,5 C 13,6 C 1,6 km/h (1 Bft) 91,67 %
14.06.2018 23:09 13,6 C 22,8 C 87 % 1015,4 hPa 0,0 l/m 1,4 km/h (1 Bft) SO 133 0 min 0,000 mm 0,0 UV-I 0 W/m 11,5 C 13,6 C 3,2 km/h (1 Bft) 100,00 %
14.06.2018 23:10 13,7 C 22,8 C 87 % 1015,4 hPa 0,0 l/m 0,0 km/h (0 Bft) SO 133 0 min 0,000 mm 0,0 UV-I 0 W/m 11,6 C 13,7 C 0,0 km/h (0 Bft) 96,55 %
14.06.2018 23:11 13,7 C 22,8 C 87 % 1015,4 hPa 0,0 l/m 0,0 km/h (0 Bft) SO 133 0 min 0,000 mm 0,0 UV-I 0 W/m 11,6 C 13,7 C 0,0 km/h (0 Bft) 100,00 %
14.06.2018 23:13 13,6 C 22,8 C 88 % 1015,4 hPa 0,0 l/m 0,0 km/h (0 Bft) SO 133 0 min 0,000 mm 0,0 UV-I 0 W/m 11,6 C 13,6 C 0,0 km/h (0 Bft) 95,74 %
14.06.2018 23:14 13,6 C 22,8 C 88 % 1015,4 hPa 0,0 l/m 0,0 km/h (0 Bft) SO 133 0 min 0,000 mm 0,0 UV-I 0 W/m 11,6 C 13,6 C 0,0 km/h (0 Bft) 95,65 %
14.06.2018 23:15 13,6 C 22,8 C 88 % 1015,3 hPa 0,0 l/m 0,0 km/h (0 Bft) SO 133 0 min 0,000 mm 0,0 UV-I 0 W/m 11,6 C 13,6 C 0,0 km/h (0 Bft) 91,67 %
14.06.2018 23:16 13,6 C 22,8 C 88 % 1015,4 hPa 0,0 l/m 0,6 km/h (0 Bft) SO 133 0 min 0,000 mm 0,0 UV-I 0 W/m 11,6 C 13,6 C 1,6 km/h (1 Bft) 100,00 %
14.06.2018 23:17 13,6 C 22,8 C 88 % 1015,3 hPa 0,0 l/m 2,7 km/h (1 Bft) SO 133 0 min 0,000 mm 0,0 UV-I 0 W/m 11,6 C 13,6 C 3,2 km/h (1 Bft) 96,30 %
14.06.2018 23:18 13,7 C 22,8 C 88 % 1015,4 hPa 0,0 l/m 1,7 km/h (1 Bft) SO 133 0 min 0,000 mm 0,0 UV-I 0 W/m 11,7 C 13,7 C 3,2 km/h (1 Bft) 95,65 %
14.06.2018 23:19 13,8 C 22,8 C 88 % 1015,3 hPa 0,0 l/m 1,4 km/h (1 Bft) SO 133 0 min 0,000 mm 0,0 UV-I 0 W/m 11,8 C 13,8 C 3,2 km/h (1 Bft) 92,59 %
14.06.2018 23:20 13,8 C 22,8 C 87 % 1015,3 hPa 0,0 l/m 1,5 km/h (1 Bft) SO 133 0 min 0,000 mm 0,0 UV-I 0 W/m 11,7 C 13,8 C 3,2 km/h (1 Bft) 100,00 %
14.06.2018 23:21 13,8 C 22,8 C 87 % 1015,3 hPa 0,0 l/m 0,7 km/h (0 Bft) SO 133 0 min 0,000 mm 0,0 UV-I 0 W/m 11,7 C 13,8 C 1,6 km/h (1 Bft) 96,15 %
14.06.2018 23:22 13,9 C 22,8 C 87 % 1015,3 hPa 0,0 l/m 0,8 km/h (0 Bft) SO 133 0 min 0,000 mm 0,0 UV-I 0 W/m 11,8 C 13,9 C 3,2 km/h (1 Bft) 100,00 %
14.06.2018 23:23 13,9 C 22,8 C 87 % 1015,3 hPa 0,0 l/m 0,8 km/h (0 Bft) SO 133 0 min 0,000 mm 0,0 UV-I 0 W/m 11,8 C 13,9 C 1,6 km/h (1 Bft) 95,65 %
14.06.2018 23:24 13,9 C 22,8 C 88 % 1015,3 hPa 0,0 l/m 1,8 km/h (1 Bft) SO 133 0 min 0,000 mm 0,0 UV-I 0 W/m 11,9 C 13,9 C 3,2 km/h (1 Bft) 95,83 %
14.06.2018 23:25 13,9 C 22,8 C 88 % 1015,3 hPa 0,0 l/m 0,9 km/h (0 Bft) SO 133 0 min 0,000 mm 0,0 UV-I 0 W/m 11,9 C 13,9 C 1,6 km/h (1 Bft) 96,15 %
14.06.2018 23:26 13,9 C 22,8 C 86 % 1015,3 hPa 0,0 l/m 0,2 km/h (0 Bft) SO 133 0 min 0,000 mm 0,0 UV-I 0 W/m 11,6 C 13,9 C 1,6 km/h (1 Bft) 96,15 %
14.06.2018 23:27 13,9 C 22,8 C 86 % 1015,3 hPa 0,0 l/m 0,0 km/h (0 Bft) SO 133 0 min 0,000 mm 0,0 UV-I 0 W/m 11,6 C 13,9 C 0,0 km/h (0 Bft) 100,00 %
14.06.2018 23:28 14,0 C 22,8 C 86 % 1015,3 hPa 0,0 l/m 1,0 km/h (0 Bft) SO 133 0 min 0,000 mm 0,0 UV-I 0 W/m 11,7 C 14,0 C 3,2 km/h (1 Bft) 95,83 %
14.06.2018 23:29 14,1 C 22,8 C 85 % 1015,3 hPa 0,0 l/m 1,6 km/h (1 Bft) SO 133 0 min 0,000 mm 0,0 UV-I 0 W/m 11,6 C 14,1 C 1,6 km/h (1 Bft) 100,00 %
14.06.2018 23:30 14,1 C 22,8 C 85 % 1015,4 hPa 0,0 l/m 1,1 km/h (1 Bft) SO 133 0 min 0,000 mm 0,0 UV-I 0 W/m 11,6 C 14,1 C 1,6 km/h (1 Bft) 96,30 %
14.06.2018 23:31 14,1 C 22,8 C 85 % 1015,3 hPa 0,0 l/m 2,3 km/h (1 Bft) SO 134 0 min 0,000 mm 0,0 UV-I 0 W/m 11,6 C 14,1 C 3,2 km/h (1 Bft) 100,00 %
14.06.2018 23:33 14,1 C 22,8 C 85 % 1015,4 hPa 0,0 l/m 2,5 km/h (1 Bft) SO 134 0 min 0,000 mm 0,0 UV-I 0 W/m 11,6 C 14,1 C 3,2 km/h (1 Bft) 98,00 %
14.06.2018 23:34 14,1 C 22,8 C 85 % 1015,4 hPa 0,0 l/m 3,3 km/h (1 Bft) SW 231 0 min 0,000 mm 0,0 UV-I 0 W/m 11,6 C 14,1 C 4,8 km/h (1 Bft) 91,67 %
14.06.2018 23:35 14,1 C 22,8 C 86 % 1015,4 hPa 0,0 l/m 2,8 km/h (1 Bft) SW 231 0 min 0,000 mm 0,0 UV-I 0 W/m 11,8 C 14,1 C 3,2 km/h (1 Bft) 95,65 %
14.06.2018 23:36 14,0 C 22,8 C 85 % 1015,4 hPa 0,0 l/m 1,9 km/h (1 Bft) SW 231 0 min 0,000 mm 0,0 UV-I 0 W/m 11,5 C 14,0 C 3,2 km/h (1 Bft) 95,83 %
14.06.2018 23:37 13,9 C 22,8 C 86 % 1015,4 hPa 0,0 l/m 2,3 km/h (1 Bft) SW 231 0 min 0,000 mm 0,0 UV-I 0 W/m 11,6 C 13,9 C 3,2 km/h (1 Bft) 100,00 %
14.06.2018 23:38 13,9 C 22,8 C 87 % 1015,4 hPa 0,0 l/m 3,3 km/h (1 Bft) SW 231 0 min 0,000 mm 0,0 UV-I 0 W/m 11,8 C 13,9 C 4,8 km/h (1 Bft) 91,67 %
14.06.2018 23:39 13,8 C 22,8 C 87 % 1015,4 hPa 0,0 l/m 3,1 km/h (1 Bft) SW 231 0 min 0,000 mm 0,0 UV-I 0 W/m 11,7 C 13,8 C 4,8 km/h (1 Bft) 96,15 %
14.06.2018 23:40 13,9 C 22,8 C 87 % 1015,4 hPa 0,0 l/m 2,1 km/h (1 Bft) SW 231 0 min 0,000 mm 0,0 UV-I 0 W/m 11,8 C 13,9 C 3,2 km/h (1 Bft) 95,83 %
14.06.2018 23:41 13,9 C 22,8 C 86 % 1015,4 hPa 0,0 l/m 1,2 km/h (1 Bft) SW 231 0 min 0,000 mm 0,0 UV-I 0 W/m 11,6 C 13,9 C 3,2 km/h (1 Bft) 91,30 %
14.06.2018 23:42 13,9 C 22,8 C 87 % 1015,4 hPa 0,0 l/m 0,0 km/h (0 Bft) SW 231 0 min 0,000 mm 0,0 UV-I 0 W/m 11,8 C 13,9 C 0,0 km/h (0 Bft) 100,00 %
14.06.2018 23:43 13,9 C 22,8 C 87 % 1015,4 hPa 0,0 l/m 0,0 km/h (0 Bft) SW 231 0 min 0,000 mm 0,0 UV-I 0 W/m 11,8 C 13,9 C 0,0 km/h (0 Bft) 91,67 %
14.06.2018 23:44 13,9 C 22,8 C 87 % 1015,4 hPa 0,0 l/m 0,5 km/h (0 Bft) SW 231 0 min 0,000 mm 0,0 UV-I 0 W/m 11,8 C 13,9 C 1,6 km/h (1 Bft) 97,56 %
14.06.2018 23:45 13,9 C 22,8 C 87 % 1015,4 hPa 0,0 l/m 1,6 km/h (1 Bft) SW 231 0 min 0,000 mm 0,0 UV-I 0 W/m 11,8 C 13,9 C 3,2 km/h (1 Bft) 91,30 %
14.06.2018 23:46 13,9 C 22,8 C 88 % 1015,4 hPa 0,0 l/m 3,2 km/h (1 Bft) SW 231 0 min 0,000 mm 0,0 UV-I 0 W/m 11,9 C 13,9 C 3,2 km/h (1 Bft) 100,00 %
14.06.2018 23:48 13,9 C 22,8 C 88 % 1015,4 hPa 0,0 l/m 1,8 km/h (1 Bft) SW 231 0 min 0,000 mm 0,0 UV-I 0 W/m 11,9 C 13,9 C 3,2 km/h (1 Bft) 94,00 %
14.06.2018 23:49 13,9 C 22,8 C 89 % 1015,4 hPa 0,0 l/m 1,7 km/h (1 Bft) SW 231 0 min 0,000 mm 0,0 UV-I 0 W/m 12,1 C 13,9 C 3,2 km/h (1 Bft) 100,00 %
14.06.2018 23:50 13,8 C 22,8 C 89 % 1015,4 hPa 0,0 l/m 1,2 km/h (1 Bft) SW 231 0 min 0,000 mm 0,0 UV-I 0 W/m 12,0 C 13,8 C 1,6 km/h (1 Bft) 92,31 %
14.06.2018 23:51 13,8 C 22,8 C 88 % 1015,4 hPa 0,0 l/m 1,4 km/h (1 Bft) SW 231 0 min 0,000 mm 0,0 UV-I 0 W/m 11,8 C 13,8 C 1,6 km/h (1 Bft) 100,00 %
14.06.2018 23:52 13,8 C 22,8 C 88 % 1015,4 hPa 0,0 l/m 1,3 km/h (1 Bft) SW 231 0 min 0,000 mm 0,0 UV-I 0 W/m 11,8 C 13,8 C 1,6 km/h (1 Bft) 91,30 %
14.06.2018 23:53 13,7 C 22,8 C 88 % 1015,4 hPa 0,0 l/m 1,3 km/h (1 Bft) SW 231 0 min 0,000 mm 0,0 UV-I 0 W/m 11,7 C 13,7 C 1,6 km/h (1 Bft) 100,00 %
14.06.2018 23:54 13,7 C 22,8 C 88 % 1015,4 hPa 0,0 l/m 1,1 km/h (1 Bft) SW 231 0 min 0,000 mm 0,0 UV-I 0 W/m 11,7 C 13,7 C 1,6 km/h (1 Bft) 92,31 %
14.06.2018 23:55 13,7 C 22,8 C 88 % 1015,4 hPa 0,0 l/m 1,2 km/h (1 Bft) SW 230 0 min 0,000 mm 0,0 UV-I 0 W/m 11,7 C 13,7 C 3,2 km/h (1 Bft) 100,00 %
14.06.2018 23:56 13,8 C 22,8 C 88 % 1015,5 hPa 0,0 l/m 0,5 km/h (0 Bft) SW 231 0 min 0,000 mm 0,0 UV-I 0 W/m 11,8 C 13,8 C 1,6 km/h (1 Bft) 91,30 %
14.06.2018 23:58 13,8 C 22,8 C 87 % 1015,5 hPa 0,0 l/m 2,0 km/h (1 Bft) SW 231 0 min 0,000 mm 0,0 UV-I 0 W/m 11,7 C 13,8 C 3,2 km/h (1 Bft) 96,61 %
14.06.2018 23:59 13,8 C 22,8 C 88 % 1015,5 hPa 0,0 l/m 2,7 km/h (1 Bft) SW 231 0 min 0,000 mm 0,0 UV-I 0 W/m 11,8 C 13,8 C 4,8 km/h (1 Bft) 100,00 %
_ Min-Zeit 06:12 08:16 15:29 00:00 - 00:36 - - - - - - 15:21 05:02 00:36 10:34
Minimum _ 11,4 C 22,2 C 52 % 1013,0 hPa - 0,0 km/h (0 Bft) - - - - - - 8,6 C 8,2 C 0,0 km/h (0 Bft) 81,82 %
_ Max-Zeit 16:45 00:00 00:00 10:47 00:11 16:41 - - 11:05 12:00 12:20 12:34 00:00 16:46 12:29 00:03
Maximum _ 19,6 C 23,3 C 97 % 1015,5 hPa 0,2 l/m 16,9 km/h
W-SW (3 Bft)
- - 5 min 0,407 mm 6,8 UV-I 1183 W/m 13,1 C 19,6 C 19,3 km/h
SW (3 Bft)
100,00 %
Durchschnitt _ 14,8 C 22,9 C 81 % 1014,4 hPa #3,2 l/m 5,0 km/h (1 Bft) W - #4:51 h #2,692 mm 2,6 UV-I 272 W/m 11,3 C 14,5 C 7,6 km/h (2 Bft) 97,93 %